[[{"header":{"parameterUnit":"m.s-1","parameterCategory":1,"la1":31.0,"la2":29.5877,"lo1":-88.7671,"lo2":-86.6584,"dy":0.0162,"dx":0.0185,"nx":115,"ny":88,"refTime":"2024-03-26T06:00:00:Z","depth":0,"parameterNumber":2,"parameterNumberName":"U-component_of_WINDS"},"data":[0.0,0.0,0.0,0.0,0.0,0.0,0.0,0.0,0.0,0.0,0.0,0.0,0.0,0.0,0.0,0.0,0.0,0.0,0.0,0.0,0.0,0.0,0.0,0.0,0.0,0.0,0.0,0.0,0.0,0.0,0.0,0.0,0.0,0.0,0.0,0.0,0.0,0.0,0.0,0.0,0.0,0.0,0.0,0.0,0.0,0.0,0.0,0.0,0.0,0.0,0.0,0.0,0.0,0.0,0.0,0.0,0.0,0.0,0.0,0.0,0.0,0.0,0.0,0.0,0.0,0.0,0.0,0.0,0.0,0.0,0.0,0.0,0.0,0.0,0.0,0.0,0.0,0.0,0.0,0.0,0.0,0.0,0.0,0.0,0.0,0.0,0.0,0.0,0.0,0.0,0.0,0.0,0.0,0.0,0.0,0.0,0.0,0.0,0.0,0.0,0.0,0.0,0.0,0.0,0.0,0.0,0.0,0.0,0.0,0.0,0.0,0.0,0.0,0.0,0.0,0.0,0.0,0.0,0.0,0.0,0.0,0.0,0.0,0.0,0.0,0.0,0.0,0.0,0.0,0.0,0.0,0.0,0.0,0.0,0.0,0.0,0.0,0.0,0.0,0.0,0.0,0.0,0.0,0.0,0.0,0.0,0.0,0.0,0.0,0.0,0.0,0.0,0.0,0.0,0.0,0.0,0.0,0.0,0.0,0.0,0.0,0.0,0.0,0.0,0.0,0.0,0.0,0.0,0.0,0.0,0.0,0.0,0.0,0.0,0.0,0.0,0.0,0.0,0.0,0.0,0.0,0.0,0.0,0.0,0.0,0.0,0.0,0.0,0.0,0.0,0.0,0.0,0.0,0.0,0.0,0.0,0.0,0.0,0.0,0.0,0.0,0.0,0.0,0.0,0.0,0.0,0.0,0.0,0.0,0.0,0.0,0.0,0.0,0.0,0.0,0.0,0.0,0.0,0.0,0.0,0.0,0.0,0.0,0.0,0.0,0.0,0.0,0.0,0.0,0.0,0.0,0.0,0.0,0.0,0.0,0.0,0.0,0.0,0.0,0.0,0.0,0.0,0.0,0.0,0.0,0.0,0.0,0.0,0.0,0.0,0.0,0.0,0.0,0.0,0.0,0.0,0.0,0.0,0.0,0.0,0.0,0.0,0.0,0.0,0.0,0.0,0.0,0.0,0.0,0.0,0.0,0.0,0.0,0.0,0.0,0.0,0.0,0.0,0.0,0.0,0.0,0.0,0.0,0.0,0.0,0.0,0.0,0.0,0.0,0.0,0.0,0.0,0.0,0.0,0.0,0.0,0.0,0.0,0.0,0.0,0.0,0.0,0.0,0.0,0.0,0.0,0.0,0.0,0.0,0.0,0.0,0.0,0.0,0.0,0.0,0.0,0.0,0.0,0.0,0.0,0.0,0.0,0.0,0.0,0.0,0.0,0.0,0.0,0.0,0.0,0.0,0.0,0.0,0.0,0.0,0.0,0.0,0.0,0.0,0.0,0.0,0.0,0.0,0.0,0.0,0.0,0.0,0.0,0.0,0.0,0.0,0.0,0.0,0.0,0.0,0.0,0.0,0.0,0.0,0.0,0.0,0.0,0.0,0.0,0.0,0.0,0.0,0.0,0.0,0.0,0.0,0.0,0.0,0.0,0.0,0.0,0.0,0.0,0.0,0.0,0.0,0.0,0.0,0.0,0.0,0.0,0.0,0.0,0.0,0.0,0.0,0.0,0.0,0.0,0.0,0.0,0.0,0.0,0.0,0.0,0.0,0.0,0.0,0.0,0.0,0.0,0.0,0.0,0.0,0.0,0.0,0.0,0.0,0.0,0.0,0.0,0.0,0.0,0.0,0.0,0.0,0.0,0.0,0.0,0.0,0.0,0.0,0.0,0.0,0.0,0.0,0.0,0.0,0.0,0.0,0.0,0.0,0.0,0.0,0.0,0.0,0.0,0.0,0.0,0.0,0.0,0.0,0.0,0.0,0.0,0.0,0.0,0.0,0.0,0.0,0.0,0.0,0.0,0.0,0.0,0.0,0.0,0.0,0.0,0.0,0.0,0.0,0.0,0.0,0.0,0.0,0.0,0.0,0.0,0.0,0.0,0.0,0.0,0.0,0.0,0.0,0.0,0.0,0.0,0.0,0.0,0.0,0.0,0.0,0.0,0.0,0.0,0.0,0.0,0.0,0.0,0.0,0.0,0.0,0.0,0.0,0.0,0.0,0.0,0.0,0.0,0.0,0.0,0.0,0.0,0.0,0.0,0.0,0.0,0.0,0.0,0.0,0.0,0.0,0.0,0.0,0.0,0.0,0.0,0.0,0.0,0.0,0.0,0.0,0.0,0.0,0.0,0.0,0.0,0.0,0.0,0.0,0.0,0.0,0.0,0.0,0.0,0.0,0.0,0.0,0.0,0.0,0.0,0.0,0.0,0.0,0.0,0.0,0.0,0.0,0.0,0.0,0.0,0.0,0.0,0.0,0.0,0.0,0.0,0.0,0.0,0.0,0.0,0.0,0.0,0.0,0.0,0.0,0.0,0.0,0.0,0.0,0.0,0.0,0.0,0.0,0.0,0.0,0.0,0.0,0.0,0.0,0.0,0.0,0.0,0.0,0.0,0.0,0.0,0.0,0.0,0.0,0.0,0.0,0.0,0.0,0.0,0.0,0.0,0.0,0.0,0.0,0.0,0.0,0.0,0.0,0.0,0.0,0.0,0.0,0.0,0.0,0.0,0.0,0.0,0.0,0.0,0.0,0.0,0.0,0.0,0.0,0.0,0.0,0.0,0.0,0.0,0.0,0.0,0.0,0.0,0.0,0.0,0.0,0.0,0.0,0.0,0.0,0.0,0.0,0.0,0.0,0.0,0.0,0.0,0.0,0.0,0.0,0.0,0.0,0.0,0.0,0.0,0.0,0.0,0.0,0.0,0.0,0.0,0.0,0.0,0.0,0.0,0.0,0.0,0.0,0.0,0.0,0.0,0.0,0.0,0.0,0.0,0.0,0.0,0.0,0.0,0.0,0.0,0.0,0.0,0.0,0.0,0.0,0.0,0.0,0.0,0.0,0.0,0.0,0.0,0.0,0.0,0.0,0.0,0.0,0.0,0.0,0.0,0.0,0.0,0.0,0.0,0.0,0.0,0.0,0.0,0.0,0.0,0.0,0.0,0.0,0.0,0.0,0.0,0.0,0.0,0.0,0.0,0.0,0.0,0.0,0.0,0.0,0.0,0.0,0.0,0.0,0.0,0.0,0.0,0.0,0.0,0.0,0.0,0.0,0.0,0.0,0.0,0.0,0.0,0.0,0.0,0.0,0.0,0.0,0.0,0.0,0.0,0.0,0.0,0.0,0.0,0.0,0.0,0.0,0.0,0.0,0.0,0.0,0.0,0.0,0.0,0.0,0.0,0.0,0.0,0.0,0.0,0.0,0.0,0.0,0.0,0.0,0.0,0.0,0.0,0.0,0.0,0.0,0.0,0.0,0.0,0.0,0.0,0.0,0.0,0.0,0.0,0.0,0.0,0.0,0.0,0.0,0.0,0.0,0.0,0.0,0.0,0.0,0.0,0.0,0.0,0.0,0.0,0.0,0.0,0.0,0.0,0.0,0.0,0.0,0.0,0.0,0.0,0.0,0.0,0.0,0.0,0.0,0.0,0.0,0.0,0.0,0.0,0.0,0.0,0.0,0.0,0.0,0.0,0.0,0.0,0.0,0.0,0.0,0.0,0.0,0.0,0.0,0.0,0.0,0.0,0.0,0.0,0.0,0.0,0.0,0.0,0.0,0.0,0.0,0.0,0.0,0.0,0.0,0.0,0.0,0.0,0.0,0.0,0.0,0.0,0.0,0.0,0.0,0.0,0.0,0.0,0.0,0.0,0.0,0.0,0.0,0.0,0.0,0.0,0.0,0.0,0.0,0.0,0.0,0.0,0.0,0.0,0.0,0.0,0.0,0.0,0.0,0.0,0.0,0.0,0.0,0.0,0.0,0.0,0.0,0.0,0.0,0.0,0.0,0.0,0.0,0.0,0.0,0.0,0.0,0.0,0.0,0.0,0.0,0.0,0.0,0.0,0.0,0.0,0.0,0.0,0.0,0.0,0.0,0.0,0.0,0.0,0.0,0.0,0.0,0.0,0.0,0.0,0.0,0.0,0.0,0.0,0.0,0.0,0.0,0.0,0.0,0.0,0.0,0.0,0.0,0.0,0.0,0.0,0.0,0.0,0.0,0.0,0.0,0.0,0.0,0.0,0.0,0.0,0.0,0.0,0.0,0.0,3.8892,0.0,0.0,0.0,0.0,0.0,0.0,0.0,0.0,0.0,0.0,0.0,0.0,0.0,0.0,0.0,0.0,0.0,0.0,0.0,0.0,0.0,0.0,0.0,0.0,0.0,0.0,0.0,0.0,0.0,0.0,0.0,0.0,0.0,0.0,0.0,0.0,0.0,0.0,0.0,0.0,0.0,0.0,0.0,0.0,0.0,0.0,0.0,0.0,0.0,0.0,0.0,0.0,0.0,0.0,0.0,0.0,0.0,0.0,0.0,0.0,0.0,0.0,0.0,0.0,0.0,0.0,0.0,0.0,0.0,0.0,0.0,0.0,0.0,0.0,0.0,0.0,0.0,0.0,0.0,0.0,0.0,0.0,0.0,0.0,0.0,0.0,0.0,0.0,0.0,0.0,0.0,0.0,0.0,0.0,0.0,0.0,0.0,0.0,0.0,0.0,0.0,0.0,0.0,0.0,0.0,0.0,0.0,0.0,0.0,0.0,3.9309,3.9256,3.9175,3.9092,3.9007,0.0,0.0,0.0,0.0,0.0,0.0,0.0,0.0,0.0,0.0,0.0,0.0,0.0,0.0,0.0,0.0,0.0,0.0,0.0,0.0,0.0,0.0,0.0,0.0,0.0,0.0,0.0,0.0,0.0,0.0,0.0,0.0,0.0,0.0,0.0,0.0,0.0,0.0,0.0,0.0,0.0,0.0,0.0,0.0,0.0,0.0,0.0,0.0,0.0,0.0,0.0,0.0,0.0,0.0,0.0,0.0,0.0,0.0,0.0,0.0,0.0,0.0,0.0,0.0,0.0,0.0,0.0,0.0,0.0,0.0,0.0,0.0,0.0,0.0,0.0,0.0,0.0,0.0,0.0,0.0,0.0,0.0,0.0,0.0,0.0,0.0,0.0,0.0,0.0,0.0,0.0,0.0,0.0,0.0,0.0,0.0,0.0,0.0,0.0,0.0,0.0,0.0,0.0,0.0,0.0,0.0,0.0,0.0,0.0,0.0,0.0,0.0,3.9309,3.9229,3.9175,0.0,0.0,0.0,0.0,0.0,0.0,0.0,0.0,0.0,0.0,0.0,0.0,0.0,0.0,0.0,0.0,0.0,0.0,0.0,0.0,0.0,0.0,0.0,0.0,0.0,0.0,0.0,0.0,0.0,0.0,0.0,0.0,0.0,0.0,0.0,0.0,0.0,0.0,0.0,0.0,0.0,0.0,0.0,0.0,0.0,0.0,0.0,0.0,0.0,0.0,0.0,0.0,0.0,0.0,0.0,0.0,0.0,0.0,0.0,0.0,0.0,0.0,0.0,0.0,0.0,0.0,0.0,0.0,0.0,0.0,0.0,0.0,0.0,0.0,0.0,0.0,0.0,0.0,0.0,0.0,0.0,0.0,0.0,0.0,0.0,0.0,0.0,0.0,0.0,0.0,0.0,0.0,0.0,0.0,0.0,0.0,0.0,0.0,0.0,0.0,0.0,0.0,0.0,0.0,0.0,0.0,0.0,0.0,0.0,0.0,3.9551,3.9502,3.9427,0.0,3.9373,0.0,0.0,0.0,0.0,0.0,0.0,0.0,0.0,0.0,0.0,0.0,0.0,0.0,0.0,0.0,0.0,0.0,0.0,0.0,0.0,0.0,0.0,0.0,0.0,0.0,0.0,0.0,0.0,0.0,0.0,0.0,0.0,0.0,0.0,0.0,0.0,0.0,0.0,0.0,0.0,0.0,0.0,0.0,0.0,0.0,0.0,0.0,0.0,0.0,0.0,0.0,0.0,0.0,0.0,0.0,0.0,0.0,0.0,0.0,0.0,0.0,0.0,0.0,0.0,0.0,0.0,0.0,0.0,0.0,0.0,0.0,0.0,0.0,0.0,0.0,0.0,0.0,0.0,0.0,0.0,0.0,0.0,0.0,0.0,0.0,0.0,0.0,0.0,0.0,0.0,0.0,0.0,0.0,0.0,0.0,0.0,0.0,0.0,0.0,0.0,0.0,0.0,0.0,0.0,0.0,0.0,0.0,0.0,0.0,0.0,3.9717,3.9623,3.9502,3.9427,0.0,0.0,0.0,0.0,0.0,0.0,0.0,0.0,0.0,0.0,0.0,0.0,0.0,0.0,0.0,0.0,0.0,0.0,0.0,0.0,0.0,0.0,0.0,0.0,0.0,0.0,0.0,0.0,0.0,0.0,0.0,0.0,0.0,0.0,0.0,0.0,0.0,0.0,0.0,0.0,0.0,0.0,0.0,0.0,0.0,0.0,0.0,0.0,0.0,0.0,0.0,0.0,0.0,0.0,0.0,0.0,0.0,0.0,0.0,0.0,0.0,0.0,0.0,0.0,0.0,0.0,0.0,0.0,0.0,0.0,0.0,0.0,0.0,0.0,0.0,0.0,0.0,0.0,0.0,0.0,0.0,0.0,0.0,0.0,0.0,0.0,0.0,0.0,0.0,0.0,0.0,0.0,0.0,0.0,0.0,0.0,0.0,0.0,0.0,0.0,0.0,0.0,0.0,0.0,0.0,0.0,0.0,0.0,0.0,0.0,3.9954,3.9889,3.9777,3.9623,3.9526,3.9514,0.0,0.0,0.0,0.0,0.0,0.0,0.0,0.0,0.0,0.0,0.0,0.0,0.0,0.0,0.0,0.0,0.0,0.0,0.0,0.0,0.0,0.0,0.0,0.0,0.0,0.0,0.0,0.0,0.0,0.0,0.0,0.0,0.0,0.0,0.0,0.0,0.0,0.0,0.0,0.0,0.0,0.0,0.0,0.0,0.0,0.0,0.0,0.0,0.0,0.0,0.0,0.0,0.0,0.0,0.0,0.0,0.0,0.0,0.0,0.0,0.0,0.0,0.0,0.0,0.0,0.0,0.0,0.0,0.0,0.0,0.0,0.0,0.0,0.0,0.0,0.0,0.0,0.0,0.0,0.0,0.0,0.0,0.0,0.0,0.0,0.0,0.0,0.0,0.0,0.0,0.0,0.0,0.0,0.0,0.0,0.0,0.0,0.0,0.0,0.0,0.0,0.0,0.0,0.0,0.0,0.0,0.0,0.0,4.0176,4.0137,4.0017,3.9889,3.9777,3.9708,0.0,0.0,0.0,0.0,0.0,0.0,0.0,0.0,0.0,0.0,0.0,0.0,0.0,0.0,0.0,0.0,0.0,0.0,0.0,0.0,0.0,0.0,0.0,0.0,0.0,0.0,0.0,0.0,0.0,0.0,0.0,0.0,0.0,0.0,0.0,0.0,0.0,0.0,0.0,0.0,0.0,0.0,0.0,0.0,0.0,0.0,0.0,0.0,0.0,0.0,0.0,0.0,0.0,0.0,0.0,0.0,0.0,0.0,0.0,0.0,0.0,0.0,0.0,0.0,0.0,0.0,0.0,0.0,0.0,0.0,0.0,0.0,0.0,0.0,0.0,0.0,0.0,0.0,0.0,0.0,0.0,0.0,0.0,0.0,0.0,0.0,0.0,0.0,0.0,0.0,0.0,0.0,0.0,0.0,0.0,0.0,0.0,0.0,0.0,0.0,0.0,0.0,0.0,0.0,0.0,0.0,0.0,0.0,0.0,4.0196,4.069,4.0629,4.0093,4.0463,4.0457,0.0,0.0,0.0,0.0,0.0,0.0,0.0,0.0,0.0,0.0,0.0,0.0,0.0,0.0,0.0,0.0,0.0,0.0,0.0,0.0,0.0,0.0,0.0,0.0,0.0,0.0,0.0,0.0,0.0,0.0,0.0,0.0,0.0,0.0,0.0,0.0,0.0,0.0,0.0,0.0,0.0,0.0,0.0,0.0,0.0,0.0,0.0,0.0,0.0,0.0,0.0,0.0,0.0,0.0,0.0,0.0,0.0,0.0,0.0,0.0,0.0,0.0,0.0,0.0,0.0,0.0,0.0,0.0,0.0,0.0,0.0,0.0,0.0,0.0,0.0,0.0,0.0,0.0,0.0,0.0,0.0,0.0,0.0,0.0,0.0,0.0,0.0,0.0,0.0,0.0,0.0,0.0,0.0,0.0,0.0,0.0,0.0,0.0,0.0,0.0,0.0,0.0,0.0,0.0,0.0,0.0,0.0,0.0,0.0,4.0654,0.0,4.1528,4.0974,4.1428,4.1309,0.0,0.0,0.0,0.0,0.0,0.0,0.0,0.0,0.0,0.0,0.0,0.0,0.0,0.0,0.0,0.0,0.0,0.0,0.0,0.0,0.0,0.0,0.0,0.0,0.0,0.0,0.0,0.0,0.0,0.0,0.0,0.0,0.0,0.0,0.0,0.0,0.0,0.0,0.0,0.0,0.0,0.0,0.0,0.0,0.0,0.0,0.0,0.0,0.0,0.0,0.0,0.0,0.0,0.0,0.0,0.0,0.0,0.0,0.0,0.0,0.0,0.0,0.0,0.0,0.0,0.0,0.0,0.0,0.0,0.0,0.0,0.0,0.0,0.0,0.0,0.0,0.0,0.0,0.0,0.0,0.0,0.0,0.0,0.0,0.0,0.0,0.0,0.0,0.0,0.0,0.0,0.0,0.0,0.0,0.0,0.0,0.0,0.0,0.0,0.0,0.0,0.0,0.0,0.0,0.0,0.0,0.0,0.0,4.0786,4.1533,4.2334,4.2733,4.2695,4.2671,4.2269,0.0,0.0,0.0,0.0,0.0,0.0,0.0,0.0,0.0,0.0,0.0,0.0,0.0,0.0,0.0,0.0,0.0,0.0,0.0,0.0,0.0,0.0,0.0,0.0,0.0,0.0,0.0,0.0,0.0,0.0,0.0,0.0,0.0,0.0,0.0,0.0,0.0,0.0,0.0,0.0,0.0,0.0,0.0,0.0,0.0,0.0,0.0,0.0,0.0,0.0,0.0,0.0,0.0,0.0,0.0,0.0,0.0,0.0,0.0,0.0,0.0,0.0,0.0,0.0,0.0,0.0,0.0,0.0,0.0,0.0,0.0,0.0,0.0,0.0,0.0,0.0,0.0,0.0,0.0,0.0,0.0,0.0,0.0,0.0,0.0,0.0,0.0,0.0,0.0,0.0,0.0,0.0,0.0,0.0,0.0,0.0,0.0,0.0,0.0,0.0,0.0,0.0,0.0,0.0,0.0,0.0,0.0,0.0,0.0,4.3252,4.4034,4.4225,4.3652,4.4166,4.3764,0.0,0.0,0.0,0.0,0.0,0.0,0.0,0.0,0.0,0.0,0.0,0.0,0.0,0.0,0.0,0.0,0.0,0.0,0.0,0.0,0.0,0.0,0.0,0.0,0.0,0.0,0.0,0.0,0.0,0.0,0.0,0.0,0.0,0.0,0.0,0.0,0.0,0.0,0.0,0.0,0.0,0.0,0.0,0.0,0.0,0.0,0.0,0.0,0.0,0.0,0.0,0.0,0.0,0.0,0.0,0.0,0.0,0.0,0.0,0.0,0.0,0.0,0.0,0.0,0.0,0.0,0.0,0.0,0.0,0.0,0.0,0.0,0.0,0.0,0.0,0.0,0.0,0.0,0.0,0.0,0.0,0.0,0.0,0.0,0.0,0.0,0.0,0.0,0.0,0.0,0.0,0.0,0.0,0.0,0.0,0.0,0.0,0.0,0.0,0.0,0.0,0.0,0.0,0.0,0.0,0.0,0.0,0.0,0.0,4.6806,4.6708,4.6418,4.5846,4.6075,4.5388,4.3746,0.0,0.0,0.0,0.0,0.0,0.0,0.0,0.0,0.0,0.0,0.0,0.0,0.0,0.0,0.0,0.0,0.0,0.0,0.0,0.0,0.0,0.0,0.0,0.0,0.0,0.0,0.0,0.0,0.0,0.0,0.0,0.0,0.0,0.0,0.0,0.0,0.0,0.0,0.0,0.0,0.0,0.0,0.0,0.0,0.0,0.0,0.0,0.0,0.0,0.0,0.0,0.0,0.0,0.0,0.0,0.0,0.0,0.0,0.0,0.0,0.0,0.0,0.0,0.0,0.0,0.0,0.0,0.0,0.0,0.0,0.0,0.0,0.0,0.0,0.0,0.0,0.0,0.0,0.0,0.0,0.0,0.0,0.0,0.0,0.0,0.0,0.0,0.0,0.0,0.0,0.0,0.0,0.0,0.0,0.0,0.0,0.0,0.0,0.0,0.0,0.0,0.0,0.0,0.0,0.0,0.0,0.0,0.0,5.1697,5.0212,4.9349,4.912,4.8357,4.7121,0.0,0.0,0.0,0.0,0.0,0.0,0.0,0.0,0.0,0.0,0.0,0.0,0.0,0.0,0.0,0.0,0.0,0.0,0.0,0.0,0.0,0.0,0.0,0.0,0.0,0.0,0.0,0.0,0.0,0.0,0.0,0.0,0.0,0.0,0.0,0.0,0.0,0.0,0.0,0.0,0.0,0.0,0.0,0.0,0.0,0.0,0.0,0.0,0.0,0.0,0.0,0.0,0.0,0.0,0.0,0.0,0.0,0.0,0.0,0.0,0.0,0.0,0.0,0.0,0.0,0.0,0.0,0.0,0.0,0.0,0.0,0.0,0.0,0.0,0.0,0.0,0.0,0.0,0.0,0.0,0.0,0.0,0.0,0.0,0.0,0.0,0.0,0.0,0.0,0.0,0.0,0.0,0.0,0.0,0.0,0.0,0.0,0.0,0.0,0.0,0.0,0.0,0.0,0.0,0.0,0.0,0.0,0.0,0.0,5.3302,5.4116,5.3353,5.095,5.0645,4.912,0.0,0.0,0.0,0.0,0.0,0.0,0.0,0.0,0.0,0.0,0.0,0.0,0.0,0.0,0.0,0.0,0.0,0.0,0.0,0.0,0.0,0.0,0.0,0.0,0.0,0.0,0.0,0.0,0.0,0.0,0.0,0.0,0.0,0.0,0.0,0.0,0.0,0.0,0.0,0.0,0.0,0.0,0.0,0.0,0.0,0.0,0.0,0.0,0.0,0.0,0.0,0.0,0.0,0.0,0.0,0.0,0.0,0.0,0.0,0.0,0.0,0.0,0.0,0.0,0.0,0.0,0.0,0.0,0.0,0.0,0.0,0.0,0.0,0.0,0.0,0.0,0.0,0.0,0.0,0.0,0.0,0.0,0.0,0.0,0.0,0.0,0.0,0.0,0.0,0.0,0.0,0.0,0.0,0.0,0.0,0.0,0.0,0.0,0.0,0.0,0.0,0.0,0.0,0.0,0.0,0.0,0.0,0.0,5.3595,5.5618,5.753,5.7301,5.4726,5.3277,5.1141,0.0,0.0,0.0,0.0,0.0,0.0,0.0,0.0,0.0,0.0,0.0,0.0,0.0,0.0,0.0,0.0,0.0,0.0,0.0,0.0,0.0,0.0,0.0,0.0,0.0,0.0,0.0,0.0,0.0,0.0,0.0,0.0,0.0,0.0,0.0,0.0,0.0,0.0,0.0,0.0,0.0,0.0,0.0,0.0,0.0,0.0,0.0,0.0,0.0,0.0,0.0,0.0,0.0,0.0,0.0,0.0,0.0,0.0,0.0,0.0,0.0,0.0,0.0,0.0,0.0,0.0,0.0,0.0,0.0,0.0,0.0,0.0,0.0,0.0,0.0,0.0,0.0,0.0,0.0,0.0,0.0,0.0,0.0,0.0,0.0,0.0,0.0,0.0,0.0,0.0,0.0,0.0,0.0,0.0,0.0,0.0,0.0,0.0,0.0,0.0,0.0,0.0,0.0,0.0,0.0,0.0,0.0,0.0,5.5538,5.8088,6.0319,6.0746,5.9254,5.6099,5.315,0.0,0.0,0.0,0.0,0.0,0.0,0.0,0.0,0.0,0.0,0.0,0.0,0.0,0.0,0.0,0.0,0.0,0.0,0.0,0.0,0.0,0.0,0.0,0.0,0.0,0.0,0.0,0.0,0.0,0.0,0.0,0.0,0.0,0.0,0.0,0.0,0.0,0.0,0.0,0.0,0.0,0.0,0.0,0.0,0.0,0.0,0.0,0.0,0.0,0.0,0.0,0.0,0.0,0.0,0.0,0.0,0.0,0.0,0.0,0.0,0.0,0.0,0.0,0.0,0.0,0.0,0.0,0.0,0.0,0.0,0.0,0.0,0.0,0.0,0.0,0.0,0.0,0.0,0.0,0.0,0.0,0.0,0.0,0.0,0.0,0.0,0.0,0.0,0.0,0.0,0.0,0.0,0.0,0.0,0.0,0.0,0.0,0.0,0.0,0.0,0.0,0.0,0.0,0.0,0.0,0.0,0.0,0.0,5.7947,5.975,6.1582,6.2069,6.1067,5.8377,5.5145,0.0,0.0,0.0,0.0,0.0,0.0,0.0,0.0,0.0,0.0,0.0,0.0,0.0,0.0,0.0,0.0,0.0,0.0,0.0,0.0,0.0,0.0,0.0,0.0,0.0,0.0,0.0,0.0,0.0,0.0,0.0,0.0,0.0,0.0,0.0,0.0,0.0,0.0,0.0,0.0,0.0,0.0,0.0,0.0,0.0,0.0,0.0,0.0,4.4272,0.0,0.0,0.0,0.0,0.0,0.0,0.0,0.0,0.0,0.0,0.0,0.0,0.0,0.0,0.0,0.0,0.0,0.0,0.0,0.0,0.0,0.0,0.0,0.0,0.0,0.0,0.0,0.0,0.0,0.0,0.0,0.0,0.0,0.0,0.0,0.0,0.0,0.0,0.0,0.0,0.0,0.0,0.0,0.0,0.0,0.0,0.0,0.0,0.0,0.0,0.0,0.0,0.0,0.0,0.0,0.0,0.0,0.0,0.0,5.956,6.1972,6.3337,6.3855,6.3312,6.0915,5.7756,0.0,0.0,0.0,0.0,0.0,0.0,0.0,0.0,0.0,0.0,0.0,0.0,0.0,0.0,0.0,0.0,0.0,0.0,0.0,0.0,0.0,0.0,0.0,0.0,0.0,0.0,0.0,0.0,0.0,0.0,0.0,0.0,0.0,0.0,0.0,0.0,0.0,0.0,0.0,0.0,0.0,0.0,0.0,0.0,0.0,0.0,0.0,0.0,0.0,0.0,0.0,0.0,0.0,0.0,0.0,0.0,0.0,0.0,0.0,0.0,0.0,0.0,0.0,0.0,0.0,0.0,0.0,0.0,0.0,0.0,0.0,0.0,0.0,0.0,0.0,0.0,0.0,0.0,0.0,0.0,0.0,0.0,0.0,0.0,0.0,0.0,0.0,0.0,0.0,0.0,0.0,0.0,0.0,0.0,0.0,0.0,0.0,0.0,0.0,0.0,0.0,0.0,0.0,0.0,0.0,0.0,0.0,5.7777,6.0904,6.3879,6.487,6.5352,6.5375,6.3083,6.037,5.7275,0.0,0.0,0.0,0.0,0.0,0.0,0.0,0.0,0.0,0.0,0.0,0.0,0.0,0.0,0.0,0.0,0.0,0.0,0.0,0.0,0.0,0.0,0.0,0.0,0.0,0.0,0.0,0.0,0.0,0.0,0.0,0.0,0.0,0.0,0.0,0.0,0.0,0.0,4.5113,4.5847,0.0,0.0,0.0,0.0,0.0,0.0,0.0,0.0,4.5944,0.0,0.0,0.0,0.0,0.0,0.0,0.0,0.0,0.0,0.0,0.0,0.0,0.0,0.0,0.0,0.0,0.0,0.0,0.0,0.0,0.0,0.0,0.0,0.0,0.0,0.0,0.0,0.0,0.0,0.0,0.0,0.0,0.0,0.0,0.0,0.0,0.0,0.0,0.0,0.0,0.0,0.0,0.0,0.0,0.0,0.0,0.0,0.0,0.0,0.0,0.0,0.0,0.0,0.0,0.0,0.0,5.7052,5.9779,6.2107,6.3955,6.4894,6.5413,6.5375,6.3656,6.1745,5.972,0.0,0.0,0.0,0.0,0.0,0.0,0.0,0.0,0.0,0.0,0.0,0.0,0.0,0.0,0.0,0.0,0.0,0.0,0.0,0.0,0.0,0.0,0.0,0.0,0.0,0.0,0.0,0.0,0.0,0.0,0.0,0.0,0.0,0.0,0.0,0.0,0.0,0.0,0.0,4.7789,4.7976,0.0,0.0,0.0,0.0,0.0,0.0,0.0,0.0,4.6851,0.0,0.0,0.0,0.0,0.0,0.0,0.0,0.0,0.0,0.0,0.0,0.0,0.0,0.0,0.0,0.0,0.0,0.0,0.0,0.0,0.0,0.0,0.0,0.0,0.0,0.0,0.0,0.0,0.0,0.0,0.0,0.0,0.0,0.0,0.0,0.0,0.0,0.0,0.0,0.0,0.0,0.0,0.0,0.0,0.0,0.0,0.0,0.0,0.0,0.0,0.0,0.0,0.0,0.0,0.0,5.8883,6.1124,6.3642,6.6472,6.6261,6.6254,6.6636,6.4229,6.2128,0.0,0.0,0.0,0.0,0.0,0.0,0.0,0.0,0.0,0.0,0.0,0.0,0.0,0.0,0.0,0.0,0.0,0.0,0.0,0.0,0.0,0.0,0.0,0.0,0.0,0.0,0.0,0.0,0.0,0.0,0.0,0.0,0.0,0.0,0.0,0.0,0.0,0.0,0.0,0.0,4.9452,4.9933,5.0223,0.0,0.0,0.0,0.0,0.0,0.0,4.9259,4.925,0.0,0.0,0.0,0.0,0.0,0.0,0.0,0.0,0.0,0.0,0.0,0.0,0.0,0.0,0.0,0.0,0.0,0.0,0.0,0.0,0.0,0.0,0.0,0.0,0.0,0.0,0.0,0.0,0.0,0.0,0.0,0.0,0.0,0.0,0.0,0.0,0.0,0.0,0.0,0.0,0.0,0.0,0.0,0.0,0.0,0.0,0.0,0.0,0.0,0.0,0.0,0.0,0.0,0.0,0.0,6.0437,6.2201,6.4908,6.8602,6.7598,6.7171,6.7591,6.4726,6.228,0.0,0.0,0.0,0.0,0.0,0.0,0.0,0.0,0.0,0.0,0.0,0.0,0.0,0.0,0.0,0.0,0.0,0.0,0.0,0.0,0.0,0.0,0.0,0.0,0.0,0.0,0.0,0.0,0.0,0.0,0.0,0.0,0.0,0.0,0.0,0.0,0.0,0.0,0.0,0.0,0.0,5.186,5.2333,5.2826,0.0,0.0,0.0,0.0,5.122,5.178,0.0,0.0,0.0,0.0,0.0,0.0,0.0,0.0,0.0,0.0,0.0,0.0,0.0,0.0,0.0,0.0,0.0,0.0,0.0,0.0,0.0,0.0,0.0,0.0,0.0,0.0,0.0,0.0,0.0,0.0,0.0,0.0,0.0,0.0,0.0,0.0,0.0,0.0,0.0,0.0,0.0,0.0,0.0,0.0,0.0,0.0,0.0,0.0,0.0,0.0,0.0,0.0,0.0,0.0,0.0,0.0,6.1258,6.3032,6.5207,6.7897,6.7859,6.7439,6.6865,6.5031,6.2892,0.0,0.0,0.0,0.0,0.0,0.0,0.0,0.0,0.0,0.0,0.0,0.0,0.0,0.0,0.0,0.0,0.0,0.0,0.0,0.0,0.0,0.0,0.0,0.0,0.0,0.0,0.0,0.0,0.0,0.0,0.0,0.0,0.0,0.0,0.0,0.0,0.0,0.0,0.0,0.0,0.0,5.3417,5.3454,5.4278,5.4615,0.0,0.0,5.4688,5.3936,5.4533,0.0,0.0,0.0,0.0,0.0,0.0,0.0,0.0,0.0,0.0,0.0,0.0,0.0,0.0,0.0,0.0,0.0,0.0,0.0,0.0,0.0,0.0,0.0,0.0,0.0,0.0,0.0,0.0,0.0,0.0,0.0,0.0,0.0,0.0,0.0,0.0,0.0,0.0,0.0,0.0,0.0,0.0,0.0,0.0,0.0,0.0,0.0,0.0,0.0,0.0,0.0,0.0,0.0,0.0,0.0,5.7634,6.2154,6.428,6.6597,6.9131,6.8788,6.8438,6.8126,6.5566,6.3197,0.0,0.0,0.0,0.0,0.0,0.0,0.0,0.0,0.0,0.0,0.0,0.0,0.0,0.0,0.0,0.0,0.0,0.0,0.0,0.0,0.0,0.0,0.0,0.0,0.0,0.0,0.0,0.0,0.0,0.0,0.0,0.0,0.0,0.0,0.0,0.0,0.0,0.0,0.0,0.0,0.0,0.0,5.5285,5.6556,0.0,0.0,0.0,5.6818,5.7042,0.0,0.0,0.0,0.0,0.0,0.0,0.0,0.0,0.0,0.0,0.0,0.0,0.0,0.0,0.0,0.0,0.0,0.0,0.0,0.0,0.0,0.0,0.0,0.0,0.0,0.0,0.0,0.0,0.0,0.0,0.0,0.0,0.0,0.0,0.0,0.0,0.0,0.0,0.0,0.0,0.0,0.0,0.0,0.0,0.0,0.0,0.0,0.0,0.0,0.0,0.0,0.0,0.0,0.0,0.0,0.0,0.0,6.3009,6.5204,6.7601,7.0171,6.9709,6.9322,6.9158,6.6139,0.0,0.0,0.0,0.0,0.0,0.0,0.0,0.0,0.0,0.0,0.0,0.0,0.0,0.0,0.0,0.0,0.0,0.0,0.0,0.0,0.0,0.0,0.0,0.0,0.0,0.0,0.0,4.1533,0.0,0.0,0.0,0.0,0.0,0.0,0.0,0.0,0.0,0.0,0.0,0.0,0.0,0.0,5.708,5.7229,5.8727,5.9627,0.0,0.0,5.9213,5.9515,5.884,5.8053,0.0,0.0,0.0,0.0,0.0,0.0,0.0,0.0,0.0,0.0,0.0,0.0,0.0,0.0,0.0,0.0,0.0,0.0,0.0,0.0,0.0,0.0,0.0,0.0,0.0,0.0,0.0,0.0,0.0,0.0,0.0,0.0,0.0,0.0,0.0,0.0,0.0,0.0,0.0,0.0,0.0,0.0,0.0,0.0,0.0,0.0,0.0,0.0,0.0,0.0,0.0,0.0,0.0,0.0,0.0,6.3802,6.5536,6.7669,7.0171,7.0315,6.996,6.9196,6.6674,6.4153,0.0,0.0,0.0,0.0,0.0,0.0,0.0,0.0,0.0,0.0,0.0,0.0,0.0,0.0,0.0,0.0,0.0,0.0,0.0,0.0,0.0,0.0,0.0,0.0,0.0,0.0,0.0,0.0,0.0,0.0,0.0,0.0,0.0,0.0,0.0,0.0,0.0,0.0,0.0,0.0,0.0,5.8166,5.8915,6.0528,6.1618,0.0,0.0,6.2257,6.0755,6.1731,6.1657,5.8789,0.0,0.0,0.0,0.0,0.0,0.0,0.0,0.0,0.0,0.0,0.0,0.0,0.0,0.0,0.0,0.0,0.0,0.0,0.0,0.0,0.0,0.0,0.0,0.0,0.0,0.0,0.0,0.0,0.0,0.0,0.0,0.0,0.0,0.0,0.0,0.0,0.0,0.0,0.0,0.0,0.0,0.0,0.0,0.0,0.0,0.0,0.0,0.0,0.0,0.0,0.0,0.0,0.0,6.0205,6.4756,6.6836,6.9195,7.1697,7.1388,7.1002,7.0724,6.7821,6.5261,0.0,0.0,0.0,0.0,0.0,0.0,0.0,0.0,0.0,0.0,0.0,0.0,0.0,0.0,0.0,0.0,0.0,0.0,0.0,0.0,0.0,0.0,0.0,0.0,0.0,0.0,0.0,0.0,4.5455,4.6334,4.6619,0.0,0.0,0.0,0.0,0.0,0.0,0.0,0.0,0.0,0.0,6.0454,6.0792,6.2257,0.0,0.0,6.3195,6.3083,6.2895,6.2518,6.1731,6.0076,5.8945,0.0,0.0,0.0,0.0,0.0,0.0,0.0,0.0,0.0,0.0,0.0,0.0,0.0,0.0,0.0,0.0,0.0,0.0,0.0,0.0,0.0,0.0,0.0,0.0,0.0,0.0,0.0,0.0,0.0,0.0,0.0,0.0,0.0,0.0,0.0,0.0,0.0,0.0,0.0,0.0,0.0,0.0,0.0,0.0,0.0,0.0,0.0,0.0,0.0,0.0,0.0,0.0,6.1416,6.5633,6.7787,7.0033,7.2383,7.1655,7.1269,7.1221,6.8317,6.591,0.0,0.0,0.0,0.0,0.0,0.0,0.0,0.0,0.0,0.0,0.0,0.0,0.0,0.0,0.0,0.0,0.0,0.0,0.0,0.0,0.0,0.0,0.0,0.0,0.0,0.0,0.0,0.0,4.6766,4.771,4.7919,0.0,0.0,0.0,0.0,0.0,0.0,0.0,0.0,0.0,0.0,6.1994,6.2482,6.3984,6.5035,6.5035,6.4547,6.4322,6.4622,6.3643,6.2443,6.1281,0.0,0.0,0.0,0.0,0.0,0.0,0.0,0.0,0.0,0.0,0.0,0.0,0.0,0.0,0.0,0.0,0.0,0.0,0.0,0.0,0.0,0.0,0.0,0.0,0.0,0.0,0.0,0.0,0.0,0.0,4.791,0.0,0.0,0.0,0.0,0.0,0.0,0.0,0.0,0.0,0.0,0.0,0.0,0.0,0.0,0.0,0.0,0.0,0.0,0.0,0.0,0.0,0.0,6.2353,6.6434,6.8264,6.998,7.162,7.0849,7.0533,7.0457,6.805,6.5948,6.4229,0.0,0.0,0.0,0.0,0.0,0.0,0.0,0.0,0.0,0.0,0.0,0.0,0.0,0.0,0.0,0.0,0.0,0.0,0.0,0.0,0.0,0.0,0.0,0.0,0.0,0.0,4.7186,4.7937,4.8711,0.0,0.0,0.0,0.0,0.0,0.0,0.0,0.0,0.0,0.0,6.0717,6.2407,6.4021,6.5674,6.6687,6.6725,6.6687,6.6387,6.5598,6.5448,6.4662,0.0,0.0,0.0,0.0,0.0,0.0,0.0,0.0,0.0,0.0,0.0,0.0,0.0,0.0,0.0,0.0,0.0,0.0,0.0,0.0,0.0,0.0,0.0,0.0,0.0,0.0,0.0,4.8805,4.931,0.0,0.0,0.0,0.0,0.0,0.0,0.0,0.0,0.0,0.0,0.0,5.2273,5.2273,0.0,0.0,0.0,0.0,0.0,0.0,0.0,0.0,0.0,0.0,0.0,0.0,6.4062,6.8139,6.9938,7.1884,7.4091,7.3399,7.2673,7.2138,7.019,6.7324,6.3465,0.0,0.0,0.0,0.0,0.0,0.0,0.0,0.0,0.0,0.0,0.0,0.0,0.0,0.0,0.0,0.0,0.0,0.0,0.0,0.0,0.0,0.0,0.0,0.0,0.0,4.8277,0.0,0.0,0.0,0.0,0.0,0.0,0.0,0.0,0.0,0.0,0.0,5.8276,5.9966,6.2519,6.4472,6.5035,6.6537,6.7589,0.0,0.0,0.0,0.0,0.0,0.0,0.0,0.0,0.0,0.0,0.0,0.0,0.0,0.0,5.7894,5.605,5.5738,5.5708,5.5648,0.0,0.0,0.0,0.0,0.0,0.0,0.0,0.0,0.0,0.0,0.0,0.0,0.0,0.0,5.0339,0.0,5.0236,0.0,0.0,0.0,0.0,0.0,0.0,0.0,0.0,5.3623,5.4124,5.4646,5.4948,5.5206,0.0,5.6101,5.5246,0.0,0.0,0.0,0.0,0.0,0.0,0.0,0.0,6.5505,6.9082,7.0806,7.2754,7.4889,7.4201,7.3552,7.2979,7.103,6.8012,6.3915,6.1687,5.9458,0.0,0.0,0.0,0.0,0.0,0.0,0.0,0.0,0.0,0.0,0.0,0.0,0.0,0.0,0.0,0.0,0.0,0.0,0.0,0.0,0.0,0.0,0.0,5.0236,0.0,0.0,0.0,0.0,0.0,0.0,0.0,0.0,0.0,5.7201,5.8685,6.0266,6.1693,6.3984,6.5711,6.6312,0.0,0.0,0.0,0.0,0.0,0.0,0.0,6.7701,6.6575,6.6428,6.6247,6.5421,6.4671,6.3955,6.3465,0.0,0.0,5.8585,5.8089,5.8089,5.8023,5.8703,5.9383,5.9653,6.0297,6.0976,0.0,0.0,0.0,0.0,0.0,0.0,0.0,0.0,5.257,5.2637,0.0,5.2521,0.0,0.0,0.0,0.0,0.0,5.4018,0.0,0.0,5.6168,5.696,5.7102,5.7855,5.7893,5.7291,5.8829,5.9273,5.8467,5.7149,0.0,0.0,0.0,0.0,0.0,0.0,6.6713,6.9273,7.0916,7.2559,7.4201,7.3514,7.3093,7.2979,7.0572,6.8119,6.5685,6.3876,6.2194,6.0567,5.8196,0.0,0.0,0.0,0.0,0.0,0.0,0.0,0.0,0.0,0.0,0.0,0.0,0.0,0.0,0.0,0.0,0.0,0.0,0.0,0.0,5.1554,0.0,0.0,0.0,0.0,0.0,0.0,0.0,0.0,0.0,0.0,5.9804,6.0341,6.1618,6.3984,0.0,0.0,0.0,0.0,7.048,7.0517,7.1193,7.1381,7.063,7.0517,6.9954,6.8377,0.0,0.0,6.7187,6.648,6.5952,6.5835,6.5195,6.3539,6.0525,5.9958,5.9845,5.9845,6.0523,6.124,6.2032,6.2824,6.3653,5.6391,0.0,0.0,0.0,0.0,5.4903,5.5511,5.5974,5.582,5.616,5.6715,5.5314,0.0,0.0,0.0,0.0,0.0,0.0,5.6308,5.6346,5.7298,5.8051,5.8651,5.9515,6.0079,6.0417,6.0943,6.1129,6.1085,6.1234,6.0842,5.9931,0.0,0.0,0.0,0.0,6.7757,7.0839,7.2062,7.3437,7.508,7.4889,7.4507,7.3858,7.1374,6.9158,6.7279,6.5566,6.3676,6.1529,6.0176,0.0,0.0,0.0,0.0,0.0,0.0,0.0,0.0,0.0,0.0,0.0,0.0,0.0,0.0,0.0,0.0,0.0,0.0,0.0,5.1678,5.3243,5.3973,0.0,0.0,0.0,0.0,0.0,0.0,0.0,0.0,0.0,6.2975,6.3123,6.3721,0.0,0.0,6.7664,6.8715,6.9804,7.0705,7.1268,7.1569,0.0,0.0,7.1381,7.1193,7.0705,7.0668,7.0555,7.0373,6.9703,6.9139,6.9096,6.842,6.7293,6.5905,6.4101,6.3048,6.3011,6.3612,6.4214,6.4477,6.5191,6.6018,5.9999,5.7839,5.7156,5.6891,5.6929,5.746,5.7952,5.8343,5.8207,5.8287,5.84,5.7246,5.6572,5.6371,5.581,0.0,0.0,0.0,5.8086,5.8461,5.9289,5.9928,6.0416,6.1319,6.177,6.1958,6.2899,6.3314,6.3198,6.4369,6.4516,6.3744,0.0,0.0,6.5264,6.6739,6.8864,7.1603,7.2559,7.3781,7.5424,7.5501,7.5115,7.4236,7.2711,7.0954,6.9068,6.7692,6.5962,6.3866,6.2387,6.0968,0.0,0.0,0.0,0.0,0.0,0.0,0.0,0.0,0.0,0.0,0.0,4.9137,4.957,0.0,0.0,0.0,5.3034,5.365,5.4314,5.5299,0.0,0.0,0.0,0.0,0.0,0.0,0.0,6.0623,6.252,6.4106,6.4819,6.5677,6.6425,6.6913,6.7851,6.8903,7.0029,0.0,7.1757,7.2583,7.2958,7.3296,7.3634,7.3672,7.3559,7.3221,7.2883,7.2545,7.2207,7.1531,7.1006,7.0893,7.0555,7.0067,6.9579,6.8227,6.6838,6.5974,6.6162,6.665,6.7326,6.7889,6.849,6.3486,6.2652,6.1136,6.0378,6.0189,6.0189,6.0194,6.0203,6.0093,5.9605,5.882,5.8641,5.8192,5.7507,5.7401,0.0,5.8535,5.9177,5.9929,6.0717,6.1695,6.2109,6.2146,6.305,6.3087,6.2332,6.4672,6.5502,6.4972,6.6447,6.7241,6.739,6.6815,6.6125,6.5656,6.7926,6.9976,7.1756,7.2635,7.3896,7.5424,7.5501,7.5153,7.4418,7.4197,7.3012,7.0783,6.9781,6.8556,6.6834,6.4676,6.3386,6.3,0.0,0.0,0.0,0.0,0.0,0.0,0.0,0.0,0.0,0.0,0.0,0.0,0.0,0.0,0.0,5.5728,0.0,5.7377,5.7573,0.0,0.0,0.0,5.9014,5.8976,6.0416,6.1671,6.2289,0.0,0.0,6.5871,6.7931,6.9391,6.9504,6.9466,7.0029,7.1681,7.2507,7.3334,7.4235,7.4986,7.5737,7.6225,7.6338,7.6075,7.5436,7.4873,7.416,7.3446,7.2733,7.217,7.2245,7.2057,7.1944,7.1944,7.1681,7.1081,6.879,6.8377,6.879,7.0067,7.0442,7.0668,6.6367,6.6177,6.5798,6.4509,6.2728,6.2728,6.3107,6.3603,6.2927,6.2513,6.2251,6.1467,6.0943,6.0717,6.0642,6.0755,6.0943,6.113,6.1318,6.1581,6.2485,6.2899,6.2975,6.3879,6.4219,6.4106,6.52,6.5766,6.5766,6.6711,6.7241,6.7428,6.7844,6.803,6.8054,6.9306,7.0823,7.2673,7.3514,7.4431,7.5462,7.5501,7.5421,7.523,7.3934,7.2673,7.1483,7.0056,6.8548,6.696,6.6336,6.5164,6.3271,6.1595,0.0,0.0,0.0,0.0,0.0,0.0,0.0,0.0,0.0,5.2839,5.409,0.0,5.5962,0.0,5.7612,5.7977,5.746,5.9089,0.0,0.0,6.0643,6.1515,6.1553,6.2886,6.3913,6.3992,6.5914,6.7567,6.8269,6.9428,7.063,7.1832,7.1494,7.1719,7.3334,7.3747,7.4423,7.5737,7.6187,7.6413,7.6675,7.6638,7.66,7.6338,7.615,7.5962,7.5774,7.5587,7.5436,7.5399,7.4911,7.4347,7.3747,7.3108,7.2507,7.1832,7.1268,7.093,7.1381,7.1419,7.1681,6.83,6.7921,6.7958,6.7087,6.5798,6.5457,6.5571,6.595,6.5459,6.5008,6.4556,6.354,6.3012,6.3011,6.2934,6.312,6.3421,6.3458,6.3646,6.4021,6.4254,6.4369,6.4369,6.4936,6.5238,6.5275,6.6446,6.7051,6.7165,6.7997,6.8452,6.8527,6.936,6.9889,7.0033,7.0489,7.1662,7.3514,7.4736,7.5539,7.5997,7.6036,7.6036,7.5997,7.4431,7.3132,7.2291,7.0745,6.9276,6.8042,6.7266,6.626,6.4841,6.3269,6.1747,0.0,0.0,0.0,0.0,0.0,0.0,0.0,0.0,0.0,0.0,0.0,5.745,5.812,5.9178,5.9646,5.9089,6.0605,6.1515,6.106,6.2501,6.3524,6.3524,6.4967,6.5993,6.6219,6.7726,6.8997,6.9691,7.0818,7.2019,7.3334,7.3409,7.3672,7.4535,7.5023,7.5737,7.6976,7.7201,7.7351,7.7689,7.7727,7.7727,7.7689,7.7426,7.7164,7.7164,7.6863,7.66,7.6563,7.6225,7.5812,7.5399,7.4911,7.4535,7.4498,7.4235,7.3822,7.3446,7.3371,7.3596,6.9778,6.9096,6.9096,6.9096,6.902,6.8337,6.7845,6.7542,6.7428,6.6974,6.6106,6.5124,6.4783,6.4781,6.4665,6.4998,6.5674,6.5674,6.6087,6.6767,6.6214,6.5953,6.5992,6.6107,6.6144,6.622,6.7808,6.8527,6.8565,6.9437,6.9967,7.0081,7.0877,7.1445,7.1745,7.1707,7.2615,7.4354,7.5921,7.6647,7.657,7.6647,7.6647,7.6494,7.5004,7.3819,7.3017,7.1554,7.0317,6.9322,6.7927,6.7122,6.691,6.4709,6.3368,0.0,6.0966,0.0,0.0,0.0,0.0,0.0,0.0,0.0,0.0,5.7936,5.872,5.9337,6.0615,6.1424,6.125,6.2046,6.2614,6.2766,6.4092,6.5116,6.5267,6.6632,6.7808,6.8409,6.9162,6.9947,7.0831,7.2177,7.3417,7.4281,7.5183,7.5709,7.5774,7.63,7.7051,7.7915,7.814,7.8553,7.9229,7.9304,7.9229,7.9154,7.8553,7.8065,7.8027,7.7464,7.6976,7.6976,7.6901,7.6788,7.6863,7.6675,7.6563,7.6488,7.6413,7.6187,7.5624,7.5399,7.5812,7.1824,7.1673,7.1673,7.1673,7.1635,7.1483,7.027,6.8337,6.7655,6.7202,6.6976,6.6749,6.6558,6.6438,6.6438,6.6432,6.6537,6.6537,6.6612,6.6842,6.6736,6.6781,6.686,6.6938,6.7051,6.7202,6.8111,6.8565,6.8603,6.9475,7.0233,7.0877,7.1181,7.2015,7.3344,0.0,0.0,0.0,7.6227,7.6379,7.5768,7.6379,7.6379,7.573,7.4736,0.0,7.3017,7.2084,7.0891,6.9398,6.8977,0.0,0.0,0.0,0.0,0.0,0.0,0.0,0.0,0.0,0.0,0.0,6.1287,6.1134,5.9835,6.0942,6.1735,6.1831,6.2037,6.2159,6.2159,6.288,6.3676,6.4358,6.5305,6.6139,6.6859,6.7732,6.8564,6.9359,7.007,7.1124,7.2553,7.3608,7.4469,7.5313,7.663,7.7495,7.7389,7.7539,7.7952,7.8741,7.9379,8.0168,8.1031,8.0543,8.013,8.0017,7.9454,7.8928,7.8816,7.8741,7.859,7.8553,7.8102,7.7652,7.7652,7.7089,7.6713,7.6638,7.6675,7.66,7.6488,7.6413,7.645,7.3378,0.0,7.2999,7.2734,0.0,7.2393,7.1673,7.0422,6.9588,6.8944,6.8527,6.8412,6.8334,6.8213,6.809,6.8006,6.8002,6.8002,6.8002,6.7964,6.7717,6.765,6.769,6.7807,6.7884,6.796,6.8755,6.936,6.9777,7.0232,7.0915,7.1711,7.2282,7.3041,7.3877,7.4481,7.5007,7.5501,7.6303,7.6494,7.6112,7.6494,7.6494,7.6074,0.0,0.0,0.0,0.0,0.0,0.0,0.0,0.0,0.0,0.0,0.0,6.6598,6.5031,6.4114,6.4114,6.3732,6.3503,6.3503,6.4267,6.3855,6.1726,6.2216,6.2579,6.252,6.2762,6.3183,6.36,6.4358,6.5192,6.6063,6.6859,6.7542,6.8034,6.9058,6.9928,7.0342,7.1398,7.2604,7.3727,7.4595,7.5651,7.6731,7.7635,7.8304,7.8548,7.8527,7.8778,7.9604,8.043,8.1106,8.1444,8.1294,8.0806,8.043,8.0017,7.9604,7.9154,7.9116,7.9116,7.9079,7.8741,7.8478,7.844,7.814,7.7839,7.7839,7.7839,7.7839,7.7839,7.7539,7.7389,7.4478,7.3833,7.3833,7.3454,7.2848,7.281,7.2734,7.2545,0.0,0.0,0.0,7.0151,6.9995,6.9803,6.9557,6.9353,6.9203,6.9203,6.9203,6.9166,6.87,6.8596,6.8709,6.8866,6.9018,6.9246,6.9889,7.0571,7.1214,7.1293,7.1749,7.2622,7.3498,7.4028,7.4217,7.5201,7.5692,7.573,7.6494,7.6914,7.6914,7.6953,7.6876,7.6685,7.5233,7.4354,7.4201,7.2864,7.2062,7.1909,7.0457,6.9616,6.9616,6.8699,6.8126,6.8088,6.7362,6.6904,6.6904,6.6254,6.5834,6.5834,6.6483,6.5918,6.3612,6.348,6.346,6.3394,6.39,6.4585,6.5267,6.5912,6.667,6.7542,6.8337,6.8868,6.9096,7.0384,7.1331,7.1592,7.2803,7.401,7.4681,7.5701,7.6715,7.7961,7.8451,7.8783,7.9359,7.9402,7.9717,8.0731,8.1444,8.1857,8.2007,8.1895,8.1557,8.1069,8.0768,8.028,7.9604,7.9341,7.9266,7.9116,7.9116,7.9079,7.9079,7.9004,7.9116,7.9116,7.9116,7.9116,7.9041,7.859,7.8328,7.4857,7.4743,7.4743,7.4667,7.4553,7.4553,7.4136,7.3378,7.2583,7.2128,7.2052,7.1895,7.1395,7.0595,7.047,6.9966,6.9203,6.9203,6.9203,0.0,6.9219,6.9683,7.0445,7.0604,7.1102,7.1824,7.1976,7.209,7.2203,7.2203,7.262,7.3341,7.3764,7.4368,7.5274,7.6112,7.6532,7.6532,7.7373,7.7831,7.7831,7.7831,7.7449,7.6723,7.5806,7.4966,7.424,7.3972,7.3514,7.2826,7.1871,7.1336,7.1298,6.9884,6.9005,6.8967,6.8203,6.7706,6.7744,6.7591,6.7553,6.7553,6.7668,6.7223,6.6069,6.6569,6.692,6.6706,6.667,6.6897,6.7049,6.7162,6.7579,6.8375,6.9209,6.9967,7.0612,7.1597,7.2469,7.3111,7.4058,7.5005,7.5872,7.716,7.8106,7.8473,7.9033,7.9706,8.0225,8.0267,8.0843,8.2083,8.2571,8.2946,8.3322,8.3096,8.2608,8.2533,8.182,8.1144,8.0355,8.0205,7.998,7.9304,7.9304,7.9266,7.9229,7.9116,7.9266,7.9304,7.9304,7.9266,7.9304,7.9116,7.9041,7.6259,7.6259,7.6259,7.6259,7.6259,7.6259,7.5766,7.497,7.4553,7.3644,7.2431,7.2235,7.1927,7.1463,7.1336,7.1062,7.0555,7.0555,7.0592,7.0555,7.0729,7.1044,7.1467,7.1668,7.1975,7.2355,7.2393,7.262,7.3037,7.3037,7.3494,7.433,7.4562,7.5167,7.6112,7.6494,7.7144,7.8099,7.8022,7.8022,7.8022,7.8022,7.7602,7.6723,7.6303,7.5768,7.4927,7.4469,7.4049,7.3667,7.2864,7.2406,7.2367,7.168,7.1259,7.1221,7.0457,6.996,6.996,6.9502,6.9273,6.9273,6.9273,6.9055,6.851,6.7977,6.7642,6.7426,6.739,6.7579,6.7996,6.8489,6.9058,6.9854,7.0725,7.1408,7.1824,7.2545,7.3378,7.4212,7.5046,7.6032,7.732,7.8116,7.8836,7.9166,7.9879,8.0772,8.1887,8.192,8.2034,8.2683,8.3209,8.3622,8.3998,8.381,8.3359,8.2909,8.2496,8.1932,8.1256,8.1031,8.0881,8.0581,8.043,8.0468,8.043,8.0468,8.0468,8.0468,8.0468,8.0468,8.0468,8.0468,8.0318,7.7396,7.7396,7.7396,7.7396,7.7396,7.7396,7.7017,7.6411,7.6373,7.5311,7.3606,7.2992,7.2608,7.2335,7.2246,7.2003,7.1764,7.1719,7.1719,7.1726,7.1944,7.2105,7.2335,7.2579,7.2772,7.2962,7.2962,7.3303,7.3871,7.4061,7.4672,7.5512,7.5779,7.6233,7.6953,7.7182,7.7946,7.9169,7.8825,7.8557,7.8557,7.8404,7.7946,7.7335,7.7105,7.6609,7.5806,7.5119,7.4698,7.4469,7.3705,7.3246,7.3284,7.3093,7.2979,7.2941,7.2367,7.1985,7.1947,7.1374,7.0992,7.0992,7.0992,7.0925,7.0677,6.9576,6.8669,6.8337,6.8527,6.8868,6.9475,7.0043,7.0725,7.1332,7.2166,7.262,7.2734,7.3568,7.4402,7.516,7.6069,7.7207,7.823,7.8761,7.9253,8.0049,8.0908,8.2074,8.3162,8.3349,8.3301,8.3312,8.366,8.4035,8.411,8.4073,8.381,8.3171,8.3096,8.2721,8.2158,8.1857,8.1745,8.1557,8.1519,8.1444,8.1557,8.1557,8.1482,8.1444,8.1407,8.1482,8.1444,8.167,8.1557,7.7434,7.7396,7.7472,7.7396,7.7472,7.7434,7.7396,7.7282,7.7282,7.7169,7.6638,7.5187,7.4086,7.3363,7.315,7.2649,7.2009,7.1764,7.1801,7.1933,7.1987,7.2486,7.3329,7.3449,7.3909,7.4516,7.4591,7.4591,7.4819,7.5501,7.642,7.7379,7.7532,7.7607,7.7946,7.8634,7.913,7.9283,7.9933,8.0277,8.02,7.9551,7.913,7.9054,7.829,7.7449,7.6647,7.6494,7.6112,7.5386,7.4545,7.4087,7.4049,7.3437,7.3017,7.3055,7.2941,7.2864,7.2864,7.2788,7.2673,7.275,7.2673,7.2605,7.2429,7.2278,7.1787,7.1029,7.1408,7.1711,7.2014,7.2052,7.2128,7.2241,7.2999,7.3492,7.372,7.4895,7.5918,7.5956,7.732,7.8419,7.8685,7.9291,8.0087,8.0883,8.221,8.3188,8.3549,8.3974,8.4205,8.4092,8.4177,8.411,8.411,8.411,8.3998,8.3922,8.396,8.3547,8.2946,8.2683,8.2533,8.2195,8.182,8.1857,8.1782,8.1632,8.1707,8.197,8.1895,8.1707,8.1707,8.2233,8.2345,7.8874,7.8874,7.8874,7.8874,7.8874,7.8874,7.8571,7.8116,7.8116,7.7851,7.7358,7.6596,7.61,7.5636,7.5059,7.4557,7.4168,7.3596,7.337,7.3458,7.3544,7.3817,7.4161,7.4323,7.4591,7.4857,7.4895,7.516,7.569,7.6572,7.7262,7.7684,7.7837,7.8215,7.8748,7.913,7.9513,8.0009,8.0315,8.0506,8.0468,8.0162,7.978,7.9321,7.8939,7.8366,7.7526,7.6991,7.6532,7.6188,7.5386,7.4966,7.4966,7.466,7.4469,7.4431,7.3972,7.3514,7.3017,7.2979,7.2979,7.2979,7.2979,7.291,7.2771,7.3116,7.3155,7.2698,7.2469,7.2393,7.2431,7.281,7.3113,7.3227,7.3871,7.4553,7.5046,7.569,7.6411,7.7396,7.8154,7.8836,7.9329,8.0087,8.0921,8.1755,8.293,8.368,8.4164,8.4486,8.4541,8.4506,8.4656,8.4628,8.4313,8.411,8.4148,8.411,8.411,8.3847,8.3735,8.3585,8.3434,8.3059,8.2984,8.2984,8.3171,8.3096,8.3059,8.3021,8.3059,8.3059,8.3059,8.3322,8.3359,8.0087,7.9898,7.9898,7.9898,7.9898,7.9898,7.9556,7.8988,7.895,7.8647,7.8116,7.8078,7.8036,7.776,7.6776,7.6236,7.6073,7.5463,7.5199,7.5242,7.5329,7.5414,7.5452,7.5535,7.5577,7.5577,7.5615,7.6032,7.6831,7.7564,7.814,7.8369,7.8561,7.8978,7.9551,7.9627,7.9895,8.043,8.0506,8.0506,8.0506,8.0506,8.02,7.9704,7.9627,7.9207,7.8366,7.7755,7.7296,7.7067,7.6494,7.6074,7.5844,7.5806,7.573,7.5462,7.4889,7.4316,7.3705,7.3667,7.3667,7.3705,7.3667,7.3598,7.3533,7.3915,7.4106,7.3949,7.3416,7.3151,7.3151,7.3606,7.4023,7.4288,7.4895,7.5577,7.6297,7.66,7.7282,7.8382,7.8798,7.9291,8.0125,8.0921,8.1793,8.2627,8.3422,8.4105,8.4787,8.4959,8.5005,8.4907,8.5399,8.5395,8.4689,8.4786,8.4711,8.4673,8.4749,8.4523,8.4373,8.4298,8.4073,8.3622,8.3998,8.4035,8.3772,8.3922,8.4035,8.4073,8.4073,8.3998,8.3885,8.4073,8.4073,8.058,7.9936,7.9898,7.9898,7.9898,7.9898,7.986,7.9746,7.9784,7.9784,7.967,7.9708,7.9746,7.9556,7.7955,7.7149,7.7111,7.691,7.6835,7.6922,7.696,7.7122,7.7282,7.7282,7.7244,7.7055,7.7055,7.751,7.8344,7.8704,7.9282,8.0045,8.0125,8.0315,8.0391,8.0353,8.0468,8.0506,8.0506,8.0506,8.0506,8.0506,8.0468,8.0391,8.043,8.0009,7.9321,7.9169,7.8787,7.7946,7.7831,7.7449,7.6761,7.6647,7.6341,7.5692,7.5501,7.5462,7.5386,7.5386,7.5348,7.5348,7.5271,7.5239,7.4904,7.5057,7.5018,7.4857,7.4819,7.4819,7.4781,7.4781,7.5122,7.5728,7.5956,7.6449,7.7244,7.7889,7.8419,7.8761,7.9367,8.0087,8.0921,8.1793,8.2589,8.3385,8.4256,8.4863,8.5052,8.5489,8.5696,8.595,8.6216,8.6298,8.559,8.5575,8.6063,8.5988,8.5462,8.5237,8.4974,8.4711,8.4411,8.4148,8.411,8.411,8.411,8.411,8.4073,8.411,8.411,8.411,8.411,8.411,8.411,8.1452,8.0618,8.0087,7.9898,7.9898,7.9898,7.9898,7.9898,7.9898,7.9898,7.9898,7.9898,7.9898,7.986,7.921,7.8642,7.8111,7.7538,7.7273,7.7354,7.7354,7.7354,7.7396,7.7396,7.7396,7.7396,7.7396,7.7855,7.8736,7.9391,7.9931,8.0276,8.0431,8.0506,8.0506,8.0506,8.0506,8.0506,8.0506,8.0506,8.0506,8.0506,8.0506,8.0506,8.0506,8.0353,8.0086,7.9551,7.913,7.8825,7.829,7.787,7.7564,7.7526,7.7411,7.7144,7.7105,7.7105,7.7105,7.7105,7.6838,7.6341,7.6265,7.5964,7.5475,7.5666,7.5893,7.5807,7.6221,7.6486,7.6373,7.6032,7.5804,7.6107,7.66,7.7244,7.7965,7.8419,7.8798,7.9405,8.0163,8.0807,8.13,8.2285,8.3233,8.3612,8.437,8.5052,8.5583,8.5915,8.6208,8.6717,8.7261,8.765,8.7163,8.6605,8.6476,8.6438,8.6213,8.61,8.5913,8.5349,8.5011,8.4861,8.4673,8.4411,8.4486,8.4448,8.4411,8.4223,8.4223,8.426,8.411,8.411,8.411,8.2058,8.1452,8.0618,8.0277,8.0239,7.9973,7.9898,7.9898,7.9898,7.9898,7.9898,7.9898,7.9898,7.9898,7.9898,7.9594,7.8988,7.8457,7.823,7.8192,7.823,7.823,7.8192,7.8192,7.8192,7.8192,7.8192,7.8576,7.9157,7.9888,8.0235,8.0392,8.0468,8.0506,8.0506,8.0506,8.0506,8.0506,8.0506,8.0506,8.0506,8.0506,8.0659,8.0888,8.0926,8.0773,8.0506,7.9971,7.9665,7.9589,7.9092,7.8672,7.8443,7.8137,7.8022,7.8022,7.7984,7.8022,7.8022,7.8022,7.7717,7.7182,7.7105,7.6766,7.6161,7.6503,7.6652,7.6717,7.6979,7.7396,7.7358,7.7093,7.6903,7.6979,7.7434,7.8116,7.8874,7.9026,7.9443,8.0163,8.0694,8.1262,8.1906,8.2892,8.3612,8.3953,8.456,8.5204,8.5886,8.6417,8.6786,8.7533,8.8268,8.8583,8.839,8.8022,8.7711,8.7582,8.7039,8.6964,8.6739,8.6138,8.5725,8.5612,8.5349,8.5011,8.4861,8.4861,8.4749,8.4561,8.4561,8.4636,8.4411,8.411,8.4298,8.2437,8.2285,8.1452,8.111,8.0997,8.0428,8.0011,8.0087,8.0087,8.0125,8.0087,7.9973,7.9973,7.9898,7.9898,7.986,7.9784,7.9632,7.9632,7.9632,7.9708,7.9708,7.967,7.9632,7.9632,7.9675,7.9784,7.987,7.9958,8.0116,8.0275,8.0392,8.0583,8.0659,8.0544,8.0697,8.0659,8.0735,8.0773,8.0697,8.0544,8.0697,8.1079,8.1729,8.1805,8.1461,8.0697,8.0621,8.0621,8.0582,8.0506,8.0124,7.9321,7.8634,7.8137,7.8252,7.8137,7.8099,7.8137,7.8213,7.8252,7.7984,7.7984,7.7873,7.7455,7.7569,7.7642,7.7476,7.7548,7.7586,7.7737,7.8116,7.8419,7.8571,7.8533,7.895,7.9556,7.986,8.0201,8.0921,8.13,8.1869,8.3043,8.365,8.4067,8.4711,8.5014,8.5469,8.6341,8.7023,8.7705,8.8415,8.901,8.9251,8.9389,8.9438,8.9189,8.8914,8.822,8.7807,8.7565,8.7114,8.6664,8.6438,8.6138,8.58,8.5725,8.5725,8.5612,8.5462,8.5349,8.5162,8.5011,8.4861,8.4899,8.3233,8.3119,8.2323,8.1982,8.1982,8.1717,8.1603,8.1603,8.1603,8.13,8.0807,8.0731,8.0428,7.9973,7.9898,7.9898,7.9898,7.9898,7.9898,7.9898,7.9898,7.9898,7.9898,7.9898,7.9941,7.9988,7.9988,8.0072,8.0273,8.0351,8.0354,8.0583,8.1156,8.1385,8.1423,8.192,8.2225,8.2225,8.2225,8.2225,8.2225,8.2187,8.234,8.2569,8.2607,8.2455,8.2264,8.2225,8.2225,8.2187,8.169,8.1003,8.0277,7.9856,7.9742,7.9704,7.9742,7.9742,7.9704,7.9704,7.9436,7.9016,7.8901,7.8484,7.7912,7.8216,7.844,7.8348,7.8723,7.9102,7.9177,7.9291,7.9253,7.8685,7.914,7.9556,7.9936,8.0428,8.1073,8.1869,8.2475,8.3043,8.3536,8.3991,8.4749,8.5507,8.5697,8.6114,8.744,8.7895,8.8539,8.9297,8.9627,8.9729,8.9629,8.9578,8.9438,8.9265,8.8834,8.8463,8.8258,8.8033,8.7565,8.7264,8.6926,8.6776,8.6701,8.6626,8.6605,8.6363,8.6175,8.5988,8.58,8.5725,8.5687,8.4067,8.3991,8.3195,8.2816,8.2778,8.2551,8.2399,8.2399,8.2399,8.2096,8.1641,8.1565,8.13,8.0807,8.0504,8.0352,8.0315,8.0049,7.9898,7.9898,7.9898,7.9898,7.9898,7.9903,7.9946,8.0068,8.0376,8.0652,8.0849,8.1154,8.1385,8.1576,8.1996,8.2264,8.2264,8.2722,8.299,8.299,8.299,8.299,8.299,8.299,8.3181,8.3448,8.3525,8.3716,8.3945,8.4022,8.3678,8.3066,8.2493,8.1958,8.1461,8.1423,8.1423,8.1423,8.1423,8.1423,8.1385,8.1117,8.0812,8.0277,7.9933,7.9476,7.8864,7.9167,7.9277,7.922,7.9519,7.9898,7.9898,8.0201,8.0049,7.9594,7.9708,8.0049,8.0315,8.1073,8.1906,8.2664,8.3233,8.3688,8.4143,8.4484,8.5242,8.5886,8.6114,8.672,8.8047,8.8539,8.907,8.9525,8.9752,8.9741,8.9729,8.9642,8.9591,8.9489,8.9295,8.9076,8.8856,8.8651,8.8313,8.822,8.7995,8.8012,8.7937,8.7824,8.7749,8.7394,8.6981,8.6701,8.6476,8.6288,8.6288,8.4901,8.4825,8.3991,8.365,8.3574,8.2968,8.274,8.2627,8.2627,8.2627,8.2475,8.2437,8.2361,8.2172,8.1452,8.1148,8.1035,8.039,8.0087,8.0087,8.0087,8.0087,8.013,8.0216,8.0296,8.057,8.1144,8.157,8.1728,8.2338,8.295,8.2798,8.2913,8.3066,8.3142,8.3104,8.3333,8.341,8.3295,8.3372,8.3372,8.3295,8.3639,8.4442,8.448,8.4786,8.5322,8.5361,8.471,8.3372,8.3104,8.299,8.2951,8.299,8.2798,8.276,8.2951,8.2837,8.276,8.2187,8.1843,8.169,8.1117,8.0583,8.0426,8.0423,8.0418,8.0206,8.0239,8.0201,8.0352,8.0769,8.1073,8.1073,8.0656,8.0656,8.1186,8.202,8.2778,8.3422,8.3726,8.3953,8.4711,8.4939,8.5469,8.6076,8.6417,8.7364,8.8274,8.8956,8.9108,8.9411,8.9752,8.979,8.9741,8.9741,8.9692,8.9642,8.9489,8.9386,8.9227,8.906,8.8985,8.8931,8.8931,8.9023,8.9023,8.8722,8.8533,8.8179,8.7786,8.7431,8.7227,8.7189,8.7189,8.4901,8.4863,8.4673,8.456,8.4522,8.4294,8.4218,8.4256,8.4218,8.3802,8.3422,8.3271,8.2968,8.2399,8.221,8.2058,8.1831,8.1186,8.0769,8.0769,8.0769,8.0813,8.0937,8.098,8.133,8.2028,8.2297,8.2567,8.2645,8.2951,8.3065,8.3028,8.3677,8.3945,8.4021,8.448,8.4824,8.4862,8.4901,8.494,8.4901,8.4977,8.5167,8.5357,8.5396,8.5474,8.5667,8.559,8.5092,8.4098,8.3945,8.3639,8.3181,8.3104,8.3142,8.3142,8.3104,8.3028,8.3028,8.2837,8.2722,8.2684,8.2378,8.2263,8.2063,8.2022,8.1934,8.1805,8.1717,8.1679,8.1755,8.1906,8.202,8.202,8.1869,8.202,8.2664,8.3119,8.3612,8.437,8.4522,8.4711,8.4976,8.5507,8.6114,8.6909,8.7516,8.8122,8.8956,8.9335,8.9487,8.9563,8.979,8.979,8.979,8.979,8.979,8.9741,8.9692,8.9591,8.9438,8.9333,8.9295,8.9243,8.9205,8.9295,8.9333,8.922,8.9016,8.8775,8.8646,8.8367,8.8446,8.8428,8.8353,8.4901,8.4901,8.4901,8.4901,8.4901,8.4901,8.4901,8.4901,8.4901,8.4635,8.4218,8.4143,8.3877,8.346,8.3081,8.2892,8.2778,8.202,8.1641,8.1641,8.1641,8.1729,8.1816,8.1858,8.225,8.2871,8.3332,8.3486,8.3639,8.3868,8.4021,8.4174,8.4556,8.4785,8.4824,8.5206,8.5511,8.5473,8.5628,8.5705,8.5705,8.5779,8.5852,8.5852,8.5887,8.5852,8.5742,8.559,8.5282,8.49,8.4785,8.4556,8.4136,8.4059,8.4059,8.4059,8.4059,8.4098,8.3983,8.3792,8.3563,8.3448,8.3257,8.291,8.271,8.2707,8.2623,8.2368,8.2399,8.2399,8.2437,8.2664,8.3043,8.3385,8.346,8.3498,8.365,8.3877,8.4332,8.4825,8.5204,8.5393,8.5431,8.6151,8.6985,8.7705,8.8198,8.888,8.9525,8.9714,8.9828,8.9904,8.9904,8.9942,8.998,9.0017,9.0093,9.0093,9.012,8.9994,8.9818,8.9626,8.9423,8.9386,8.9475,8.9527,8.9475,8.9475,8.94,8.9272,8.9333,8.9265,8.9157,8.9102,8.9102,8.4901,8.4901,8.4901,8.4901,8.4901,8.4901,8.4901,8.4901,8.4901,8.4901,8.4825,8.4863,8.4749,8.4863,8.3991,8.3726,8.3688,8.2892,8.2589,8.2513,8.2558,8.264,8.296,8.2855,8.3094,8.3483,8.4097,8.4365,8.4518,8.5091,8.5397,8.5282,8.5358,8.5473,8.5397,8.5511,8.5511,8.5511,8.5628,8.5704,8.5742,8.5815,8.5923,8.5996,8.6192,8.631,8.6201,8.6049,8.5855,8.5817,8.5626,8.5397,8.5397,8.5435,8.5435,8.532,8.5244,8.5282,8.532,8.4709,8.4441,8.4327,8.3754,8.3179,8.3206,8.324,8.3155,8.3013,8.2664,8.2892,8.2968,8.3385,8.3915,8.4446,8.4749,8.4484,8.4105,8.4446,8.4939,8.5052,8.5735,8.6038,8.6417,8.6985,8.7781,8.816,8.8653,8.9222,8.9638,8.9752,8.9942,9.0169,9.0169,9.0093,9.0169,9.0283,9.0396,9.051,9.0624,9.0574,9.0373,9.0107,8.9678,8.9527,8.9591,8.9629,8.9629,8.9629,8.9667,8.9578,8.9438,8.9333,8.9227,8.9265,8.9211,8.4901,8.4901,8.4901,8.4901,8.4901,8.4901,8.4901,8.4901,8.4901,8.4901,8.4901,8.4901,8.4901,8.4901,8.4673,8.4635,8.4446,8.3726,8.3309,8.3309,8.3481,8.3986,8.4301,8.4001,8.4164,8.4706,8.5091,8.5244,8.532,8.5358,8.5511,8.5511,8.5511,8.5511,8.5511,8.5511,8.5511,8.5551,8.5667,8.5779,8.5815,8.5923,8.6026,8.6142,8.6614,8.7233,8.7695,8.7656,8.7536,8.7231,8.6352,8.5741,8.5702,8.5664,8.5702,8.5702,8.5626,8.5588,8.5511,8.5473,8.5244,8.5206,8.5053,8.4897,8.4729,8.4572,8.448,8.4378,8.437,8.4218,8.4181,8.4446,8.4749,8.4976,8.5052,8.4976,8.4711,8.4825,8.5204,8.5697,8.6038,8.6379,8.7061,8.7819,8.8388,8.8653,8.9032,8.9525,8.9714,8.9828,9.0169,9.051,9.0813,9.0851,9.1079,9.1155,9.1268,9.1268,9.1306,9.1458,9.1294,9.0752,9.0361,8.9982,8.9741,8.9855,9.0222,8.9994,9.0108,8.9869,8.9729,8.9867,8.9876,8.9688,8.971,8.4947,8.4901,8.4901,8.4901,8.4901,8.4901,8.4901,8.4901,8.4901,8.4901,8.4901,8.4901,8.4901,8.4901,8.4901,8.4901,8.4825,8.4484,8.4226,8.4271,8.436,8.4676,8.511,8.4961,8.5006,8.5511,8.5511,8.5511,8.5511,8.5511,8.5511,8.5511,8.5511,8.5511,8.5511,8.5511,8.5511,8.5551,8.5667,8.5742,8.5779,8.5887,8.6227,8.6614,8.7234,8.7887,8.8155,8.8152,8.8071,8.788,8.7231,8.6734,8.6696,8.6734,8.6696,8.6734,8.6734,8.6734,8.6734,8.6696,8.6543,8.6123,8.6123,8.5734,8.5376,8.5219,8.5089,8.4947,8.4863,8.4901,8.4939,8.5356,8.5431,8.5545,8.581,8.6038,8.6,8.5735,8.5583,8.6189,8.6881,8.7496,8.8142,8.8749,8.909,8.9356,8.9297,8.9752,8.998,9.0131,9.0586,9.0965,9.142,9.1723,9.1988,9.2178,9.2292,9.2254,9.2216,9.2443,9.2557,9.1875,9.1155,9.0889,9.0738,9.1003,9.1306,9.0965,9.0813,9.1067,9.1092,9.0839,9.075,9.0849,9.091,8.4999,8.4947,8.4947,8.4947,8.4947,8.4947,8.4947,8.4947,8.4947,8.4947,8.4901,8.4901,8.4901,8.4901,8.4901,8.4901,8.4909,8.4909,8.4803,8.4937,8.4942,8.5105,8.5308,8.5352,8.5355,8.5511,8.5511,8.5511,8.5511,8.5511,8.5511,8.5511,8.5511,8.5511,8.5511,8.5511,8.5511,8.5511,8.5628,8.5896,8.6011,8.6086,8.6544,8.7579,8.8079,8.8576,8.8805,8.8764,8.8606,8.8492,8.8492,8.8492,8.8415,8.8148,8.811,8.8033,8.788,8.7804,8.7766,8.788,8.7651,8.704,8.7001,8.6615,8.599,8.5828,8.5735,8.5561,8.5507,8.5507,8.5356,8.5886,8.6265,8.6417,8.6985,8.7326,8.7289,8.6796,8.672,8.6805,8.761,8.834,8.8918,8.9535,8.9754,9.002,8.9925,8.9942,9.0169,9.0548,9.1079,9.1761,9.2292,9.2822,9.3125,9.3201,9.3315,9.3239,9.3163,9.3315,9.3618,9.3239,9.2595,9.2064,9.1988,9.2102,9.2064,9.1799,9.1837,9.2254,9.209,9.166,9.1723,9.2101,9.1997,8.5176,8.5176,8.5176,8.5176,8.5132,8.5132,8.5132,8.5132,8.5044,8.4961,8.4961,8.4947,8.4901,8.4901,8.4901,8.4909,8.4999,8.4999,8.5089,8.5176,8.5224,8.5346,8.5388,8.5431,8.5471,8.5511,8.5511,8.5511,8.5511,8.5511,8.5511,8.5511,8.5511,8.5511,8.5588,8.555,8.5702,8.5855,8.5934,8.6203,8.6585,8.6968,8.758,8.8769,8.9113,8.9533,9.0028,9.0138,9.0173,9.0211,9.0211,9.0135,8.9791,8.8874,8.8377,8.8339,8.8339,8.8415,8.8377,8.8224,8.8071,8.7918,8.788,8.7801,8.7447,8.7242,8.6926,8.6905,8.6805,8.6909,8.6985,8.7061,8.7137,8.7251,8.7402,8.7592,8.763,8.7819,8.8094,8.8226,8.8691,8.9079,8.9589,8.9931,9.0045,9.0189,9.021,9.0418,9.0711,9.1204,9.1761,9.2519,9.3315,9.3846,9.4338,9.4338,9.4338,9.4225,9.4149,9.4149,9.4376,9.449,9.4149,9.3277,9.2746,9.2595,9.2519,9.2557,9.2633,9.2898,9.2633,9.2405,9.2658,9.2872,9.2696,8.5262,8.5219,8.5219,8.5219,8.5219,8.5219,8.5219,8.5181,8.5176,8.5132,8.5132,8.5089,8.5044,8.5044,8.5044,8.5089,8.5132,8.5094,8.5219,8.5304,8.5346,8.5429,8.5469,8.5471,8.5511,8.5511,8.5511,8.555,8.5511,8.5511,8.5588,8.5511,8.5511,8.5702,8.6084,8.6237,8.6428,8.6658,8.6889,8.7081,8.754,8.7886,8.8805,8.9225,8.9875,9.0256,9.0482,9.0635,9.0593,9.0593,9.0593,9.0631,9.0364,8.9944,8.937,8.9332,8.9332,8.937,8.937,8.937,8.9256,8.8797,8.8721,8.845,8.8061,8.7743,8.7769,8.7597,8.7459,8.7402,8.7326,8.7781,8.8009,8.8084,8.8312,8.8539,8.8691,8.9042,8.9213,8.9429,8.9543,8.9786,9.0067,9.0257,9.0295,9.0357,9.0494,9.0856,9.1291,9.1887,9.2569,9.3125,9.3846,9.4225,9.4679,9.4717,9.4793,9.4793,9.4793,9.4793,9.4755,9.4755,9.4566,9.4035,9.3618,9.3277,9.3618,9.3808,9.3656,9.3504,9.358,9.3618,9.3618,9.3618,9.3391,8.5388,8.5262,8.5224,8.5266,8.5262,8.5266,8.5266,8.5224,8.5262,8.5262,8.5262,8.5219,8.5176,8.5219,8.5219,8.5219,8.5262,8.5262,8.5304,8.5388,8.5429,8.5431,8.5471,8.555,8.5626,8.5932,8.5893,8.5741,8.5893,8.5893,8.5893,8.6199,8.6123,8.6314,8.6963,8.7078,8.7575,8.7842,8.811,8.811,8.8492,8.9103,8.9561,8.96,9.0249,9.0555,9.0593,9.0593,9.0631,9.0631,9.0631,9.0631,9.0631,9.0631,9.0593,9.0631,9.0631,9.0631,9.0555,9.0478,9.0096,8.9638,8.9561,8.9176,8.8786,8.8667,8.8428,8.8098,8.8074,8.8094,8.8246,8.8501,8.8805,8.8956,8.9335,8.9752,8.9649,8.9783,8.9839,9.0007,9.0205,9.0333,9.0498,9.0541,9.0498,9.0911,9.1088,9.171,9.2185,9.2808,9.3416,9.3821,9.4262,9.4528,9.4755,9.4755,9.4793,9.4793,9.4793,9.4793,9.4793,9.4755,9.4566,9.4452,9.449,9.4262,9.4679,9.4793,9.4414,9.4262,9.4642,9.4642,9.4338,9.4262,9.4225,8.5471,8.5471,8.5471,8.5471,8.5471,8.5471,8.5471,8.5431,8.5388,8.5388,8.5346,8.5262,8.5219,8.5219,8.5219,8.5262,8.5346,8.5388,8.5467,8.5624,8.5624,8.5662,8.5626,8.5511,8.6161,8.6543,8.6658,8.6658,8.6734,8.6734,8.7001,8.746,8.7498,8.7842,8.788,8.7918,8.7995,8.8148,8.8186,8.853,8.9179,8.9944,9.0287,9.0402,9.0517,9.0631,9.0631,9.0631,9.0631,9.0631,9.0631,9.0631,9.0631,9.0631,9.0631,9.0631,9.0631,9.0631,9.0631,9.0593,9.0593,9.0326,9.0326,9.0364,9.0016,8.9855,8.9768,8.9901,8.9649,8.9488,8.9365,8.9583,8.9687,8.9649,8.9725,8.9887,8.9935,9.0067,9.0205,9.0562,9.0683,9.0732,9.0856,9.078,9.0818,9.1228,9.175,9.2413,9.3041,9.359,9.3985,9.4351,9.4452,9.4679,9.4793,9.4793,9.4793,9.4793,9.4793,9.4793,9.4793,9.4793,9.4793,9.4717,9.4793,9.4793,9.4793,9.4793,9.4793,9.4793,9.4793,9.4793,9.4755,9.4793,9.4793,8.5511,8.5511,8.5511,8.5511,8.5511,8.5511,8.5511,8.5511,8.5471,8.5431,8.5469,8.5391,8.5349,8.5349,8.5349,8.5391,8.5431,8.5469,8.5815,8.6199,8.6275,8.6467,8.6925,8.7001,8.7269,8.7384,8.7613,8.7918,8.7918,8.7766,8.7804,8.8071,8.8186,8.8301,8.8721,8.8759,8.9103,8.9409,8.96,8.9714,9.0058,9.0402,9.0631,9.0631,9.0631,9.0631,9.0631,9.0631,9.0631,9.0631,9.0631,9.0631,9.0631,9.0631,9.0631,9.0631,9.0631,9.0631,9.0631,9.0631,9.0631,9.0631,9.0631,9.0555,9.0551,9.0508,9.0383,9.0301,9.0205,9.0159,9.0075,9.0067,9.0067,9.002,9.002,9.0067,9.0113,9.0243,9.0409,9.0803,9.119,9.1467,9.1625,9.1663,9.1811,9.2308,9.2793,9.3351,9.3821,9.4258,9.449,9.4642,9.4717,9.4755,9.4793,9.4793,9.4793,9.4793,9.4793,9.4793,9.4793,9.4793,9.4793,9.4793,9.4793,9.4793,9.4793,9.4793,9.4793,9.4793,9.4793,9.4793,9.4793,9.4793,9.4793,8.5511,8.5511,8.5511,8.5511,8.5511,8.5511,8.5511,8.5511,8.5511,8.5511,8.5511,8.5511,8.5511,8.5511,8.555,8.5624,8.5855,8.5817,8.639,8.6887,8.7192,8.746,8.7727,8.7995,8.811,8.8415,8.8377,8.8797,8.9179,8.9141,8.8835,8.8721,8.8988,8.9141,8.9485,8.9676,8.9905,9.0326,9.0402,9.0478,9.0555,9.0555,9.0631,9.0631,9.0631,9.0631,9.0631,9.0631,9.0631,9.0631,9.0631,9.0631,9.0631,9.0631,9.0784,9.0899,9.1052,9.1204,9.1128,9.1052,9.0708,9.0631,9.0631,9.0631,9.0593,9.0508,9.0465,9.0427,9.034,9.025,9.025,9.0205,9.0159,9.0159,9.0159,9.0205,9.0327,9.06,9.0917,9.1348,9.1888,9.2613,9.2733,9.2656,9.2924,9.3382,9.3829,9.4281,9.4524,9.4801,9.4768,9.4844,9.4793,9.4793,9.4793,9.4793,9.4793,9.4831,9.4831,9.4831,9.4869,9.4831,9.4793,9.4793,9.4907,9.4793,9.4793,9.4793,9.4793,9.4793,9.4793,9.4793,9.4793,9.4793,9.4793,8.5511,8.5511,8.5511,8.5511,8.5511,8.5511,8.5511,8.5511,8.5511,8.5511,8.5511,8.5511,8.5511,8.5588,8.5741,8.6084,8.6696,8.6696,8.7269,8.7766,8.8033,8.8148,8.8415,8.853,8.8644,8.9141,8.9218,8.9714,9.0249,9.0173,9.0211,9.0402,9.002,9.0287,9.0402,9.0326,9.0364,9.0631,9.0631,9.0631,9.0631,9.0631,9.0631,9.0631,9.0631,9.0631,9.0631,9.0631,9.0746,9.0746,9.0784,9.0937,9.1052,9.1013,9.1281,9.1625,9.1739,9.2007,9.216,9.1586,9.0784,9.0669,9.0631,9.0631,9.0593,9.0593,9.0551,9.0551,9.0465,9.0383,9.034,9.0295,9.0295,9.0295,9.0333,9.053,9.0721,9.1222,9.1495,9.1849,9.2542,9.3344,9.3917,9.3841,9.3841,9.4299,9.4332,9.4745,9.4829,9.498,9.492,9.4844,9.4793,9.4793,9.4793,9.4793,9.4793,9.4907,9.5021,9.4983,9.4983,9.4945,9.5362,9.5286,9.5475,9.5134,9.4869,9.5058,9.5134,9.4869,9.4793,9.4793,9.4793,9.4793,9.4793,8.5628,8.5704,8.5628,8.5551,8.5511,8.5511,8.5511,8.5511,8.5511,8.5511,8.555,8.555,8.5817,8.6199,8.6352,8.6772,8.7498,8.7613,8.8148,8.8606,8.8874,8.9141,8.937,8.96,8.9867,9.002,9.0096,9.0173,9.0517,9.0593,9.0631,9.0593,9.0669,9.0593,9.0593,9.0669,9.0669,9.0669,9.0669,9.0631,9.0631,9.0631,9.0631,9.0631,9.0631,9.0631,9.0631,9.0631,9.0899,9.1204,9.1319,9.1586,9.1892,9.1969,9.2198,9.2542,9.258,9.2847,9.3038,9.2465,9.1969,9.1281,9.0937,9.0631,9.0631,9.0631,9.0631,9.0551,9.0551,9.0508,9.0508,9.0465,9.0465,9.0427,9.0541,9.077,9.1195,9.1692,9.2379,9.2886,9.3497,9.4223,9.4681,9.5064,9.5064,9.514,9.5178,9.5127,9.5134,9.5143,9.4996,9.4895,9.4844,9.4793,9.4793,9.4793,9.4793,9.5021,9.5248,9.5437,9.5665,9.6271,9.6537,9.6347,9.612,9.6006,9.5854,9.5665,9.54,9.4983,9.4831,9.4793,9.4793,9.4793,9.4945,8.5742,8.5815,8.5742,8.5705,8.5551,8.5511,8.5511,8.5511,8.5511,8.5702,8.5932,8.6161,8.6581,8.7078,8.7231,8.7651,8.8262,8.853,8.8988,8.9409,8.9791,9.0096,9.044,9.0555,9.0402,9.0631,9.0631,9.0593,9.0593,9.0593,9.0822,9.0937,9.0937,9.0899,9.0669,9.0861,9.0937,9.0975,9.1243,9.1319,9.1395,9.1434,9.1472,9.1472,9.151,9.151,9.1548,9.1625,9.1778,9.2045,9.2274,9.2504,9.2847,9.3153,9.3268,9.3382,9.3497,9.3573,9.3726,9.3229,9.2733,9.1778,9.1357,9.0937,9.0669,9.0631,9.0631,9.0631,9.0631,9.0631,9.0631,9.0551,9.0551,9.0551,9.1009,9.1276,9.1811,9.2346,9.3186,9.3955,9.4529,9.4949,9.5064,9.5407,9.5407,9.5407,9.5407,9.5318,9.5257,9.5191,9.5094,9.4946,9.4844,9.4844,9.4793,9.5134,9.5475,9.5627,9.5892,9.6309,9.665,9.7219,9.737,9.6954,9.6802,9.6916,9.6764,9.6499,9.5779,9.4983,9.4945,9.4983,9.4945,9.5021,9.5286,8.5815,8.5777,8.5815,8.5779,8.5667,8.5551,8.5511,8.555,8.5626,8.6046,8.6849,8.7498,8.7918,8.8033,8.8033,8.853,8.9141,8.9332,8.9676,9.0249,9.0326,9.0517,9.0593,9.0631,9.0631,9.0631,9.0631,9.0631,9.0746,9.0822,9.1128,9.1625,9.1739,9.1548,9.0822,9.1395,9.1739,9.1892,9.2542,9.2733,9.2733,9.2695,9.2656,9.2656,9.2618,9.2542,9.2542,9.2542,9.2733,9.3,9.3077,9.3229,9.3459,9.3459,9.3726,9.4299,9.4338,9.472,9.5293,9.3955,9.3038,9.2312,9.2045,9.1548,9.0899,9.0669,9.0669,9.0669,9.0631,9.0631,9.0631,9.0631,9.0631,9.0899,9.1357,9.1969,9.2504,9.3038,9.3879,9.4567,9.514,9.556,9.556,9.5598,9.556,9.556,9.5598,9.5509,9.5417,9.5277,9.5143,9.5148,9.5034,9.5172,9.5324,9.5816,9.6158,9.6271,9.6612,9.7105,9.7408,9.7749,9.7749,9.7484,9.7636,9.7863,9.7598,9.7257,9.6461,9.5741,9.5324,9.5248,9.521,9.54,9.5816,8.6126,8.6197,8.6126,8.6026,8.5958,8.5741,8.5667,8.5705,8.6162,8.6849,8.7575,8.8033,8.8453,8.8721,8.895,8.9332,9.002,9.0173,9.0517,9.0555,9.0631,9.0593,9.0631,9.0669,9.0669,9.0631,9.0631,9.1052,9.1434,9.1395,9.1892,9.2465,9.2733,9.2542,9.2389,9.258,9.2656,9.2695,9.2962,9.3077,9.3153,9.3191,9.3191,9.3229,9.3229,9.3268,9.3306,9.3344,9.3535,9.3879,9.3955,9.4146,9.449,9.4605,9.4796,9.514,9.5178,9.5293,9.5522,9.4872,9.4414,9.365,9.2924,9.2312,9.1548,9.1395,9.1128,9.0822,9.0861,9.0822,9.0631,9.0631,9.0784,9.1319,9.1892,9.2656,9.3268,9.3803,9.449,9.5025,9.556,9.5598,9.5598,9.5598,9.5598,9.5713,9.5751,9.5592,9.5417,9.5324,9.5181,9.5262,9.5351,9.5603,9.5892,9.6499,9.6878,9.6991,9.7484,9.8053,9.8318,9.8432,9.8659,9.8697,9.8773,9.8811,9.8394,9.7901,9.7257,9.665,9.6499,9.6271,9.6233,9.6461,9.6764,8.6323,8.6384,8.6285,8.6223,8.6197,8.5958,8.5969,8.6355,8.7274,8.8076,8.8573,8.8838,8.9259,8.9638,8.9829,8.9944,9.0593,9.0593,9.0593,9.0631,9.0631,9.0631,9.0669,9.0899,9.109,9.109,9.1395,9.1854,9.2236,9.2274,9.2771,9.3421,9.3803,9.3994,9.3917,9.3803,9.3573,9.365,9.3879,9.4146,9.4146,9.4108,9.407,9.407,9.407,9.407,9.3994,9.407,9.4185,9.4643,9.4872,9.5025,9.5446,9.5598,9.5598,9.5598,9.5598,9.5598,9.556,9.556,9.5102,9.4758,9.4032,9.3191,9.2465,9.2274,9.2045,9.1739,9.1434,9.1434,9.1434,9.1395,9.1586,9.216,9.2733,9.3497,9.3917,9.4452,9.4872,9.5446,9.5598,9.5598,9.5598,9.5598,9.5598,9.5751,9.5866,9.5745,9.5654,9.5676,9.5648,9.5767,9.6047,9.6361,9.6764,9.7295,9.7598,9.7749,9.8242,9.8849,9.9076,9.919,9.9569,9.9796,9.9531,9.9266,9.9038,9.8621,9.8242,9.8129,9.8204,9.7901,9.7484,9.7522,9.7712,8.6423,8.6384,8.6384,8.6384,8.6354,8.6286,8.6614,8.7348,8.8845,8.9535,8.9571,9.026,9.0449,9.052,9.0555,9.0555,9.0593,9.0593,9.0708,9.0746,9.0861,9.0822,9.1128,9.1548,9.1778,9.2121,9.2427,9.2695,9.3077,9.3382,9.3841,9.4376,9.4911,9.5064,9.4987,9.472,9.4452,9.4567,9.4796,9.5025,9.5064,9.5255,9.514,9.514,9.514,9.5178,9.5178,9.5255,9.5331,9.5484,9.5522,9.556,9.5598,9.5598,9.5598,9.5598,9.5598,9.5598,9.5598,9.5598,9.5598,9.5293,9.4834,9.4032,9.3459,9.3115,9.2886,9.2733,9.2542,9.2771,9.2886,9.2847,9.2809,9.3306,9.3726,9.4185,9.4529,9.4911,9.5331,9.5598,9.5598,9.5598,9.5598,9.5598,9.5751,9.6095,9.6286,9.6477,9.6425,9.6646,9.662,9.6589,9.6945,9.7375,9.7727,9.8129,9.8432,9.8621,9.9,9.9493,9.972,9.972,9.9758,9.9796,9.9796,9.9645,9.9417,9.9455,9.9531,9.9455,9.919,9.8924,9.8318,9.8432,9.8621,8.6636,8.661,8.6556,8.6528,8.6636,8.7596,8.8469,8.914,8.9645,8.9956,9.0532,9.0762,9.0837,9.0798,9.0758,9.0679,9.0676,9.0711,9.1052,9.1243,9.1514,9.1854,9.2236,9.2542,9.2733,9.2809,9.3077,9.3573,9.407,9.4452,9.4796,9.5293,9.5446,9.5598,9.5522,9.5331,9.5216,9.5216,9.5484,9.556,9.5598,9.5598,9.5598,9.5598,9.5598,9.5598,9.5598,9.5675,9.5675,9.5675,9.5637,9.5598,9.5598,9.5598,9.5598,9.5598,9.5598,9.5598,9.5598,9.5598,9.5598,9.5598,9.5331,9.4872,9.4299,9.3955,9.3764,9.365,9.3497,9.3573,9.3573,9.3573,9.3726,9.4108,9.4452,9.4681,9.4987,9.5255,9.5598,9.5598,9.5598,9.5598,9.5598,9.5789,9.5981,9.6401,9.6783,9.705,9.728,9.7494,9.7553,9.7524,9.792,9.839,9.8576,9.8849,9.919,9.9531,9.972,9.9796,9.9796,9.9758,9.9796,9.9796,9.9796,9.9796,9.9758,9.9796,9.9796,9.9796,9.9569,9.9417,9.9303,9.9266,9.9266,8.6737,8.6713,8.6662,8.6958,8.7754,8.8934,8.9926,9.0493,9.0471,9.0713,9.1064,9.1066,9.0953,9.0915,9.0877,9.0951,9.1334,9.137,9.1715,9.2327,9.2401,9.271,9.3128,9.3506,9.3659,9.3693,9.3999,9.449,9.4911,9.5216,9.556,9.556,9.5598,9.5598,9.5598,9.556,9.556,9.556,9.5598,9.5598,9.5598,9.5598,9.5598,9.5598,9.5598,9.5598,9.5713,9.5828,9.6095,9.6095,9.6095,9.6095,9.6019,9.5866,9.5637,9.5598,9.5598,9.5598,9.5598,9.5598,9.5598,9.5637,9.5675,9.5331,9.5102,9.4834,9.4605,9.4414,9.4261,9.4146,9.4146,9.4146,9.449,9.4834,9.4987,9.5102,9.5331,9.5522,9.5598,9.5598,9.5598,9.5598,9.5713,9.5904,9.6248,9.6821,9.7547,9.8235,9.8388,9.8456,9.8478,9.8421,9.8933,9.9442,9.9516,9.9433,9.9585,9.9736,9.972,9.9796,9.9796,9.9834,9.9872,9.9834,9.9796,9.9834,9.9948,9.9834,9.9796,9.9796,9.9796,9.9645,9.9569,9.9607,9.9645,8.6785,8.6737,8.679,8.7707,8.9163,8.9975,9.0769,9.1561,9.1392,9.1368,9.1308,9.1245,9.1136,9.11,9.1183,9.1567,9.1989,9.2181,9.2718,9.3485,9.3484,9.3676,9.4019,9.4247,9.4551,9.4892,9.5074,9.5222,9.5446,9.5598,9.5598,9.5598,9.5598,9.5598,9.5598,9.5598,9.5598,9.5598,9.5598,9.5598,9.5598,9.5598,9.5598,9.5598,9.5637,9.5675,9.5904,9.6363,9.6936,9.6936,9.6859,9.6821,9.6363,9.6019,9.5713,9.5751,9.5789,9.5904,9.6019,9.6133,9.6095,9.6019,9.5828,9.6019,9.6057,9.5484,9.514,9.5102,9.4949,9.4911,9.4911,9.4911,9.514,9.5255,9.5331,9.5407,9.5484,9.5789,9.6057,9.6057,9.6057,9.6095,9.6439,9.6706,9.7019,9.7477,9.8089,9.9006,9.9427,9.9465,9.9373,9.9231,9.9553,9.9961,9.9885,9.982,9.9843,9.9904,9.985,9.9904,9.9957,9.9942,10.0002,10.0154,10.0305,10.0099,10.0099,9.9986,9.9872,9.9796,9.9796,9.9796,9.9796,9.9796,9.9796,8.6877,8.6932,8.7459,8.8313,8.924,9.0052,9.0903,9.1649,9.162,9.1531,9.1368,9.1374,9.1341,9.1308,9.1895,9.2287,9.2556,9.3213,9.3828,9.4329,9.4522,9.4753,9.5214,9.5288,9.5517,9.5588,9.5738,9.5686,9.5643,9.5643,9.5598,9.5598,9.5643,9.5643,9.5643,9.5598,9.5643,9.5643,9.5643,9.5643,9.5643,9.5598,9.5598,9.5637,9.5675,9.6095,9.6401,9.6783,9.7318,9.7623,9.7127,9.663,9.5942,9.5751,9.5637,9.5713,9.6286,9.6515,9.6706,9.6936,9.7165,9.7318,9.7356,9.7471,9.7165,9.6172,9.5675,9.5675,9.5598,9.5598,9.5598,9.5598,9.5598,9.5598,9.5637,9.5637,9.5637,9.6057,9.6477,9.6592,9.6592,9.6821,9.7165,9.7516,9.7821,9.8325,9.8943,9.9638,10.0174,10.0365,10.0153,10.0013,10.0032,10.0239,10.0177,10.0126,10.0113,10.0113,10.0024,10.0075,10.0113,10.0594,10.0997,10.0944,10.0982,10.0814,10.0533,10.0099,9.9986,9.9872,9.9796,9.9796,9.9796,9.9796,9.9796,8.692,8.7032,8.8079,8.8778,8.9371,9.0467,9.1251,9.1638,9.1716,9.162,9.1561,9.15,9.15,9.1585,9.2293,9.2955,9.3263,9.4078,9.4853,9.5396,9.5553,9.5822,9.6095,9.6098,9.5982,9.602,9.5859,9.5814,9.5691,9.5734,9.5734,9.5691,9.5691,9.5729,9.5686,9.5686,9.5686,9.5724,9.5724,9.5768,9.5768,9.5768,9.6035,9.6112,9.6418,9.6757,9.7363,9.7745,9.8235,9.8349,9.7891,9.7127,9.6554,9.6286,9.6439,9.6783,9.7165,9.7432,9.7585,9.7853,9.8197,9.8235,9.8158,9.7929,9.7891,9.7012,9.663,9.6554,9.5751,9.5637,9.5598,9.5598,9.5598,9.5598,9.5675,9.5751,9.6057,9.6515,9.7057,9.7522,9.7566,9.7642,9.8069,9.8533,9.8801,9.9069,9.9726,10.0147,10.0689,10.0962,10.0787,10.065,10.0557,10.0462,10.0315,10.0265,10.0265,10.0265,10.0342,10.0558,10.0862,10.1585,10.2029,10.1976,10.181,10.1567,10.121,10.0739,10.0099,9.991,9.9834,9.9796,9.9796,9.9796,9.9796,8.7039,8.7265,8.8607,8.9269,8.9591,9.1008,9.1677,9.1716,9.1716,9.1716,9.1687,9.1629,9.1629,9.187,9.2543,9.3283,9.4094,9.502,9.5869,9.6255,9.6415,9.6382,9.6348,9.632,9.6248,9.6136,9.602,9.5941,9.5859,9.5859,9.5859,9.5862,9.59,9.5859,9.5814,9.5814,9.5814,9.5891,9.5968,9.6089,9.6089,9.6048,9.6469,9.6891,9.7274,9.7691,9.8413,9.8982,9.935,9.9045,9.8471,9.763,9.7127,9.6898,9.7356,9.77,9.8082,9.8235,9.8349,9.8579,9.8617,9.8541,9.8388,9.8388,9.8426,9.8158,9.7776,9.728,9.6477,9.5866,9.5866,9.5675,9.5675,9.5751,9.5866,9.6216,9.6713,9.721,9.7828,9.8452,9.8533,9.8576,9.9041,9.9543,9.9696,9.9965,10.0314,10.0736,10.1043,10.1085,10.1004,10.0831,10.0696,10.0604,10.0462,10.049,10.0528,10.0833,10.0936,10.1153,10.156,10.2499,10.3033,10.2969,10.2803,10.2599,10.2091,10.1491,10.0868,10.0192,9.9872,9.9834,9.9796,9.9796,9.9796,8.7389,8.8024,8.8972,8.9678,9.0353,9.1333,9.1732,9.1716,9.1716,9.1716,9.1716,9.1716,9.1687,9.1765,9.3311,9.4055,9.4257,9.5563,9.6336,9.6723,9.6661,9.6661,9.6597,9.6459,9.6355,9.6248,9.6174,9.6059,9.6021,9.5942,9.5902,9.5902,9.5941,9.59,9.59,9.59,9.5938,9.6054,9.6595,9.6943,9.7097,9.7057,9.6974,9.7396,9.7894,9.8581,9.927,9.9539,9.9611,9.9381,9.8834,9.7987,9.7719,9.7713,9.8089,9.8548,9.893,9.9075,9.9228,9.9534,9.961,9.9725,9.9725,9.9763,9.9649,9.9305,9.8961,9.8693,9.7853,9.6936,9.663,9.6095,9.5942,9.6133,9.6286,9.7101,9.7751,9.8408,9.9069,9.9343,9.9466,9.9815,10.0317,10.0432,10.0205,10.0515,10.0864,10.121,10.1248,10.1248,10.117,10.1046,10.0875,10.0742,10.0604,10.0748,10.0815,10.1197,10.1693,10.214,10.2751,10.3525,10.3907,10.396,10.3909,10.3744,10.3108,10.2319,10.1582,10.0868,10.0154,9.9834,9.9834,9.9834,9.991]},{"header":{"parameterUnit":"m.s-1","parameterCategory":1,"la1":31.0,"la2":29.5877,"lo1":-88.7671,"lo2":-86.6584,"dy":0.0162,"dx":0.0185,"nx":115,"ny":88,"refTime":"2024-03-26T06:00:00:Z","depth":0,"parameterNumber":3,"parameterNumberName":"V-component_of_WINDS"},"data":[0.0,0.0,0.0,0.0,0.0,0.0,0.0,0.0,0.0,0.0,0.0,0.0,0.0,0.0,0.0,0.0,0.0,0.0,0.0,0.0,0.0,0.0,0.0,0.0,0.0,0.0,0.0,0.0,0.0,0.0,0.0,0.0,0.0,0.0,0.0,0.0,0.0,0.0,0.0,0.0,0.0,0.0,0.0,0.0,0.0,0.0,0.0,0.0,0.0,0.0,0.0,0.0,0.0,0.0,0.0,0.0,0.0,0.0,0.0,0.0,0.0,0.0,0.0,0.0,0.0,0.0,0.0,0.0,0.0,0.0,0.0,0.0,0.0,0.0,0.0,0.0,0.0,0.0,0.0,0.0,0.0,0.0,0.0,0.0,0.0,0.0,0.0,0.0,0.0,0.0,0.0,0.0,0.0,0.0,0.0,0.0,0.0,0.0,0.0,0.0,0.0,0.0,0.0,0.0,0.0,0.0,0.0,0.0,0.0,0.0,0.0,0.0,0.0,0.0,0.0,0.0,0.0,0.0,0.0,0.0,0.0,0.0,0.0,0.0,0.0,0.0,0.0,0.0,0.0,0.0,0.0,0.0,0.0,0.0,0.0,0.0,0.0,0.0,0.0,0.0,0.0,0.0,0.0,0.0,0.0,0.0,0.0,0.0,0.0,0.0,0.0,0.0,0.0,0.0,0.0,0.0,0.0,0.0,0.0,0.0,0.0,0.0,0.0,0.0,0.0,0.0,0.0,0.0,0.0,0.0,0.0,0.0,0.0,0.0,0.0,0.0,0.0,0.0,0.0,0.0,0.0,0.0,0.0,0.0,0.0,0.0,0.0,0.0,0.0,0.0,0.0,0.0,0.0,0.0,0.0,0.0,0.0,0.0,0.0,0.0,0.0,0.0,0.0,0.0,0.0,0.0,0.0,0.0,0.0,0.0,0.0,0.0,0.0,0.0,0.0,0.0,0.0,0.0,0.0,0.0,0.0,0.0,0.0,0.0,0.0,0.0,0.0,0.0,0.0,0.0,0.0,0.0,0.0,0.0,0.0,0.0,0.0,0.0,0.0,0.0,0.0,0.0,0.0,0.0,0.0,0.0,0.0,0.0,0.0,0.0,0.0,0.0,0.0,0.0,0.0,0.0,0.0,0.0,0.0,0.0,0.0,0.0,0.0,0.0,0.0,0.0,0.0,0.0,0.0,0.0,0.0,0.0,0.0,0.0,0.0,0.0,0.0,0.0,0.0,0.0,0.0,0.0,0.0,0.0,0.0,0.0,0.0,0.0,0.0,0.0,0.0,0.0,0.0,0.0,0.0,0.0,0.0,0.0,0.0,0.0,0.0,0.0,0.0,0.0,0.0,0.0,0.0,0.0,0.0,0.0,0.0,0.0,0.0,0.0,0.0,0.0,0.0,0.0,0.0,0.0,0.0,0.0,0.0,0.0,0.0,0.0,0.0,0.0,0.0,0.0,0.0,0.0,0.0,0.0,0.0,0.0,0.0,0.0,0.0,0.0,0.0,0.0,0.0,0.0,0.0,0.0,0.0,0.0,0.0,0.0,0.0,0.0,0.0,0.0,0.0,0.0,0.0,0.0,0.0,0.0,0.0,0.0,0.0,0.0,0.0,0.0,0.0,0.0,0.0,0.0,0.0,0.0,0.0,0.0,0.0,0.0,0.0,0.0,0.0,0.0,0.0,0.0,0.0,0.0,0.0,0.0,0.0,0.0,0.0,0.0,0.0,0.0,0.0,0.0,0.0,0.0,0.0,0.0,0.0,0.0,0.0,0.0,0.0,0.0,0.0,0.0,0.0,0.0,0.0,0.0,0.0,0.0,0.0,0.0,0.0,0.0,0.0,0.0,0.0,0.0,0.0,0.0,0.0,0.0,0.0,0.0,0.0,0.0,0.0,0.0,0.0,0.0,0.0,0.0,0.0,0.0,0.0,0.0,0.0,0.0,0.0,0.0,0.0,0.0,0.0,0.0,0.0,0.0,0.0,0.0,0.0,0.0,0.0,0.0,0.0,0.0,0.0,0.0,0.0,0.0,0.0,0.0,0.0,0.0,0.0,0.0,0.0,0.0,0.0,0.0,0.0,0.0,0.0,0.0,0.0,0.0,0.0,0.0,0.0,0.0,0.0,0.0,0.0,0.0,0.0,0.0,0.0,0.0,0.0,0.0,0.0,0.0,0.0,0.0,0.0,0.0,0.0,0.0,0.0,0.0,0.0,0.0,0.0,0.0,0.0,0.0,0.0,0.0,0.0,0.0,0.0,0.0,0.0,0.0,0.0,0.0,0.0,0.0,0.0,0.0,0.0,0.0,0.0,0.0,0.0,0.0,0.0,0.0,0.0,0.0,0.0,0.0,0.0,0.0,0.0,0.0,0.0,0.0,0.0,0.0,0.0,0.0,0.0,0.0,0.0,0.0,0.0,0.0,0.0,0.0,0.0,0.0,0.0,0.0,0.0,0.0,0.0,0.0,0.0,0.0,0.0,0.0,0.0,0.0,0.0,0.0,0.0,0.0,0.0,0.0,0.0,0.0,0.0,0.0,0.0,0.0,0.0,0.0,0.0,0.0,0.0,0.0,0.0,0.0,0.0,0.0,0.0,0.0,0.0,0.0,0.0,0.0,0.0,0.0,0.0,0.0,0.0,0.0,0.0,0.0,0.0,0.0,0.0,0.0,0.0,0.0,0.0,0.0,0.0,0.0,0.0,0.0,0.0,0.0,0.0,0.0,0.0,0.0,0.0,0.0,0.0,0.0,0.0,0.0,0.0,0.0,0.0,0.0,0.0,0.0,0.0,0.0,0.0,0.0,0.0,0.0,0.0,0.0,0.0,0.0,0.0,0.0,0.0,0.0,0.0,0.0,0.0,0.0,0.0,0.0,0.0,0.0,0.0,0.0,0.0,0.0,0.0,0.0,0.0,0.0,0.0,0.0,0.0,0.0,0.0,0.0,0.0,0.0,0.0,0.0,0.0,0.0,0.0,0.0,0.0,0.0,0.0,0.0,0.0,0.0,0.0,0.0,0.0,0.0,0.0,0.0,0.0,0.0,0.0,0.0,0.0,0.0,0.0,0.0,0.0,0.0,0.0,0.0,0.0,0.0,0.0,0.0,0.0,0.0,0.0,0.0,0.0,0.0,0.0,0.0,0.0,0.0,0.0,0.0,0.0,0.0,0.0,0.0,0.0,0.0,0.0,0.0,0.0,0.0,0.0,0.0,0.0,0.0,0.0,0.0,0.0,0.0,0.0,0.0,0.0,0.0,0.0,0.0,0.0,0.0,0.0,0.0,0.0,0.0,0.0,0.0,0.0,0.0,0.0,0.0,0.0,0.0,0.0,0.0,0.0,0.0,0.0,0.0,0.0,0.0,0.0,0.0,0.0,0.0,0.0,0.0,0.0,0.0,0.0,0.0,0.0,0.0,0.0,0.0,0.0,0.0,0.0,0.0,0.0,0.0,0.0,0.0,0.0,0.0,0.0,0.0,0.0,0.0,0.0,0.0,0.0,0.0,0.0,0.0,0.0,0.0,0.0,0.0,0.0,0.0,0.0,0.0,0.0,0.0,0.0,0.0,0.0,0.0,0.0,0.0,0.0,0.0,0.0,0.0,0.0,0.0,0.0,0.0,0.0,0.0,0.0,0.0,0.0,0.0,0.0,0.0,0.0,0.0,0.0,0.0,0.0,0.0,0.0,0.0,0.0,0.0,0.0,0.0,0.0,0.0,0.0,0.0,0.0,0.0,0.0,0.0,0.0,0.0,0.0,0.0,0.0,0.0,0.0,0.0,0.0,0.0,0.0,0.0,0.0,0.0,0.0,0.0,0.0,0.0,0.0,0.0,0.0,0.0,0.0,0.0,0.0,0.0,0.0,0.0,0.0,0.0,0.0,0.0,0.0,0.0,0.0,0.0,0.0,0.0,0.0,0.0,0.0,0.0,0.0,0.0,0.0,0.0,0.0,0.0,0.0,0.0,0.0,0.0,0.0,0.0,0.0,0.0,0.0,0.0,0.0,0.0,0.0,0.0,0.0,0.0,0.0,0.0,0.0,0.0,0.0,0.0,0.0,0.0,0.0,0.0,0.0,0.0,0.0,0.0,0.0,0.0,0.0,0.0,0.0,0.0,0.0,0.0,0.0,0.0,0.0,0.0,0.0,0.0,0.0,0.0,0.0,0.0,0.0,0.0,0.0,0.0,0.0,0.0,0.0,0.0,0.0,0.0,0.0,0.0,0.0,0.0,0.0,0.0,0.0,0.0,0.0,0.0,0.0,0.0,0.0,0.0,-1.3392,0.0,0.0,0.0,0.0,0.0,0.0,0.0,0.0,0.0,0.0,0.0,0.0,0.0,0.0,0.0,0.0,0.0,0.0,0.0,0.0,0.0,0.0,0.0,0.0,0.0,0.0,0.0,0.0,0.0,0.0,0.0,0.0,0.0,0.0,0.0,0.0,0.0,0.0,0.0,0.0,0.0,0.0,0.0,0.0,0.0,0.0,0.0,0.0,0.0,0.0,0.0,0.0,0.0,0.0,0.0,0.0,0.0,0.0,0.0,0.0,0.0,0.0,0.0,0.0,0.0,0.0,0.0,0.0,0.0,0.0,0.0,0.0,0.0,0.0,0.0,0.0,0.0,0.0,0.0,0.0,0.0,0.0,0.0,0.0,0.0,0.0,0.0,0.0,0.0,0.0,0.0,0.0,0.0,0.0,0.0,0.0,0.0,0.0,0.0,0.0,0.0,0.0,0.0,0.0,0.0,0.0,0.0,0.0,0.0,0.0,-1.2112,-1.2283,-1.254,-1.2796,-1.3052,0.0,0.0,0.0,0.0,0.0,0.0,0.0,0.0,0.0,0.0,0.0,0.0,0.0,0.0,0.0,0.0,0.0,0.0,0.0,0.0,0.0,0.0,0.0,0.0,0.0,0.0,0.0,0.0,0.0,0.0,0.0,0.0,0.0,0.0,0.0,0.0,0.0,0.0,0.0,0.0,0.0,0.0,0.0,0.0,0.0,0.0,0.0,0.0,0.0,0.0,0.0,0.0,0.0,0.0,0.0,0.0,0.0,0.0,0.0,0.0,0.0,0.0,0.0,0.0,0.0,0.0,0.0,0.0,0.0,0.0,0.0,0.0,0.0,0.0,0.0,0.0,0.0,0.0,0.0,0.0,0.0,0.0,0.0,0.0,0.0,0.0,0.0,0.0,0.0,0.0,0.0,0.0,0.0,0.0,0.0,0.0,0.0,0.0,0.0,0.0,0.0,0.0,0.0,0.0,0.0,0.0,0.0,0.0,0.0,0.0,0.0,0.0,-1.2112,-1.2369,-1.254,0.0,0.0,0.0,0.0,0.0,0.0,0.0,0.0,0.0,0.0,0.0,0.0,0.0,0.0,0.0,0.0,0.0,0.0,0.0,0.0,0.0,0.0,0.0,0.0,0.0,0.0,0.0,0.0,0.0,0.0,0.0,0.0,0.0,0.0,0.0,0.0,0.0,0.0,0.0,0.0,0.0,0.0,0.0,0.0,0.0,0.0,0.0,0.0,0.0,0.0,0.0,0.0,0.0,0.0,0.0,0.0,0.0,0.0,0.0,0.0,0.0,0.0,0.0,0.0,0.0,0.0,0.0,0.0,0.0,0.0,0.0,0.0,0.0,0.0,0.0,0.0,0.0,0.0,0.0,0.0,0.0,0.0,0.0,0.0,0.0,0.0,0.0,0.0,0.0,0.0,0.0,0.0,0.0,0.0,0.0,0.0,0.0,0.0,0.0,0.0,0.0,0.0,0.0,0.0,0.0,0.0,0.0,0.0,0.0,0.0,-1.1154,-1.1327,-1.1585,0.0,-1.2037,0.0,0.0,0.0,0.0,0.0,0.0,0.0,0.0,0.0,0.0,0.0,0.0,0.0,0.0,0.0,0.0,0.0,0.0,0.0,0.0,0.0,0.0,0.0,0.0,0.0,0.0,0.0,0.0,0.0,0.0,0.0,0.0,0.0,0.0,0.0,0.0,0.0,0.0,0.0,0.0,0.0,0.0,0.0,0.0,0.0,0.0,0.0,0.0,0.0,0.0,0.0,0.0,0.0,0.0,0.0,0.0,0.0,0.0,0.0,0.0,0.0,0.0,0.0,0.0,0.0,0.0,0.0,0.0,0.0,0.0,0.0,0.0,0.0,0.0,0.0,0.0,0.0,0.0,0.0,0.0,0.0,0.0,0.0,0.0,0.0,0.0,0.0,0.0,0.0,0.0,0.0,0.0,0.0,0.0,0.0,0.0,0.0,0.0,0.0,0.0,0.0,0.0,0.0,0.0,0.0,0.0,0.0,0.0,0.0,0.0,-1.0549,-1.0895,-1.1327,-1.1585,0.0,0.0,0.0,0.0,0.0,0.0,0.0,0.0,0.0,0.0,0.0,0.0,0.0,0.0,0.0,0.0,0.0,0.0,0.0,0.0,0.0,0.0,0.0,0.0,0.0,0.0,0.0,0.0,0.0,0.0,0.0,0.0,0.0,0.0,0.0,0.0,0.0,0.0,0.0,0.0,0.0,0.0,0.0,0.0,0.0,0.0,0.0,0.0,0.0,0.0,0.0,0.0,0.0,0.0,0.0,0.0,0.0,0.0,0.0,0.0,0.0,0.0,0.0,0.0,0.0,0.0,0.0,0.0,0.0,0.0,0.0,0.0,0.0,0.0,0.0,0.0,0.0,0.0,0.0,0.0,0.0,0.0,0.0,0.0,0.0,0.0,0.0,0.0,0.0,0.0,0.0,0.0,0.0,0.0,0.0,0.0,0.0,0.0,0.0,0.0,0.0,0.0,0.0,0.0,0.0,0.0,0.0,0.0,0.0,0.0,-0.9777,-1.0038,-1.0472,-1.0895,-1.1241,-1.1424,0.0,0.0,0.0,0.0,0.0,0.0,0.0,0.0,0.0,0.0,0.0,0.0,0.0,0.0,0.0,0.0,0.0,0.0,0.0,0.0,0.0,0.0,0.0,0.0,0.0,0.0,0.0,0.0,0.0,0.0,0.0,0.0,0.0,0.0,0.0,0.0,0.0,0.0,0.0,0.0,0.0,0.0,0.0,0.0,0.0,0.0,0.0,0.0,0.0,0.0,0.0,0.0,0.0,0.0,0.0,0.0,0.0,0.0,0.0,0.0,0.0,0.0,0.0,0.0,0.0,0.0,0.0,0.0,0.0,0.0,0.0,0.0,0.0,0.0,0.0,0.0,0.0,0.0,0.0,0.0,0.0,0.0,0.0,0.0,0.0,0.0,0.0,0.0,0.0,0.0,0.0,0.0,0.0,0.0,0.0,0.0,0.0,0.0,0.0,0.0,0.0,0.0,0.0,0.0,0.0,0.0,0.0,0.0,-0.8999,-0.9174,-0.9515,-1.0038,-1.0472,-1.0733,0.0,0.0,0.0,0.0,0.0,0.0,0.0,0.0,0.0,0.0,0.0,0.0,0.0,0.0,0.0,0.0,0.0,0.0,0.0,0.0,0.0,0.0,0.0,0.0,0.0,0.0,0.0,0.0,0.0,0.0,0.0,0.0,0.0,0.0,0.0,0.0,0.0,0.0,0.0,0.0,0.0,0.0,0.0,0.0,0.0,0.0,0.0,0.0,0.0,0.0,0.0,0.0,0.0,0.0,0.0,0.0,0.0,0.0,0.0,0.0,0.0,0.0,0.0,0.0,0.0,0.0,0.0,0.0,0.0,0.0,0.0,0.0,0.0,0.0,0.0,0.0,0.0,0.0,0.0,0.0,0.0,0.0,0.0,0.0,0.0,0.0,0.0,0.0,0.0,0.0,0.0,0.0,0.0,0.0,0.0,0.0,0.0,0.0,0.0,0.0,0.0,0.0,0.0,0.0,0.0,0.0,0.0,0.0,0.0,-0.8727,-0.9207,-0.9473,-0.9533,-0.9995,-1.0181,0.0,0.0,0.0,0.0,0.0,0.0,0.0,0.0,0.0,0.0,0.0,0.0,0.0,0.0,0.0,0.0,0.0,0.0,0.0,0.0,0.0,0.0,0.0,0.0,0.0,0.0,0.0,0.0,0.0,0.0,0.0,0.0,0.0,0.0,0.0,0.0,0.0,0.0,0.0,0.0,0.0,0.0,0.0,0.0,0.0,0.0,0.0,0.0,0.0,0.0,0.0,0.0,0.0,0.0,0.0,0.0,0.0,0.0,0.0,0.0,0.0,0.0,0.0,0.0,0.0,0.0,0.0,0.0,0.0,0.0,0.0,0.0,0.0,0.0,0.0,0.0,0.0,0.0,0.0,0.0,0.0,0.0,0.0,0.0,0.0,0.0,0.0,0.0,0.0,0.0,0.0,0.0,0.0,0.0,0.0,0.0,0.0,0.0,0.0,0.0,0.0,0.0,0.0,0.0,0.0,0.0,0.0,0.0,0.0,-0.8641,0.0,-0.9397,-0.9366,-0.966,-0.9822,0.0,0.0,0.0,0.0,0.0,0.0,0.0,0.0,0.0,0.0,0.0,0.0,0.0,0.0,0.0,0.0,0.0,0.0,0.0,0.0,0.0,0.0,0.0,0.0,0.0,0.0,0.0,0.0,0.0,0.0,0.0,0.0,0.0,0.0,0.0,0.0,0.0,0.0,0.0,0.0,0.0,0.0,0.0,0.0,0.0,0.0,0.0,0.0,0.0,0.0,0.0,0.0,0.0,0.0,0.0,0.0,0.0,0.0,0.0,0.0,0.0,0.0,0.0,0.0,0.0,0.0,0.0,0.0,0.0,0.0,0.0,0.0,0.0,0.0,0.0,0.0,0.0,0.0,0.0,0.0,0.0,0.0,0.0,0.0,0.0,0.0,0.0,0.0,0.0,0.0,0.0,0.0,0.0,0.0,0.0,0.0,0.0,0.0,0.0,0.0,0.0,0.0,0.0,0.0,0.0,0.0,0.0,0.0,-0.8391,-0.8828,-0.9192,-0.9376,-0.9368,-0.9655,-0.9662,0.0,0.0,0.0,0.0,0.0,0.0,0.0,0.0,0.0,0.0,0.0,0.0,0.0,0.0,0.0,0.0,0.0,0.0,0.0,0.0,0.0,0.0,0.0,0.0,0.0,0.0,0.0,0.0,0.0,0.0,0.0,0.0,0.0,0.0,0.0,0.0,0.0,0.0,0.0,0.0,0.0,0.0,0.0,0.0,0.0,0.0,0.0,0.0,0.0,0.0,0.0,0.0,0.0,0.0,0.0,0.0,0.0,0.0,0.0,0.0,0.0,0.0,0.0,0.0,0.0,0.0,0.0,0.0,0.0,0.0,0.0,0.0,0.0,0.0,0.0,0.0,0.0,0.0,0.0,0.0,0.0,0.0,0.0,0.0,0.0,0.0,0.0,0.0,0.0,0.0,0.0,0.0,0.0,0.0,0.0,0.0,0.0,0.0,0.0,0.0,0.0,0.0,0.0,0.0,0.0,0.0,0.0,0.0,0.0,-0.9194,-0.946,-0.9501,-0.9378,-0.9589,-0.9602,0.0,0.0,0.0,0.0,0.0,0.0,0.0,0.0,0.0,0.0,0.0,0.0,0.0,0.0,0.0,0.0,0.0,0.0,0.0,0.0,0.0,0.0,0.0,0.0,0.0,0.0,0.0,0.0,0.0,0.0,0.0,0.0,0.0,0.0,0.0,0.0,0.0,0.0,0.0,0.0,0.0,0.0,0.0,0.0,0.0,0.0,0.0,0.0,0.0,0.0,0.0,0.0,0.0,0.0,0.0,0.0,0.0,0.0,0.0,0.0,0.0,0.0,0.0,0.0,0.0,0.0,0.0,0.0,0.0,0.0,0.0,0.0,0.0,0.0,0.0,0.0,0.0,0.0,0.0,0.0,0.0,0.0,0.0,0.0,0.0,0.0,0.0,0.0,0.0,0.0,0.0,0.0,0.0,0.0,0.0,0.0,0.0,0.0,0.0,0.0,0.0,0.0,0.0,0.0,0.0,0.0,0.0,0.0,0.0,-0.9949,-1.0035,-1.0078,-0.9954,-1.0004,-0.9855,-0.9498,0.0,0.0,0.0,0.0,0.0,0.0,0.0,0.0,0.0,0.0,0.0,0.0,0.0,0.0,0.0,0.0,0.0,0.0,0.0,0.0,0.0,0.0,0.0,0.0,0.0,0.0,0.0,0.0,0.0,0.0,0.0,0.0,0.0,0.0,0.0,0.0,0.0,0.0,0.0,0.0,0.0,0.0,0.0,0.0,0.0,0.0,0.0,0.0,0.0,0.0,0.0,0.0,0.0,0.0,0.0,0.0,0.0,0.0,0.0,0.0,0.0,0.0,0.0,0.0,0.0,0.0,0.0,0.0,0.0,0.0,0.0,0.0,0.0,0.0,0.0,0.0,0.0,0.0,0.0,0.0,0.0,0.0,0.0,0.0,0.0,0.0,0.0,0.0,0.0,0.0,0.0,0.0,0.0,0.0,0.0,0.0,0.0,0.0,0.0,0.0,0.0,0.0,0.0,0.0,0.0,0.0,0.0,0.0,-1.0988,-1.1017,-1.094,-1.089,-1.0721,-1.0339,0.0,0.0,0.0,0.0,0.0,0.0,0.0,0.0,0.0,0.0,0.0,0.0,0.0,0.0,0.0,0.0,0.0,0.0,0.0,0.0,0.0,0.0,0.0,0.0,0.0,0.0,0.0,0.0,0.0,0.0,0.0,0.0,0.0,0.0,0.0,0.0,0.0,0.0,0.0,0.0,0.0,0.0,0.0,0.0,0.0,0.0,0.0,0.0,0.0,0.0,0.0,0.0,0.0,0.0,0.0,0.0,0.0,0.0,0.0,0.0,0.0,0.0,0.0,0.0,0.0,0.0,0.0,0.0,0.0,0.0,0.0,0.0,0.0,0.0,0.0,0.0,0.0,0.0,0.0,0.0,0.0,0.0,0.0,0.0,0.0,0.0,0.0,0.0,0.0,0.0,0.0,0.0,0.0,0.0,0.0,0.0,0.0,0.0,0.0,0.0,0.0,0.0,0.0,0.0,0.0,0.0,0.0,0.0,0.0,-1.1695,-1.1997,-1.1828,-1.1295,-1.1228,-1.089,0.0,0.0,0.0,0.0,0.0,0.0,0.0,0.0,0.0,0.0,0.0,0.0,0.0,0.0,0.0,0.0,0.0,0.0,0.0,0.0,0.0,0.0,0.0,0.0,0.0,0.0,0.0,0.0,0.0,0.0,0.0,0.0,0.0,0.0,0.0,0.0,0.0,0.0,0.0,0.0,0.0,0.0,0.0,0.0,0.0,0.0,0.0,0.0,0.0,0.0,0.0,0.0,0.0,0.0,0.0,0.0,0.0,0.0,0.0,0.0,0.0,0.0,0.0,0.0,0.0,0.0,0.0,0.0,0.0,0.0,0.0,0.0,0.0,0.0,0.0,0.0,0.0,0.0,0.0,0.0,0.0,0.0,0.0,0.0,0.0,0.0,0.0,0.0,0.0,0.0,0.0,0.0,0.0,0.0,0.0,0.0,0.0,0.0,0.0,0.0,0.0,0.0,0.0,0.0,0.0,0.0,0.0,0.0,-1.1637,-1.2076,-1.3018,-1.2966,-1.2132,-1.1811,-1.1338,0.0,0.0,0.0,0.0,0.0,0.0,0.0,0.0,0.0,0.0,0.0,0.0,0.0,0.0,0.0,0.0,0.0,0.0,0.0,0.0,0.0,0.0,0.0,0.0,0.0,0.0,0.0,0.0,0.0,0.0,0.0,0.0,0.0,0.0,0.0,0.0,0.0,0.0,0.0,0.0,0.0,0.0,0.0,0.0,0.0,0.0,0.0,0.0,0.0,0.0,0.0,0.0,0.0,0.0,0.0,0.0,0.0,0.0,0.0,0.0,0.0,0.0,0.0,0.0,0.0,0.0,0.0,0.0,0.0,0.0,0.0,0.0,0.0,0.0,0.0,0.0,0.0,0.0,0.0,0.0,0.0,0.0,0.0,0.0,0.0,0.0,0.0,0.0,0.0,0.0,0.0,0.0,0.0,0.0,0.0,0.0,0.0,0.0,0.0,0.0,0.0,0.0,0.0,0.0,0.0,0.0,0.0,0.0,-1.244,-1.248,-1.3787,-1.4024,-1.3001,-1.2437,-1.1661,0.0,0.0,0.0,0.0,0.0,0.0,0.0,0.0,0.0,0.0,0.0,0.0,0.0,0.0,0.0,0.0,0.0,0.0,0.0,0.0,0.0,0.0,0.0,0.0,0.0,0.0,0.0,0.0,0.0,0.0,0.0,0.0,0.0,0.0,0.0,0.0,0.0,0.0,0.0,0.0,0.0,0.0,0.0,0.0,0.0,0.0,0.0,0.0,0.0,0.0,0.0,0.0,0.0,0.0,0.0,0.0,0.0,0.0,0.0,0.0,0.0,0.0,0.0,0.0,0.0,0.0,0.0,0.0,0.0,0.0,0.0,0.0,0.0,0.0,0.0,0.0,0.0,0.0,0.0,0.0,0.0,0.0,0.0,0.0,0.0,0.0,0.0,0.0,0.0,0.0,0.0,0.0,0.0,0.0,0.0,0.0,0.0,0.0,0.0,0.0,0.0,0.0,0.0,0.0,0.0,0.0,0.0,0.0,-1.2581,-1.311,-1.3511,-1.3477,-1.312,-1.2808,-1.2225,0.0,0.0,0.0,0.0,0.0,0.0,0.0,0.0,0.0,0.0,0.0,0.0,0.0,0.0,0.0,0.0,0.0,0.0,0.0,0.0,0.0,0.0,0.0,0.0,0.0,0.0,0.0,0.0,0.0,0.0,0.0,0.0,0.0,0.0,0.0,0.0,0.0,0.0,0.0,0.0,0.0,0.0,0.0,0.0,0.0,0.0,0.0,0.0,-1.6443,0.0,0.0,0.0,0.0,0.0,0.0,0.0,0.0,0.0,0.0,0.0,0.0,0.0,0.0,0.0,0.0,0.0,0.0,0.0,0.0,0.0,0.0,0.0,0.0,0.0,0.0,0.0,0.0,0.0,0.0,0.0,0.0,0.0,0.0,0.0,0.0,0.0,0.0,0.0,0.0,0.0,0.0,0.0,0.0,0.0,0.0,0.0,0.0,0.0,0.0,0.0,0.0,0.0,0.0,0.0,0.0,0.0,0.0,0.0,-1.3068,-1.3739,-1.3897,-1.3719,-1.3457,-1.3087,-1.254,0.0,0.0,0.0,0.0,0.0,0.0,0.0,0.0,0.0,0.0,0.0,0.0,0.0,0.0,0.0,0.0,0.0,0.0,0.0,0.0,0.0,0.0,0.0,0.0,0.0,0.0,0.0,0.0,0.0,0.0,0.0,0.0,0.0,0.0,0.0,0.0,0.0,0.0,0.0,0.0,0.0,0.0,0.0,0.0,0.0,0.0,0.0,0.0,0.0,0.0,0.0,0.0,0.0,0.0,0.0,0.0,0.0,0.0,0.0,0.0,0.0,0.0,0.0,0.0,0.0,0.0,0.0,0.0,0.0,0.0,0.0,0.0,0.0,0.0,0.0,0.0,0.0,0.0,0.0,0.0,0.0,0.0,0.0,0.0,0.0,0.0,0.0,0.0,0.0,0.0,0.0,0.0,0.0,0.0,0.0,0.0,0.0,0.0,0.0,0.0,0.0,0.0,0.0,0.0,0.0,0.0,0.0,-1.2809,-1.3502,-1.4162,-1.4381,-1.4189,-1.3896,-1.3409,-1.2832,-1.2174,0.0,0.0,0.0,0.0,0.0,0.0,0.0,0.0,0.0,0.0,0.0,0.0,0.0,0.0,0.0,0.0,0.0,0.0,0.0,0.0,0.0,0.0,0.0,0.0,0.0,0.0,0.0,0.0,0.0,0.0,0.0,0.0,0.0,0.0,0.0,0.0,0.0,0.0,-1.6531,-1.6687,0.0,0.0,0.0,0.0,0.0,0.0,0.0,0.0,-1.5708,0.0,0.0,0.0,0.0,0.0,0.0,0.0,0.0,0.0,0.0,0.0,0.0,0.0,0.0,0.0,0.0,0.0,0.0,0.0,0.0,0.0,0.0,0.0,0.0,0.0,0.0,0.0,0.0,0.0,0.0,0.0,0.0,0.0,0.0,0.0,0.0,0.0,0.0,0.0,0.0,0.0,0.0,0.0,0.0,0.0,0.0,0.0,0.0,0.0,0.0,0.0,0.0,0.0,0.0,0.0,0.0,-1.2648,-1.2979,-1.3485,-1.4178,-1.409,-1.3904,-1.3896,-1.353,-1.3124,-1.2694,0.0,0.0,0.0,0.0,0.0,0.0,0.0,0.0,0.0,0.0,0.0,0.0,0.0,0.0,0.0,0.0,0.0,0.0,0.0,0.0,0.0,0.0,0.0,0.0,0.0,0.0,0.0,0.0,0.0,0.0,0.0,0.0,0.0,0.0,0.0,0.0,0.0,0.0,0.0,-1.763,-1.7462,0.0,0.0,0.0,0.0,0.0,0.0,0.0,0.0,-1.5336,0.0,0.0,0.0,0.0,0.0,0.0,0.0,0.0,0.0,0.0,0.0,0.0,0.0,0.0,0.0,0.0,0.0,0.0,0.0,0.0,0.0,0.0,0.0,0.0,0.0,0.0,0.0,0.0,0.0,0.0,0.0,0.0,0.0,0.0,0.0,0.0,0.0,0.0,0.0,0.0,0.0,0.0,0.0,0.0,0.0,0.0,0.0,0.0,0.0,0.0,0.0,0.0,0.0,0.0,0.0,-1.3054,-1.3411,-1.3964,-1.4736,-1.4235,-1.4083,-1.4164,-1.3652,-1.3206,0.0,0.0,0.0,0.0,0.0,0.0,0.0,0.0,0.0,0.0,0.0,0.0,0.0,0.0,0.0,0.0,0.0,0.0,0.0,0.0,0.0,0.0,0.0,0.0,0.0,0.0,0.0,0.0,0.0,0.0,0.0,0.0,0.0,0.0,0.0,0.0,0.0,0.0,0.0,0.0,-1.7512,-1.7438,-1.7908,0.0,0.0,0.0,0.0,0.0,0.0,-1.5887,-1.5529,0.0,0.0,0.0,0.0,0.0,0.0,0.0,0.0,0.0,0.0,0.0,0.0,0.0,0.0,0.0,0.0,0.0,0.0,0.0,0.0,0.0,0.0,0.0,0.0,0.0,0.0,0.0,0.0,0.0,0.0,0.0,0.0,0.0,0.0,0.0,0.0,0.0,0.0,0.0,0.0,0.0,0.0,0.0,0.0,0.0,0.0,0.0,0.0,0.0,0.0,0.0,0.0,0.0,0.0,0.0,-1.326,-1.379,-1.439,-1.5052,-1.4523,-1.4278,-1.4367,-1.3758,-1.3238,0.0,0.0,0.0,0.0,0.0,0.0,0.0,0.0,0.0,0.0,0.0,0.0,0.0,0.0,0.0,0.0,0.0,0.0,0.0,0.0,0.0,0.0,0.0,0.0,0.0,0.0,0.0,0.0,0.0,0.0,0.0,0.0,0.0,0.0,0.0,0.0,0.0,0.0,0.0,0.0,0.0,-1.7478,-1.8148,-1.7547,0.0,0.0,0.0,0.0,-1.5904,-1.6078,0.0,0.0,0.0,0.0,0.0,0.0,0.0,0.0,0.0,0.0,0.0,0.0,0.0,0.0,0.0,0.0,0.0,0.0,0.0,0.0,0.0,0.0,0.0,0.0,0.0,0.0,0.0,0.0,0.0,0.0,0.0,0.0,0.0,0.0,0.0,0.0,0.0,0.0,0.0,0.0,0.0,0.0,0.0,0.0,0.0,0.0,0.0,0.0,0.0,0.0,0.0,0.0,0.0,0.0,0.0,0.0,-1.3161,-1.383,-1.4307,-1.4432,-1.4424,-1.4335,-1.4213,-1.3823,-1.3368,0.0,0.0,0.0,0.0,0.0,0.0,0.0,0.0,0.0,0.0,0.0,0.0,0.0,0.0,0.0,0.0,0.0,0.0,0.0,0.0,0.0,0.0,0.0,0.0,0.0,0.0,0.0,0.0,0.0,0.0,0.0,0.0,0.0,0.0,0.0,0.0,0.0,0.0,0.0,0.0,0.0,-1.7873,-1.7886,-1.7505,-1.7089,0.0,0.0,-1.6589,-1.6105,-1.6153,0.0,0.0,0.0,0.0,0.0,0.0,0.0,0.0,0.0,0.0,0.0,0.0,0.0,0.0,0.0,0.0,0.0,0.0,0.0,0.0,0.0,0.0,0.0,0.0,0.0,0.0,0.0,0.0,0.0,0.0,0.0,0.0,0.0,0.0,0.0,0.0,0.0,0.0,0.0,0.0,0.0,0.0,0.0,0.0,0.0,0.0,0.0,0.0,0.0,0.0,0.0,0.0,0.0,0.0,0.0,-1.2909,-1.3637,-1.4692,-1.5069,-1.501,-1.4935,-1.4703,-1.4481,-1.3937,-1.3433,0.0,0.0,0.0,0.0,0.0,0.0,0.0,0.0,0.0,0.0,0.0,0.0,0.0,0.0,0.0,0.0,0.0,0.0,0.0,0.0,0.0,0.0,0.0,0.0,0.0,0.0,0.0,0.0,0.0,0.0,0.0,0.0,0.0,0.0,0.0,0.0,0.0,0.0,0.0,0.0,0.0,0.0,-1.7564,-1.7426,0.0,0.0,0.0,-1.71,-1.6897,0.0,0.0,0.0,0.0,0.0,0.0,0.0,0.0,0.0,0.0,0.0,0.0,0.0,0.0,0.0,0.0,0.0,0.0,0.0,0.0,0.0,0.0,0.0,0.0,0.0,0.0,0.0,0.0,0.0,0.0,0.0,0.0,0.0,0.0,0.0,0.0,0.0,0.0,0.0,0.0,0.0,0.0,0.0,0.0,0.0,0.0,0.0,0.0,0.0,0.0,0.0,0.0,0.0,0.0,0.0,0.0,0.0,-1.4113,-1.5203,-1.5762,-1.5557,-1.5295,-1.5051,-1.47,-1.4058,0.0,0.0,0.0,0.0,0.0,0.0,0.0,0.0,0.0,0.0,0.0,0.0,0.0,0.0,0.0,0.0,0.0,0.0,0.0,0.0,0.0,0.0,0.0,0.0,0.0,0.0,0.0,-1.0548,0.0,0.0,0.0,0.0,0.0,0.0,0.0,0.0,0.0,0.0,0.0,0.0,0.0,0.0,-1.6908,-1.736,-1.7535,-1.7521,0.0,0.0,-1.768,-1.7488,-1.7429,-1.7058,0.0,0.0,0.0,0.0,0.0,0.0,0.0,0.0,0.0,0.0,0.0,0.0,0.0,0.0,0.0,0.0,0.0,0.0,0.0,0.0,0.0,0.0,0.0,0.0,0.0,0.0,0.0,0.0,0.0,0.0,0.0,0.0,0.0,0.0,0.0,0.0,0.0,0.0,0.0,0.0,0.0,0.0,0.0,0.0,0.0,0.0,0.0,0.0,0.0,0.0,0.0,0.0,0.0,0.0,0.0,-1.4145,-1.498,-1.5467,-1.5557,-1.5267,-1.4871,-1.4708,-1.4172,-1.3636,0.0,0.0,0.0,0.0,0.0,0.0,0.0,0.0,0.0,0.0,0.0,0.0,0.0,0.0,0.0,0.0,0.0,0.0,0.0,0.0,0.0,0.0,0.0,0.0,0.0,0.0,0.0,0.0,0.0,0.0,0.0,0.0,0.0,0.0,0.0,0.0,0.0,0.0,0.0,0.0,0.0,-1.7229,-1.7451,-1.7642,-1.7669,0.0,0.0,-1.7852,-1.7421,-1.7701,-1.7534,-1.589,0.0,0.0,0.0,0.0,0.0,0.0,0.0,0.0,0.0,0.0,0.0,0.0,0.0,0.0,0.0,0.0,0.0,0.0,0.0,0.0,0.0,0.0,0.0,0.0,0.0,0.0,0.0,0.0,0.0,0.0,0.0,0.0,0.0,0.0,0.0,0.0,0.0,0.0,0.0,0.0,0.0,0.0,0.0,0.0,0.0,0.0,0.0,0.0,0.0,0.0,0.0,0.0,0.0,-1.3761,-1.4356,-1.543,-1.5975,-1.5895,-1.5663,-1.5416,-1.5033,-1.4416,-1.3872,0.0,0.0,0.0,0.0,0.0,0.0,0.0,0.0,0.0,0.0,0.0,0.0,0.0,0.0,0.0,0.0,0.0,0.0,0.0,0.0,0.0,0.0,0.0,0.0,0.0,0.0,0.0,0.0,-1.2073,-1.2415,-1.271,0.0,0.0,0.0,0.0,0.0,0.0,0.0,0.0,0.0,0.0,-1.7478,-1.7575,-1.7852,0.0,0.0,-1.8121,-1.8089,-1.8035,-1.8074,-1.7701,-1.6661,-1.6208,0.0,0.0,0.0,0.0,0.0,0.0,0.0,0.0,0.0,0.0,0.0,0.0,0.0,0.0,0.0,0.0,0.0,0.0,0.0,0.0,0.0,0.0,0.0,0.0,0.0,0.0,0.0,0.0,0.0,0.0,0.0,0.0,0.0,0.0,0.0,0.0,0.0,0.0,0.0,0.0,0.0,0.0,0.0,0.0,0.0,0.0,0.0,0.0,0.0,0.0,0.0,0.0,-1.3897,-1.455,-1.565,-1.6168,-1.6047,-1.5722,-1.5474,-1.5139,-1.4521,-1.401,0.0,0.0,0.0,0.0,0.0,0.0,0.0,0.0,0.0,0.0,0.0,0.0,0.0,0.0,0.0,0.0,0.0,0.0,0.0,0.0,0.0,0.0,0.0,0.0,0.0,0.0,0.0,0.0,-1.2312,-1.2561,-1.284,0.0,0.0,0.0,0.0,0.0,0.0,0.0,0.0,0.0,0.0,-1.7776,-1.7916,-1.8347,-1.8649,-1.8649,-1.8509,-1.8444,-1.853,-1.84,-1.8053,-1.7139,0.0,0.0,0.0,0.0,0.0,0.0,0.0,0.0,0.0,0.0,0.0,0.0,0.0,0.0,0.0,0.0,0.0,0.0,0.0,0.0,0.0,0.0,0.0,0.0,0.0,0.0,0.0,0.0,0.0,0.0,-0.9421,0.0,0.0,0.0,0.0,0.0,0.0,0.0,0.0,0.0,0.0,0.0,0.0,0.0,0.0,0.0,0.0,0.0,0.0,0.0,0.0,0.0,0.0,-1.3823,-1.4728,-1.5134,-1.5514,-1.5878,-1.5383,-1.4992,-1.4976,-1.4464,-1.4018,-1.3652,0.0,0.0,0.0,0.0,0.0,0.0,0.0,0.0,0.0,0.0,0.0,0.0,0.0,0.0,0.0,0.0,0.0,0.0,0.0,0.0,0.0,0.0,0.0,0.0,0.0,0.0,-1.2093,-1.2621,-1.3052,0.0,0.0,0.0,0.0,0.0,0.0,0.0,0.0,0.0,0.0,-1.741,-1.7895,-1.8358,-1.8832,-1.9122,-1.9133,-1.9122,-1.9036,-1.881,-1.8767,-1.8389,0.0,0.0,0.0,0.0,0.0,0.0,0.0,0.0,0.0,0.0,0.0,0.0,0.0,0.0,0.0,0.0,0.0,0.0,0.0,0.0,0.0,0.0,0.0,0.0,0.0,0.0,0.0,-1.1043,-1.0932,0.0,0.0,0.0,0.0,0.0,0.0,0.0,0.0,0.0,0.0,0.0,-1.364,-1.364,0.0,0.0,0.0,0.0,0.0,0.0,0.0,0.0,0.0,0.0,0.0,0.0,-1.4056,-1.4794,-1.5345,-1.5772,-1.5917,-1.5601,-1.5447,-1.5333,-1.4919,-1.431,-1.349,0.0,0.0,0.0,0.0,0.0,0.0,0.0,0.0,0.0,0.0,0.0,0.0,0.0,0.0,0.0,0.0,0.0,0.0,0.0,0.0,0.0,0.0,0.0,0.0,0.0,-1.159,0.0,0.0,0.0,0.0,0.0,0.0,0.0,0.0,0.0,0.0,0.0,-1.671,-1.7195,-1.7927,-1.8487,-1.8649,-1.9079,-1.9381,0.0,0.0,0.0,0.0,0.0,0.0,0.0,0.0,0.0,0.0,0.0,0.0,0.0,0.0,-1.4838,-1.3845,-1.3639,-1.3761,-1.4004,0.0,0.0,0.0,0.0,0.0,0.0,0.0,0.0,0.0,0.0,0.0,0.0,0.0,0.0,-1.2202,0.0,-1.2293,0.0,0.0,0.0,0.0,0.0,0.0,0.0,0.0,-1.4494,-1.4883,-1.4898,-1.498,-1.4922,0.0,-1.4901,-1.4159,0.0,0.0,0.0,0.0,0.0,0.0,0.0,0.0,-1.4223,-1.4684,-1.5212,-1.563,-1.5918,-1.5772,-1.5634,-1.5512,-1.5098,-1.4456,-1.344,-1.2831,-1.2232,0.0,0.0,0.0,0.0,0.0,0.0,0.0,0.0,0.0,0.0,0.0,0.0,0.0,0.0,0.0,0.0,0.0,0.0,0.0,0.0,0.0,0.0,0.0,-1.2293,0.0,0.0,0.0,0.0,0.0,0.0,0.0,0.0,0.0,-1.5327,-1.6413,-1.7281,-1.769,-1.8347,-1.8842,-1.9015,0.0,0.0,0.0,0.0,0.0,0.0,0.0,-1.9413,-1.909,-1.8891,-1.8528,-1.8143,-1.7631,-1.7286,-1.7154,0.0,0.0,-1.5288,-1.5023,-1.5023,-1.5276,-1.5455,-1.5634,-1.5984,-1.6298,-1.6481,0.0,0.0,0.0,0.0,0.0,0.0,0.0,0.0,-1.3107,-1.3002,0.0,-1.3461,0.0,0.0,0.0,0.0,0.0,-1.4222,0.0,0.0,-1.5841,-1.6199,-1.5836,-1.6045,-1.6055,-1.5888,-1.6039,-1.5744,-1.5121,-1.4117,0.0,0.0,0.0,0.0,0.0,0.0,-1.418,-1.4724,-1.5074,-1.5423,-1.5772,-1.5626,-1.5536,-1.5512,-1.5,-1.4324,-1.3364,-1.3432,-1.3078,-1.246,-1.1576,0.0,0.0,0.0,0.0,0.0,0.0,0.0,0.0,0.0,0.0,0.0,0.0,0.0,0.0,0.0,0.0,0.0,0.0,0.0,0.0,-1.2496,0.0,0.0,0.0,0.0,0.0,0.0,0.0,0.0,0.0,0.0,-1.6025,-1.6876,-1.7669,-1.8347,0.0,0.0,0.0,0.0,-2.021,-2.0221,-2.0414,-2.0468,-2.0253,-2.0221,-2.0059,-1.9607,0.0,0.0,-1.8791,-1.8124,-1.7981,-1.8258,-1.808,-1.7621,-1.6501,-1.6206,-1.6175,-1.6175,-1.6359,-1.6552,-1.6766,-1.6981,-1.7205,-1.3929,0.0,0.0,0.0,0.0,-1.3435,-1.3583,-1.3826,-1.4436,-1.4524,-1.4404,-1.4821,0.0,0.0,0.0,0.0,0.0,0.0,-1.5483,-1.5494,-1.6295,-1.6646,-1.6679,-1.6925,-1.7085,-1.7182,-1.7188,-1.6809,-1.6225,-1.6121,-1.5452,-1.425,0.0,0.0,0.0,0.0,-1.4712,-1.5057,-1.5317,-1.561,-1.5959,-1.5918,-1.5837,-1.5699,-1.5171,-1.47,-1.4147,-1.3937,-1.3245,-1.2239,-1.1833,0.0,0.0,0.0,0.0,0.0,0.0,0.0,0.0,0.0,0.0,0.0,0.0,0.0,0.0,0.0,0.0,0.0,0.0,0.0,-1.2646,-1.3152,-1.3457,0.0,0.0,0.0,0.0,0.0,0.0,0.0,0.0,0.0,-1.7317,-1.7803,-1.8272,0.0,0.0,-1.9402,-1.9704,-2.0016,-2.0274,-2.0436,-2.0522,0.0,0.0,-2.0468,-2.0414,-2.0274,-2.0264,-2.0231,-2.0013,-1.9658,-1.9499,-1.965,-1.9458,-1.9137,-1.8587,-1.8078,-1.7781,-1.7771,-1.794,-1.811,-1.8184,-1.8386,-1.8619,-1.4959,-1.4421,-1.4251,-1.4185,-1.4194,-1.4326,-1.4449,-1.4817,-1.5189,-1.5346,-1.5376,-1.5607,-1.5556,-1.5104,-1.5085,0.0,0.0,0.0,-1.6382,-1.6488,-1.6721,-1.6901,-1.7039,-1.7149,-1.7276,-1.7328,-1.7591,-1.7261,-1.6639,-1.6947,-1.6535,-1.5598,0.0,0.0,-1.4768,-1.4796,-1.4952,-1.522,-1.5423,-1.5683,-1.6032,-1.6048,-1.5795,-1.561,-1.5455,-1.5082,-1.4366,-1.408,-1.357,-1.2704,-1.2127,-1.1437,0.0,0.0,0.0,0.0,0.0,0.0,0.0,0.0,0.0,0.0,0.0,-0.9663,-1.0085,0.0,0.0,0.0,-1.2,-1.2633,-1.3542,-1.3788,0.0,0.0,0.0,0.0,0.0,0.0,0.0,-1.5678,-1.6606,-1.7327,-1.7976,-1.8678,-1.9047,-1.9187,-1.9456,-1.9758,-2.0081,0.0,-2.0576,-2.0813,-2.092,-2.1017,-2.1114,-2.1125,-2.1093,-2.0996,-2.0899,-2.0802,-2.0705,-2.0511,-2.0361,-2.0328,-2.0231,-2.0091,-1.9951,-1.9564,-1.9165,-1.8918,-1.8972,-1.9112,-1.9305,-1.9467,-1.9639,-1.5829,-1.5621,-1.5243,-1.5054,-1.5007,-1.5007,-1.5147,-1.5429,-1.5541,-1.5554,-1.5623,-1.5987,-1.6001,-1.5543,-1.5784,0.0,-1.6371,-1.6829,-1.7184,-1.741,-1.7255,-1.7224,-1.7235,-1.7042,-1.6904,-1.6702,-1.7329,-1.7245,-1.6803,-1.7184,-1.7233,-1.6802,-1.6195,-1.5723,-1.5158,-1.5214,-1.5353,-1.5252,-1.5439,-1.5707,-1.6032,-1.6048,-1.5803,-1.531,-1.5602,-1.5353,-1.4562,-1.4197,-1.3948,-1.3597,-1.2425,-1.1891,-1.2246,0.0,0.0,0.0,0.0,0.0,0.0,0.0,0.0,0.0,0.0,0.0,0.0,0.0,0.0,0.0,-1.2482,0.0,-1.4173,-1.4355,0.0,0.0,0.0,-1.4714,-1.4704,-1.5063,-1.5519,-1.6254,0.0,0.0,-1.8422,-1.9319,-1.9898,-1.993,-1.9919,-2.0081,-2.0554,-2.0791,-2.1028,-2.1286,-2.1502,-2.1717,-2.1857,-2.1889,-2.1814,-2.1631,-2.147,-2.1265,-2.106,-2.0856,-2.0694,-2.0716,-2.0662,-2.063,-2.063,-2.0554,-2.0382,-1.9725,-1.9607,-1.9725,-2.0091,-2.0199,-2.0264,-1.6547,-1.65,-1.6405,-1.6084,-1.564,-1.564,-1.5734,-1.6005,-1.6128,-1.6167,-1.6244,-1.6758,-1.7044,-1.7124,-1.7246,-1.7278,-1.7331,-1.7529,-1.7583,-1.7658,-1.7476,-1.7444,-1.7464,-1.7266,-1.7207,-1.7177,-1.747,-1.7468,-1.7008,-1.7253,-1.7233,-1.6812,-1.6758,-1.649,-1.5711,-1.5841,-1.5863,-1.5447,-1.5626,-1.5821,-1.604,-1.6048,-1.5859,-1.5819,-1.5715,-1.5447,-1.5031,-1.4412,-1.3791,-1.3167,-1.2894,-1.2372,-1.1869,-1.1694,0.0,0.0,0.0,0.0,0.0,0.0,0.0,0.0,0.0,-1.087,-1.1374,0.0,-1.215,0.0,-1.3699,-1.4187,-1.4326,-1.4733,0.0,0.0,-1.512,-1.5337,-1.5347,-1.5971,-1.6529,-1.6997,-1.797,-1.8738,-1.9415,-1.9908,-2.0253,-2.0597,-2.05,-2.0565,-2.1028,-2.1147,-2.134,-2.1717,-2.1846,-2.1911,-2.1986,-2.1976,-2.1965,-2.1889,-2.1836,-2.1782,-2.1728,-2.1674,-2.1631,-2.162,-2.148,-2.1319,-2.1147,-2.0963,-2.0791,-2.0597,-2.0436,-2.0339,-2.0468,-2.0479,-2.0554,-1.7029,-1.6934,-1.6944,-1.6727,-1.6405,-1.632,-1.6349,-1.6443,-1.6473,-1.6661,-1.6695,-1.7174,-1.7623,-1.7771,-1.7898,-1.8099,-1.8186,-1.8196,-1.825,-1.8358,-1.7819,-1.7549,-1.7549,-1.7399,-1.7176,-1.7186,-1.7494,-1.7497,-1.737,-1.7427,-1.7226,-1.7086,-1.7133,-1.6779,-1.6168,-1.6274,-1.6051,-1.5626,-1.5886,-1.6056,-1.6154,-1.6162,-1.6162,-1.6154,-1.5821,-1.5545,-1.5366,-1.4554,-1.3937,-1.3534,-1.3228,-1.288,-1.2604,-1.2298,-1.2142,0.0,0.0,0.0,0.0,0.0,0.0,0.0,0.0,0.0,0.0,0.0,-1.2474,-1.3418,-1.4207,-1.4595,-1.4733,-1.5111,-1.5337,-1.5224,-1.5583,-1.5838,-1.5838,-1.6349,-1.7067,-1.7743,-1.8306,-1.9135,-1.9984,-2.0307,-2.0651,-2.1028,-2.105,-2.1125,-2.1373,-2.1513,-2.1717,-2.2072,-2.2137,-2.218,-2.2277,-2.2288,-2.2288,-2.2277,-2.2202,-2.2126,-2.2126,-2.204,-2.1965,-2.1954,-2.1857,-2.1739,-2.162,-2.148,-2.1373,-2.1362,-2.1286,-2.1168,-2.106,-2.1039,-2.1103,-1.7398,-1.7227,-1.7227,-1.7227,-1.7209,-1.7038,-1.6916,-1.684,-1.6812,-1.6854,-1.7096,-1.7602,-1.7814,-1.7965,-1.8237,-1.8638,-1.8832,-1.8832,-1.895,-1.8987,-1.8207,-1.7826,-1.7683,-1.725,-1.7106,-1.7126,-1.7379,-1.7563,-1.7573,-1.7473,-1.7445,-1.7473,-1.718,-1.6988,-1.6564,-1.6555,-1.6265,-1.5804,-1.6137,-1.6292,-1.6276,-1.6292,-1.6292,-1.6259,-1.5943,-1.5691,-1.552,-1.4883,-1.4306,-1.4104,-1.3511,-1.3351,-1.3613,-1.2871,-1.2605,0.0,-1.2265,0.0,0.0,0.0,0.0,0.0,0.0,0.0,0.0,-1.2447,-1.2884,-1.3699,-1.4412,-1.4888,-1.5271,-1.547,-1.5611,-1.5649,-1.598,-1.6235,-1.6273,-1.6613,-1.7221,-1.817,-1.8532,-1.907,-1.9976,-2.0526,-2.0879,-2.1124,-2.1381,-2.1531,-2.1728,-2.1879,-2.2094,-2.2342,-2.2406,-2.2525,-2.2718,-2.274,-2.2718,-2.2697,-2.2525,-2.2385,-2.2374,-2.2212,-2.2072,-2.2072,-2.2051,-2.2019,-2.204,-2.1986,-2.1954,-2.1933,-2.1911,-2.1846,-2.1685,-2.162,-2.1739,-1.7908,-1.787,-1.787,-1.787,-1.7861,-1.7823,-1.752,-1.7038,-1.6868,-1.7067,-1.7321,-1.7418,-1.7834,-1.8425,-1.8425,-1.8736,-1.9079,-1.9079,-1.9101,-1.9009,-1.8664,-1.8207,-1.7915,-1.7467,-1.7185,-1.6911,-1.714,-1.7254,-1.7264,-1.7322,-1.7511,-1.7672,-1.7253,-1.6957,-1.6933,0.0,0.0,0.0,-1.6202,-1.6235,-1.6105,-1.6235,-1.6235,-1.6097,-1.5886,0.0,-1.552,-1.4829,-1.4423,-1.4119,-1.4034,0.0,0.0,0.0,0.0,0.0,0.0,0.0,0.0,0.0,0.0,0.0,-1.3027,-1.2994,-1.2718,-1.3511,-1.4253,-1.4702,-1.518,-1.5498,-1.5498,-1.5678,-1.5876,-1.6046,-1.6282,-1.649,-1.667,-1.7202,-1.7732,-1.7937,-1.8612,-1.9058,-1.961,-1.9896,-2.0303,-2.1063,-2.1431,-2.1673,-2.2191,-2.2234,-2.2352,-2.2579,-2.2762,-2.2988,-2.3235,-2.3095,-2.2977,-2.2945,-2.2783,-2.2632,-2.26,-2.2579,-2.2535,-2.2525,-2.2395,-2.2266,-2.2266,-2.2105,-2.1997,-2.1976,-2.1986,-2.1965,-2.1933,-2.1911,-2.1922,-1.8295,0.0,-1.8201,-1.8135,0.0,-1.805,-1.787,-1.7558,-1.735,-1.735,-1.7404,-1.7852,-1.815,-1.8597,-1.9043,-1.934,-1.9499,-1.9499,-1.9499,-1.9488,-1.878,-1.8285,-1.8138,-1.7694,-1.7398,-1.726,-1.7461,-1.7615,-1.7721,-1.7674,-1.7681,-1.7879,-1.7353,-1.7031,-1.7056,-1.6512,-1.6114,-1.6048,-1.6219,-1.6259,-1.6178,-1.6259,-1.6259,-1.617,0.0,0.0,0.0,0.0,0.0,0.0,0.0,0.0,0.0,0.0,0.0,-1.4156,-1.3823,-1.3628,-1.3628,-1.3547,-1.3498,-1.3498,-1.366,-1.3719,-1.3402,-1.4078,-1.4591,-1.501,-1.5503,-1.5753,-1.5857,-1.6046,-1.6254,-1.6471,-1.667,-1.684,-1.6963,-1.7378,-1.776,-1.8192,-1.8631,-1.9115,-1.9755,-1.9988,-2.0271,-2.0919,-2.1166,-2.1532,-2.1968,-2.2332,-2.2589,-2.2826,-2.3063,-2.3257,-2.3354,-2.3311,-2.3171,-2.3063,-2.2945,-2.2826,-2.2697,-2.2686,-2.2686,-2.2675,-2.2579,-2.2503,-2.2492,-2.2406,-2.232,-2.232,-2.232,-2.232,-2.232,-2.2234,-2.2191,-1.8569,-1.8409,-1.8409,-1.8314,-1.8163,-1.8154,-1.8135,-1.8087,0.0,0.0,0.0,-1.8306,-1.8591,-1.8704,-1.9453,-1.9887,-1.9844,-1.9844,-1.9844,-1.9833,-1.8891,-1.838,-1.841,-1.797,-1.7849,-1.7747,-1.7912,-1.8087,-1.8251,-1.7941,-1.7889,-1.7938,-1.7306,-1.6921,-1.6794,-1.6328,-1.6089,-1.6097,-1.6259,-1.6349,-1.6349,-1.6357,-1.6341,-1.63,-1.5991,-1.5804,-1.5772,-1.5488,-1.5317,-1.5285,-1.4976,-1.4797,-1.4797,-1.4603,-1.4481,-1.4473,-1.4318,-1.4221,-1.4221,-1.4083,-1.3993,-1.3993,-1.4131,-1.4162,-1.4102,-1.451,-1.4943,-1.522,-1.5784,-1.6103,-1.6273,-1.6434,-1.6623,-1.684,-1.7038,-1.7171,-1.7227,-1.7549,-1.795,-1.8348,-1.8659,-1.914,-1.9662,-1.9931,-2.0376,-2.0707,-2.0838,-2.111,-2.1822,-2.2394,-2.2858,-2.3149,-2.3354,-2.3472,-2.3515,-2.3483,-2.3386,-2.3246,-2.316,-2.302,-2.2826,-2.2751,-2.2729,-2.2686,-2.2686,-2.2675,-2.2675,-2.2654,-2.2686,-2.2686,-2.2686,-2.2686,-2.2665,-2.2535,-2.246,-1.8664,-1.8636,-1.8636,-1.8617,-1.8588,-1.8588,-1.8484,-1.8295,-1.8097,-1.7983,-1.7965,-1.8426,-1.8797,-1.8916,-1.9378,-1.9732,-1.9844,-1.9844,-1.9844,0.0,-1.9359,-1.8998,-1.8876,-1.8424,-1.8058,-1.7908,-1.7946,-1.7974,-1.8002,-1.8002,-1.8106,-1.8286,-1.7369,-1.6657,-1.6172,-1.6178,-1.6267,-1.6267,-1.6446,-1.6544,-1.6544,-1.6544,-1.6462,-1.6308,-1.6113,-1.5934,-1.578,-1.5723,-1.5626,-1.548,-1.5277,-1.5163,-1.5155,-1.4854,-1.4667,-1.4659,-1.4497,-1.4391,-1.4399,-1.4367,-1.4359,-1.4359,-1.4383,-1.4595,-1.5102,-1.5369,-1.5757,-1.6477,-1.6623,-1.6679,-1.6717,-1.6745,-1.6849,-1.7048,-1.7256,-1.7445,-1.7605,-1.7851,-1.8068,-1.8398,-1.8636,-1.8875,-1.9269,-1.9596,-1.9836,-2.0294,-2.0623,-2.0985,-2.206,-2.2638,-2.3181,-2.3537,-2.3677,-2.3784,-2.3892,-2.3828,-2.3688,-2.3666,-2.3461,-2.3268,-2.3042,-2.2998,-2.2934,-2.274,-2.274,-2.2729,-2.2718,-2.2686,-2.2729,-2.274,-2.274,-2.2729,-2.274,-2.2686,-2.2665,-1.9014,-1.9014,-1.9014,-1.9014,-1.9014,-1.9014,-1.8891,-1.8692,-1.8588,-1.8361,-1.8059,-1.8513,-1.8769,-1.9149,-1.9616,-1.9874,-2.0231,-2.0231,-2.0242,-2.0231,-1.9615,-1.9202,-1.8983,-1.8368,-1.8112,-1.804,-1.805,-1.8106,-1.821,-1.821,-1.8154,-1.8188,-1.7214,-1.6664,-1.6178,-1.6259,-1.6397,-1.66,-1.6584,-1.6584,-1.6584,-1.6584,-1.6495,-1.6308,-1.6219,-1.6105,-1.5926,-1.5829,-1.574,-1.5658,-1.5488,-1.539,-1.5382,-1.5236,-1.5147,-1.5139,-1.4976,-1.4871,-1.4871,-1.4773,-1.4724,-1.4724,-1.4724,-1.4993,-1.5817,-1.5694,-1.5928,-1.6655,-1.6802,-1.6849,-1.6953,-1.7076,-1.7218,-1.7416,-1.7634,-1.7804,-1.7908,-1.8087,-1.8295,-1.8503,-1.8711,-1.8957,-1.9278,-1.9477,-1.9656,-2.0106,-2.0472,-2.1077,-2.175,-2.2526,-2.3136,-2.3709,-2.386,-2.3978,-2.4086,-2.4032,-2.3903,-2.3774,-2.3655,-2.3494,-2.33,-2.3235,-2.3192,-2.3106,-2.3063,-2.3074,-2.3063,-2.3074,-2.3074,-2.3074,-2.3074,-2.3074,-2.3074,-2.3074,-2.3031,-1.9297,-1.9297,-1.9297,-1.9297,-1.9297,-1.9297,-1.9203,-1.9051,-1.9042,-1.8777,-1.8352,-1.8707,-1.8947,-1.9213,-1.9696,-2.0137,-2.0409,-2.0565,-2.0565,-2.0398,-1.9614,-1.932,-1.9213,-1.8433,-1.8144,-1.8191,-1.8191,-1.8276,-1.8418,-1.8465,-1.8272,-1.7955,-1.7147,-1.6726,-1.6357,-1.6405,-1.6568,-1.6828,-1.6755,-1.6698,-1.6698,-1.6665,-1.6568,-1.6438,-1.6389,-1.6284,-1.6113,-1.5967,-1.5878,-1.5829,-1.5666,-1.5569,-1.5577,-1.5536,-1.5512,-1.5504,-1.5382,-1.5301,-1.5293,-1.5171,-1.509,-1.509,-1.509,-1.5399,-1.6155,-1.6063,-1.6169,-1.688,-1.7086,-1.7171,-1.7322,-1.7464,-1.7634,-1.7785,-1.7993,-1.8106,-1.8135,-1.8343,-1.855,-1.8739,-1.8966,-1.925,-1.9505,-1.9637,-1.976,-1.9959,-2.0548,-2.1035,-2.1507,-2.2333,-2.3101,-2.3497,-2.3989,-2.4097,-2.4118,-2.4107,-2.4032,-2.3849,-2.3828,-2.372,-2.3558,-2.3472,-2.344,-2.3386,-2.3375,-2.3354,-2.3386,-2.3386,-2.3365,-2.3354,-2.3343,-2.3365,-2.3354,-2.3418,-2.3386,-1.9306,-1.9297,-1.9316,-1.9297,-1.9316,-1.9306,-1.9297,-1.9269,-1.9269,-1.924,-1.9108,-1.927,-1.916,-1.9144,-1.9943,-2.0147,-1.997,-2.0409,-2.0419,-1.9949,-1.9457,-1.9253,-1.8964,-1.8654,-1.8428,-1.8579,-1.8598,-1.8598,-1.8654,-1.8825,-1.8523,-1.7864,-1.7366,-1.7027,-1.6568,-1.6714,-1.682,-1.6852,-1.699,-1.7063,-1.7047,-1.6909,-1.682,-1.6803,-1.6641,-1.6462,-1.6292,-1.6259,-1.6178,-1.6024,-1.5845,-1.5748,-1.574,-1.561,-1.552,-1.5528,-1.5504,-1.5488,-1.5488,-1.5472,-1.5447,-1.5463,-1.5447,-1.5764,-1.6555,-1.6687,-1.6903,-1.7545,-1.7804,-1.7879,-1.7955,-1.7965,-1.7983,-1.8012,-1.8201,-1.8324,-1.838,-1.8673,-1.8928,-1.8938,-1.9278,-1.9552,-1.9618,-1.977,-1.9968,-2.0166,-2.0497,-2.0934,-2.1413,-2.2109,-2.276,-2.3321,-2.374,-2.4118,-2.4118,-2.4118,-2.4086,-2.4064,-2.4075,-2.3957,-2.3784,-2.3709,-2.3666,-2.3569,-2.3461,-2.3472,-2.3451,-2.3408,-2.3429,-2.3504,-2.3483,-2.3429,-2.3429,-2.358,-2.3612,-1.9666,-1.9666,-1.9666,-1.9666,-1.9666,-1.9666,-1.959,-1.9477,-1.9477,-1.941,-1.9288,-1.9275,-1.9327,-1.9561,-1.9761,-1.9978,-2.022,-2.0237,-2.0175,-1.9855,-1.9534,-1.9262,-1.9179,-1.8703,-1.8598,-1.8664,-1.8673,-1.8739,-1.8872,-1.856,-1.8193,-1.7756,-1.7256,-1.6804,-1.6738,-1.682,-1.6901,-1.7006,-1.7071,-1.7112,-1.7104,-1.7039,-1.6958,-1.686,-1.6779,-1.6657,-1.6479,-1.6365,-1.6267,-1.6194,-1.6024,-1.5934,-1.5934,-1.5869,-1.5829,-1.5821,-1.5723,-1.5626,-1.552,-1.5512,-1.5512,-1.5512,-1.5512,-1.583,-1.6633,-1.688,-1.7226,-1.7957,-1.8068,-1.805,-1.8059,-1.8154,-1.8229,-1.8258,-1.8418,-1.8588,-1.8711,-1.8872,-1.9051,-1.9297,-1.9486,-1.9656,-1.9779,-1.9968,-2.0176,-2.0384,-2.0677,-2.1058,-2.1375,-2.185,-2.2258,-2.2841,-2.3477,-2.3868,-2.3977,-2.4118,-2.4129,-2.4118,-2.4118,-2.4043,-2.4011,-2.3967,-2.3924,-2.3817,-2.3795,-2.3795,-2.3849,-2.3828,-2.3817,-2.3806,-2.3817,-2.3817,-2.3817,-2.3892,-2.3903,-1.9968,-1.9921,-1.9921,-1.9921,-1.9921,-1.9921,-1.9836,-1.9694,-1.9684,-1.9609,-1.9477,-1.9467,-1.9637,-1.9929,-1.9677,-1.9894,-2.0206,-2.022,-2.0149,-1.9985,-1.9657,-1.9328,-1.9338,-1.9008,-1.8843,-1.8843,-1.8853,-1.8957,-1.8978,-1.8443,-1.804,-1.7913,-1.7237,-1.6787,-1.6909,-1.6925,-1.6982,-1.7096,-1.7112,-1.7112,-1.7112,-1.7112,-1.7047,-1.6942,-1.6925,-1.6836,-1.6657,-1.6527,-1.643,-1.6381,-1.6259,-1.617,-1.6121,-1.6113,-1.6097,-1.604,-1.5918,-1.5796,-1.5666,-1.5658,-1.5658,-1.5666,-1.5658,-1.598,-1.6808,-1.7065,-1.762,-1.8266,-1.8305,-1.8239,-1.8239,-1.8352,-1.8456,-1.8522,-1.8673,-1.8843,-1.9023,-1.9099,-1.9269,-1.9543,-1.9647,-1.977,-1.9977,-2.0176,-2.0393,-2.0601,-2.08,-2.097,-2.114,-2.1577,-2.2182,-2.2552,-2.3282,-2.3883,-2.4084,-2.4312,-2.429,-2.428,-2.4301,-2.4237,-2.4194,-2.4172,-2.4107,-2.3978,-2.4086,-2.4097,-2.4021,-2.4064,-2.4097,-2.4107,-2.4107,-2.4086,-2.4054,-2.4107,-2.4107,-2.0091,-1.993,-1.9921,-1.9921,-1.9921,-1.9921,-1.9911,-1.9883,-1.9892,-1.9892,-1.9864,-1.9873,-1.9883,-1.9836,-1.9798,-1.9952,-1.9942,-2.0249,-2.0229,-1.9893,-1.9903,-1.9586,-1.9269,-1.9269,-1.9259,-1.9212,-1.9212,-1.9325,-1.9533,-1.8714,-1.8304,-1.8296,-1.758,-1.7071,-1.7088,-1.708,-1.7104,-1.7112,-1.7112,-1.7112,-1.7112,-1.7112,-1.7104,-1.7088,-1.7096,-1.7006,-1.686,-1.6828,-1.6747,-1.6568,-1.6544,-1.6462,-1.6316,-1.6292,-1.6227,-1.6089,-1.6048,-1.604,-1.6024,-1.6024,-1.6016,-1.6016,-1.5999,-1.6336,-1.7121,-1.7328,-1.7837,-1.8664,-1.8654,-1.8654,-1.8645,-1.8645,-1.873,-1.8881,-1.8938,-1.9061,-1.9259,-1.942,-1.9552,-1.9637,-1.9788,-1.9968,-2.0176,-2.0393,-2.0592,-2.079,-2.1007,-2.1159,-2.1206,-2.1711,-2.2162,-2.2428,-2.3102,-2.4135,-2.4341,-2.4538,-2.4678,-2.4657,-2.4506,-2.4441,-2.4366,-2.429,-2.4204,-2.4129,-2.4118,-2.4118,-2.4118,-2.4118,-2.4107,-2.4118,-2.4118,-2.4118,-2.4118,-2.4118,-2.4118,-2.0308,-2.01,-1.9968,-1.9921,-1.9921,-1.9921,-1.9921,-1.9921,-1.9921,-1.9921,-1.9921,-1.9921,-1.9921,-1.9911,-1.9933,-1.979,-1.9656,-1.9692,-1.9625,-1.9466,-1.9466,-1.9466,-1.9297,-1.9297,-1.9297,-1.9297,-1.9297,-1.9231,-1.9084,-1.8694,-1.827,-1.7981,-1.7463,-1.7112,-1.7112,-1.7112,-1.7112,-1.7112,-1.7112,-1.7112,-1.7112,-1.7112,-1.7112,-1.7112,-1.7112,-1.708,-1.7023,-1.6909,-1.682,-1.6755,-1.6641,-1.6552,-1.6487,-1.6479,-1.6454,-1.6397,-1.6389,-1.6389,-1.6389,-1.6389,-1.6332,-1.6227,-1.6211,-1.6493,-1.7251,-1.7469,-1.787,-1.8725,-1.9004,-1.907,-1.9042,-1.8957,-1.89,-1.8976,-1.9099,-1.9259,-1.9439,-1.9552,-1.9647,-1.9798,-1.9987,-2.0148,-2.027,-2.0516,-2.0752,-2.0847,-2.1036,-2.1206,-2.1338,-2.162,-2.1894,-2.2427,-2.2974,-2.3486,-2.4377,-2.4629,-2.4797,-2.4786,-2.4721,-2.4689,-2.4635,-2.4474,-2.4377,-2.4334,-2.428,-2.4204,-2.4226,-2.4215,-2.4204,-2.4151,-2.4151,-2.4161,-2.4118,-2.4118,-2.4118,-2.0459,-2.0308,-2.01,-2.0015,-2.0006,-1.994,-1.9921,-1.9921,-1.9921,-1.9921,-1.9921,-1.9921,-1.9921,-1.9921,-1.9921,-1.9845,-1.9694,-1.9562,-1.9505,-1.9495,-1.9505,-1.9505,-1.9495,-1.9495,-1.9495,-1.9495,-1.9495,-1.9409,-1.9004,-1.8627,-1.8339,-1.7822,-1.7288,-1.7112,-1.7112,-1.7112,-1.7112,-1.7112,-1.7112,-1.7112,-1.7112,-1.7112,-1.7145,-1.7193,-1.7201,-1.7169,-1.7112,-1.6998,-1.6933,-1.6917,-1.6812,-1.6722,-1.6674,-1.6609,-1.6584,-1.6584,-1.6576,-1.6584,-1.6584,-1.6584,-1.6519,-1.6405,-1.6389,-1.6668,-1.7408,-1.7662,-1.8226,-1.895,-1.9193,-1.9297,-1.9288,-1.9221,-1.9174,-1.9193,-1.9306,-1.9477,-1.9666,-1.9703,-1.9807,-1.9987,-2.0119,-2.0261,-2.0422,-2.0667,-2.0847,-2.0932,-2.1083,-2.1244,-2.1414,-2.1546,-2.1839,-2.2231,-2.2828,-2.3322,-2.3891,-2.4204,-2.4737,-2.4907,-2.4958,-2.4937,-2.4872,-2.47,-2.4581,-2.4549,-2.4474,-2.4377,-2.4334,-2.4334,-2.4301,-2.4247,-2.4247,-2.4269,-2.4204,-2.4118,-2.4172,-2.0554,-2.0516,-2.0308,-2.0223,-2.0195,-2.0053,-1.9949,-1.9968,-1.9968,-1.9977,-1.9968,-1.994,-1.994,-1.9921,-1.9921,-1.9911,-1.9892,-1.9855,-1.9855,-1.9855,-1.9873,-1.9873,-1.9864,-1.9855,-1.9855,-1.9681,-1.9892,-1.9544,-1.9012,-1.8681,-1.8164,-1.7822,-1.7312,-1.7145,-1.712,-1.7153,-1.7145,-1.7161,-1.7169,-1.7153,-1.712,-1.7153,-1.7234,-1.7372,-1.7388,-1.7315,-1.7153,-1.7136,-1.7136,-1.7128,-1.7112,-1.7031,-1.686,-1.6714,-1.6609,-1.6633,-1.6609,-1.66,-1.6609,-1.6625,-1.6633,-1.6576,-1.6576,-1.6908,-1.7704,-1.7908,-1.8282,-1.9137,-1.9335,-1.9344,-1.9382,-1.9477,-1.9552,-1.959,-1.9581,-1.9684,-1.9836,-1.9911,-1.9996,-2.0176,-2.027,-2.0412,-2.0705,-2.0856,-2.096,-2.1121,-2.1196,-2.131,-2.1527,-2.1697,-2.1867,-2.2249,-2.2606,-2.3082,-2.3326,-2.3756,-2.4525,-2.5076,-2.5089,-2.4971,-2.5109,-2.498,-2.485,-2.4786,-2.47,-2.4603,-2.4581,-2.4581,-2.4549,-2.4506,-2.4474,-2.442,-2.4377,-2.4334,-2.4344,-2.0752,-2.0724,-2.0526,-2.044,-2.044,-2.0374,-2.0346,-2.0346,-2.0346,-2.027,-2.0148,-2.0129,-2.0053,-1.994,-1.9921,-1.9921,-1.9921,-1.9921,-1.9921,-1.9921,-1.9921,-1.9921,-1.9921,-1.9921,-1.9746,-1.9388,-1.9388,-1.9039,-1.8348,-1.8182,-1.7814,-1.7312,-1.725,-1.7299,-1.7307,-1.7413,-1.7478,-1.7478,-1.7478,-1.7478,-1.7478,-1.7469,-1.7502,-1.7551,-1.7559,-1.7526,-1.7486,-1.7478,-1.7478,-1.7469,-1.7364,-1.7218,-1.7063,-1.6974,-1.695,-1.6942,-1.695,-1.695,-1.6942,-1.6942,-1.6885,-1.6795,-1.6771,-1.704,-1.7809,-1.8058,-1.847,-1.9353,-1.9628,-1.9722,-1.9741,-1.977,-1.976,-1.9618,-1.9732,-1.9836,-1.993,-2.0053,-2.0214,-2.0412,-2.0563,-2.0705,-2.0828,-2.0941,-2.113,-2.1319,-2.1367,-2.1471,-2.1801,-2.1915,-2.2075,-2.2264,-2.2554,-2.2788,-2.318,-2.3375,-2.3756,-2.4546,-2.4636,-2.4949,-2.5099,-2.5035,-2.5109,-2.5023,-2.4926,-2.4883,-2.4861,-2.484,-2.4629,-2.4764,-2.471,-2.4657,-2.4603,-2.4581,-2.457,-2.096,-2.0941,-2.0743,-2.0648,-2.0639,-2.0582,-2.0544,-2.0544,-2.0544,-2.0469,-2.0355,-2.0337,-2.027,-2.0148,-2.0072,-2.0034,-2.0025,-1.9959,-1.9921,-1.9921,-1.9921,-1.9921,-1.9921,-1.9737,-1.9563,-1.9223,-1.9111,-1.862,-1.7924,-1.7992,-1.767,-1.7339,-1.7429,-1.7486,-1.7486,-1.7583,-1.764,-1.764,-1.764,-1.764,-1.764,-1.764,-1.7491,-1.7547,-1.7373,-1.7413,-1.7461,-1.7477,-1.7596,-1.7656,-1.7534,-1.7421,-1.7315,-1.7307,-1.7307,-1.7307,-1.7307,-1.7307,-1.7299,-1.7242,-1.7177,-1.7063,-1.699,-1.7256,-1.8026,-1.8277,-1.8667,-1.9568,-1.9826,-1.9921,-1.9921,-1.9996,-1.9959,-1.9845,-1.9873,-1.9959,-2.0025,-2.0214,-2.0422,-2.0611,-2.0752,-2.0866,-2.0979,-2.1064,-2.1253,-2.1414,-2.1471,-2.1622,-2.1952,-2.2075,-2.2208,-2.2321,-2.2378,-2.2583,-2.2788,-2.2974,-2.317,-2.3561,-2.4136,-2.4494,-2.4851,-2.5002,-2.4907,-2.5089,-2.5025,-2.4822,-2.4801,-2.4769,-2.4748,-2.4854,-2.4736,-2.4861,-2.4797,-2.4743,-2.4743,-2.1168,-2.1149,-2.0941,-2.0856,-2.0837,-2.0686,-2.0629,-2.0601,-2.0601,-2.0601,-2.0563,-2.0554,-2.0535,-2.0488,-2.0308,-2.0233,-2.0204,-2.0044,-1.9968,-1.9968,-1.9968,-1.9968,-1.9793,-1.9443,-1.9277,-1.8972,-1.892,-1.8458,-1.7932,-1.8066,-1.801,-1.7599,-1.7624,-1.7656,-1.7672,-1.7664,-1.7713,-1.7729,-1.7705,-1.7531,-1.7531,-1.7515,-1.7397,-1.718,-1.7188,-1.725,-1.7359,-1.7561,-1.762,-1.7531,-1.7664,-1.764,-1.7632,-1.764,-1.7599,-1.7591,-1.7632,-1.7607,-1.7591,-1.7469,-1.7396,-1.7364,-1.7242,-1.7496,-1.8383,-1.8567,-1.8936,-1.9812,-2.0006,-1.9996,-2.0034,-2.0138,-2.0214,-2.0214,-2.011,-2.011,-2.0242,-2.045,-2.0639,-2.08,-2.0875,-2.0932,-2.1121,-2.1178,-2.131,-2.1461,-2.1546,-2.1782,-2.2009,-2.2179,-2.2217,-2.2293,-2.2378,-2.2387,-2.2583,-2.2583,-2.2779,-2.2974,-2.3561,-2.3951,-2.4535,-2.4699,-2.4678,-2.4872,-2.4872,-2.4688,-2.4688,-2.4605,-2.4552,-2.4661,-2.4758,-2.4864,-2.5012,-2.5001,-2.5001,-2.1168,-2.1159,-2.1111,-2.1083,-2.1074,-2.1017,-2.0998,-2.1007,-2.0998,-2.0894,-2.08,-2.0762,-2.0686,-2.0544,-2.0497,-2.0459,-2.0403,-2.0242,-2.0138,-2.0138,-2.0138,-1.9962,-1.9618,-1.9442,-1.9151,-1.8561,-1.8433,-1.8116,-1.7755,-1.7821,-1.7846,-1.7648,-1.7786,-1.7843,-1.7859,-1.7957,-1.803,-1.8038,-1.766,-1.7474,-1.7466,-1.7096,-1.6941,-1.6785,-1.6793,-1.7002,-1.7429,-1.7803,-1.7893,-1.7875,-1.7843,-1.7778,-1.7681,-1.7664,-1.7672,-1.7672,-1.7664,-1.7648,-1.7648,-1.7607,-1.7583,-1.7575,-1.751,-1.7861,-1.8757,-1.8936,-1.9482,-2.0018,-2.0374,-2.0365,-2.0384,-2.0422,-2.045,-2.045,-2.0412,-2.045,-2.0611,-2.0724,-2.0847,-2.1036,-2.1074,-2.1121,-2.1187,-2.1319,-2.1471,-2.1669,-2.182,-2.1971,-2.2179,-2.2274,-2.2312,-2.233,-2.2387,-2.2387,-2.2387,-2.2387,-2.2387,-2.2583,-2.2779,-2.317,-2.3756,-2.4146,-2.4136,-2.433,-2.432,-2.4136,-2.4146,-2.4115,-2.4269,-2.4411,-2.4584,-2.4714,-2.5153,-2.5356,-2.5335,-2.1168,-2.1168,-2.1168,-2.1168,-2.1168,-2.1168,-2.1168,-2.1168,-2.1168,-2.1102,-2.0998,-2.0979,-2.0913,-2.0809,-2.0715,-2.0667,-2.0639,-2.045,-2.0355,-2.0355,-2.0355,-1.9999,-1.9642,-1.9464,-1.8989,-1.8372,-1.8093,-1.7936,-1.7778,-1.7827,-1.7859,-1.7892,-1.7973,-1.8022,-1.803,-1.8111,-1.8176,-1.8168,-1.7616,-1.7437,-1.7437,-1.6868,-1.6494,-1.6494,-1.6306,-1.6494,-1.7055,-1.7803,-1.8127,-1.8046,-1.8022,-1.7973,-1.7884,-1.7867,-1.7867,-1.7867,-1.7867,-1.7875,-1.7851,-1.7811,-1.7762,-1.7737,-1.7697,-1.8191,-1.8905,-1.9094,-1.9455,-2.0346,-2.0544,-2.0544,-2.0554,-2.0611,-2.0705,-2.079,-2.0809,-2.0818,-2.0856,-2.0913,-2.1026,-2.1149,-2.1244,-2.1291,-2.13,-2.148,-2.1688,-2.1867,-2.199,-2.216,-2.2321,-2.2368,-2.2397,-2.2416,-2.2416,-2.2425,-2.2434,-2.2444,-2.2463,-2.2463,-2.2678,-2.2856,-2.3229,-2.3806,-2.3961,-2.3951,-2.3766,-2.3571,-2.3766,-2.3766,-2.3746,-2.392,-2.4146,-2.4546,-2.4935,-2.5129,-2.5129,-2.1168,-2.1168,-2.1168,-2.1168,-2.1168,-2.1168,-2.1168,-2.1168,-2.1168,-2.1168,-2.1149,-2.1159,-2.113,-2.1159,-2.0941,-2.0875,-2.0866,-2.0667,-2.0592,-2.0573,-2.0393,-2.0222,-1.9726,-1.9319,-1.8802,-1.8317,-1.8067,-1.7932,-1.7965,-1.8087,-1.8152,-1.8127,-1.8144,-1.8168,-1.8152,-1.8176,-1.8176,-1.8176,-1.7616,-1.7242,-1.7055,-1.6681,-1.6119,-1.5938,-1.6169,-1.6386,-1.6951,-1.7703,-1.8249,-1.8241,-1.82,-1.8152,-1.8152,-1.816,-1.816,-1.8135,-1.8119,-1.8127,-1.8135,-1.8005,-1.7949,-1.7924,-1.7802,-1.806,-1.9018,-1.9217,-1.958,-2.0505,-2.0611,-2.0667,-2.0686,-2.079,-2.0922,-2.1055,-2.113,-2.1064,-2.097,-2.1055,-2.1178,-2.1206,-2.1376,-2.1452,-2.1546,-2.1688,-2.1886,-2.1981,-2.2104,-2.2245,-2.2349,-2.2378,-2.2425,-2.2482,-2.2482,-2.2463,-2.2482,-2.251,-2.2538,-2.2567,-2.2595,-2.2793,-2.2952,-2.3513,-2.361,-2.3571,-2.317,-2.318,-2.318,-2.318,-2.3189,-2.3375,-2.3756,-2.4146,-2.4535,-2.4546,-2.474,-2.1168,-2.1168,-2.1168,-2.1168,-2.1168,-2.1168,-2.1168,-2.1168,-2.1168,-2.1168,-2.1168,-2.1168,-2.1168,-2.1168,-2.1111,-2.1102,-2.1055,-2.0875,-2.0771,-2.0771,-2.0235,-1.997,-1.9656,-1.9393,-1.8852,-1.8391,-1.8087,-1.8119,-1.8135,-1.8144,-1.8176,-1.8176,-1.8176,-1.8176,-1.8176,-1.8176,-1.8176,-1.7989,-1.7429,-1.6868,-1.6681,-1.6119,-1.5556,-1.5577,-1.6248,-1.6759,-1.7245,-1.8033,-1.8606,-1.8541,-1.8355,-1.8225,-1.8217,-1.8208,-1.8217,-1.8217,-1.82,-1.8192,-1.8176,-1.8168,-1.8119,-1.8111,-1.8079,-1.8433,-1.9367,-1.9525,-2.0087,-2.0842,-2.1036,-2.0998,-2.0989,-2.1055,-2.113,-2.1187,-2.1206,-2.1187,-2.1121,-2.1149,-2.1244,-2.1367,-2.1452,-2.1537,-2.1707,-2.1896,-2.2038,-2.2104,-2.2198,-2.2321,-2.2368,-2.2397,-2.2482,-2.2567,-2.2642,-2.2652,-2.2708,-2.2727,-2.2756,-2.2756,-2.2765,-2.2803,-2.2974,-2.3048,-2.3159,-2.3062,-2.2583,-2.2612,-2.2913,-2.2856,-2.2885,-2.3033,-2.3415,-2.366,-2.4082,-2.4032,-2.4248,-2.0983,-2.1168,-2.1168,-2.1168,-2.1168,-2.1168,-2.1168,-2.1168,-2.1168,-2.1168,-2.1168,-2.1168,-2.1168,-2.1168,-2.1168,-2.1168,-2.1149,-2.1064,-2.0805,-2.0621,-2.0253,-1.9939,-1.9454,-1.9225,-1.8845,-1.8176,-1.8176,-1.8176,-1.8176,-1.8176,-1.8176,-1.8176,-1.8176,-1.8176,-1.8176,-1.8176,-1.8176,-1.7989,-1.7429,-1.7055,-1.6868,-1.6306,-1.5981,-1.6248,-1.6957,-1.7482,-1.7735,-1.8336,-1.872,-1.868,-1.8541,-1.8436,-1.8428,-1.8436,-1.8428,-1.8436,-1.8436,-1.8436,-1.8436,-1.8428,-1.8395,-1.8306,-1.8306,-1.8811,-1.9515,-1.9674,-2.0232,-2.0983,-2.1159,-2.1168,-2.1178,-2.1282,-2.13,-2.1329,-2.1395,-2.1452,-2.1442,-2.1376,-2.1338,-2.1489,-2.1461,-2.141,-2.1568,-2.1717,-2.18,-2.1865,-2.2264,-2.2378,-2.2434,-2.2472,-2.2586,-2.268,-2.2794,-2.2869,-2.2935,-2.2983,-2.3011,-2.3001,-2.2992,-2.3049,-2.3077,-2.2907,-2.2727,-2.2661,-2.2623,-2.269,-2.2765,-2.268,-2.2642,-2.2917,-2.3135,-2.3493,-2.3681,-2.3919,-2.4147,-2.0603,-2.0983,-2.0983,-2.0983,-2.0983,-2.0983,-2.0983,-2.0983,-2.0983,-2.0983,-2.1168,-2.1168,-2.1168,-2.1168,-2.1168,-2.1168,-2.0973,-2.0973,-2.0751,-2.0196,-2.0001,-1.9648,-1.9108,-1.8727,-1.8532,-1.8176,-1.8176,-1.8176,-1.8176,-1.8176,-1.8176,-1.8176,-1.8176,-1.8176,-1.8176,-1.8176,-1.8176,-1.8176,-1.7616,-1.7281,-1.7304,-1.6928,-1.6822,-1.7024,-1.752,-1.8021,-1.8068,-1.8463,-1.8834,-1.8809,-1.8809,-1.8809,-1.8793,-1.8736,-1.8728,-1.8712,-1.868,-1.8663,-1.8655,-1.868,-1.8631,-1.8501,-1.8493,-1.8806,-1.9458,-1.9815,-2.0385,-2.0937,-2.1319,-2.1319,-2.1282,-2.1414,-2.1508,-2.1546,-2.1688,-2.1773,-2.1763,-2.1641,-2.1622,-2.1442,-2.1438,-2.1413,-2.1347,-2.1289,-2.1548,-2.1612,-2.2004,-2.2425,-2.2482,-2.2576,-2.2708,-2.2879,-2.3011,-2.3143,-2.3219,-2.3238,-2.3266,-2.3247,-2.3228,-2.3266,-2.3342,-2.3247,-2.3086,-2.2954,-2.2935,-2.2964,-2.2954,-2.2888,-2.2897,-2.3001,-2.3174,-2.3279,-2.3508,-2.3605,-2.4006,-1.986,-1.986,-1.986,-1.986,-2.0046,-2.0046,-2.0046,-2.0046,-2.0417,-2.0594,-2.0594,-2.0983,-2.1168,-2.1168,-2.1168,-2.0973,-2.0603,-2.0603,-2.0232,-1.986,-1.948,-1.9116,-1.893,-1.8549,-1.8363,-1.8176,-1.8176,-1.8176,-1.8176,-1.8176,-1.8176,-1.8176,-1.8176,-1.8176,-1.8192,-1.8184,-1.8217,-1.8249,-1.7874,-1.7538,-1.7616,-1.7299,-1.7222,-1.7456,-1.7928,-1.8216,-1.8521,-1.8954,-1.9167,-1.9175,-1.9175,-1.9159,-1.9086,-1.8891,-1.8785,-1.8777,-1.8777,-1.8793,-1.8785,-1.8753,-1.872,-1.8688,-1.868,-1.8863,-1.9387,-1.9941,-2.0268,-2.0864,-2.1442,-2.1669,-2.1688,-2.1707,-2.1726,-2.1754,-2.1792,-2.1839,-2.1849,-2.1896,-2.176,-2.1385,-2.1293,-2.118,-2.0889,-2.0969,-2.0996,-2.1237,-2.1657,-2.2125,-2.2407,-2.2528,-2.2879,-2.3068,-2.3266,-2.3398,-2.3521,-2.3521,-2.3521,-2.3493,-2.3474,-2.3474,-2.3531,-2.3559,-2.3474,-2.3257,-2.3124,-2.3086,-2.3068,-2.3077,-2.3096,-2.3162,-2.3096,-2.3039,-2.3317,-2.3586,-2.3327,-1.9488,-1.9674,-1.9674,-1.9674,-1.9674,-1.9674,-1.9674,-1.9666,-1.986,-2.0046,-2.0046,-2.0232,-2.0417,-2.0417,-2.0417,-2.0232,-2.0046,-2.0037,-1.9674,-1.9302,-1.9116,-1.8744,-1.8557,-1.8363,-1.8176,-1.8176,-1.8176,-1.8184,-1.8176,-1.8176,-1.8192,-1.8176,-1.8176,-1.8217,-1.8298,-1.833,-1.8371,-1.842,-1.8271,-1.8113,-1.8208,-1.808,-1.8068,-1.8356,-1.849,-1.8773,-1.9026,-1.9058,-1.9256,-1.9256,-1.9256,-1.9264,-1.9207,-1.9118,-1.8996,-1.8988,-1.8988,-1.8996,-1.8996,-1.8996,-1.8972,-1.8874,-1.8858,-1.9002,-1.9321,-1.9854,-2.0263,-2.0828,-2.1401,-2.1792,-2.1773,-2.1886,-2.1943,-2.1962,-2.2019,-2.2075,-2.2113,-2.1995,-2.1624,-2.1058,-2.1085,-2.0729,-2.038,-2.0423,-2.0432,-2.0861,-2.1308,-2.1812,-2.2339,-2.2697,-2.2866,-2.3219,-2.3398,-2.3493,-2.3606,-2.3616,-2.3635,-2.3635,-2.3635,-2.3635,-2.3625,-2.3625,-2.3578,-2.3446,-2.3342,-2.3257,-2.3342,-2.3389,-2.3351,-2.3313,-2.3332,-2.3342,-2.3342,-2.3342,-2.3285,-1.893,-1.9488,-1.948,-1.9294,-1.9488,-1.9294,-1.9294,-1.948,-1.9488,-1.9488,-1.9488,-1.9674,-1.986,-1.9674,-1.9674,-1.9674,-1.9488,-1.9488,-1.9302,-1.893,-1.8744,-1.8549,-1.8363,-1.8184,-1.82,-1.8265,-1.8257,-1.8225,-1.8257,-1.8257,-1.8257,-1.8322,-1.8306,-1.8347,-1.8485,-1.8509,-1.8615,-1.8671,-1.8728,-1.8728,-1.8809,-1.8939,-1.9037,-1.9045,-1.9183,-1.9248,-1.9256,-1.9256,-1.9264,-1.9264,-1.9264,-1.9264,-1.9264,-1.9264,-1.9256,-1.9264,-1.9264,-1.9264,-1.9248,-1.9232,-1.9151,-1.9053,-1.9037,-1.9158,-1.948,-1.9657,-2.0009,-2.0744,-2.1348,-2.176,-2.1798,-2.2066,-2.2141,-2.2179,-2.2274,-2.2378,-2.2144,-2.1762,-2.1361,-2.0987,-2.0826,-2.044,-2.0063,-1.9865,-2.0063,-2.0363,-2.082,-2.1595,-2.2132,-2.271,-2.2859,-2.3175,-2.3502,-2.3568,-2.3625,-2.3625,-2.3635,-2.3635,-2.3635,-2.3635,-2.3635,-2.3625,-2.3578,-2.355,-2.3559,-2.3502,-2.3606,-2.3635,-2.354,-2.3502,-2.3597,-2.3597,-2.3521,-2.3502,-2.3493,-1.8363,-1.8363,-1.8363,-1.8363,-1.8363,-1.8363,-1.8363,-1.8549,-1.893,-1.893,-1.9116,-1.9488,-1.9674,-1.9674,-1.9674,-1.9488,-1.9116,-1.893,-1.8752,-1.8395,-1.8395,-1.8404,-1.82,-1.8176,-1.8314,-1.8395,-1.842,-1.842,-1.8436,-1.8436,-1.8493,-1.859,-1.8598,-1.8671,-1.868,-1.8688,-1.8704,-1.8736,-1.8744,-1.8818,-1.8956,-1.9118,-1.9191,-1.9216,-1.924,-1.9264,-1.9264,-1.9264,-1.9264,-1.9264,-1.9264,-1.9264,-1.9264,-1.9264,-1.9264,-1.9264,-1.9264,-1.9264,-1.9264,-1.9256,-1.9256,-1.9199,-1.9199,-1.9207,-1.9339,-1.9715,-2.0107,-2.0755,-2.1316,-2.1484,-2.1661,-2.1921,-2.2154,-2.2144,-2.2163,-2.1995,-2.1799,-2.1415,-2.0826,-2.0492,-2.0312,-1.9907,-1.9519,-1.9503,-1.9511,-2.0016,-2.0551,-2.1335,-2.1908,-2.2469,-2.2998,-2.3306,-2.355,-2.3606,-2.3635,-2.3635,-2.3635,-2.3635,-2.3635,-2.3635,-2.3635,-2.3635,-2.3635,-2.3616,-2.3635,-2.3635,-2.3635,-2.3635,-2.3635,-2.3635,-2.3635,-2.3635,-2.3625,-2.3635,-2.3635,-1.8176,-1.8176,-1.8176,-1.8176,-1.8176,-1.8176,-1.8176,-1.8176,-1.8363,-1.8549,-1.8557,-1.8735,-1.8922,-1.8922,-1.8922,-1.8735,-1.8549,-1.8557,-1.8436,-1.8322,-1.8338,-1.8379,-1.8476,-1.8493,-1.855,-1.8574,-1.8623,-1.8688,-1.8688,-1.8655,-1.8663,-1.872,-1.8744,-1.8769,-1.8858,-1.8866,-1.8939,-1.9004,-1.9045,-1.9069,-1.9142,-1.9216,-1.9264,-1.9264,-1.9264,-1.9264,-1.9264,-1.9264,-1.9264,-1.9264,-1.9264,-1.9264,-1.9264,-1.9264,-1.9264,-1.9264,-1.9264,-1.9264,-1.9264,-1.9264,-1.9264,-1.9264,-1.9264,-1.9248,-1.9454,-1.9651,-2.0038,-2.0226,-2.0826,-2.1022,-2.121,-2.1415,-2.1415,-2.1612,-2.1612,-2.1415,-2.1219,-2.0834,-2.0458,-2.0131,-2.0008,-1.9651,-1.9475,-1.9484,-1.9725,-1.9831,-2.0359,-2.0909,-2.166,-2.2195,-2.2903,-2.3597,-2.3616,-2.3625,-2.3635,-2.3635,-2.3635,-2.3635,-2.3635,-2.3635,-2.3635,-2.3635,-2.3635,-2.3635,-2.3635,-2.3635,-2.3635,-2.3635,-2.3635,-2.3635,-2.3635,-2.3635,-2.3635,-2.3635,-2.3635,-1.8176,-1.8176,-1.8176,-1.8176,-1.8176,-1.8176,-1.8176,-1.8176,-1.8176,-1.8176,-1.8176,-1.8176,-1.8176,-1.8176,-1.8184,-1.8395,-1.8249,-1.8241,-1.8363,-1.8468,-1.8533,-1.859,-1.8647,-1.8704,-1.8728,-1.8793,-1.8785,-1.8874,-1.8956,-1.8948,-1.8883,-1.8858,-1.8915,-1.8948,-1.9021,-1.9061,-1.911,-1.9199,-1.9216,-1.9232,-1.9248,-1.9248,-1.9264,-1.9264,-1.9264,-1.9264,-1.9264,-1.9264,-1.9264,-1.9264,-1.9264,-1.9264,-1.9264,-1.9264,-1.9297,-1.9321,-1.9354,-1.9386,-1.937,-1.9354,-1.9281,-1.9264,-1.9264,-1.9264,-1.9256,-1.9651,-1.9849,-1.984,-2.0235,-2.0629,-2.0629,-2.0826,-2.1022,-2.1022,-2.1022,-2.0826,-2.0646,-2.0501,-2.0156,-1.9834,-1.9741,-1.9897,-1.9711,-1.9695,-1.9752,-1.9849,-2.0372,-2.0686,-2.1389,-2.2104,-2.2752,-2.3428,-2.3635,-2.3635,-2.3635,-2.3635,-2.3635,-2.3644,-2.3644,-2.3644,-2.3653,-2.3644,-2.3635,-2.3635,-2.3663,-2.3635,-2.3635,-2.3635,-2.3635,-2.3635,-2.3635,-2.3635,-2.3635,-2.3635,-2.3635,-1.8176,-1.8176,-1.8176,-1.8176,-1.8176,-1.8176,-1.8176,-1.8176,-1.8176,-1.8176,-1.8176,-1.8176,-1.8176,-1.8192,-1.8225,-1.8298,-1.8428,-1.8428,-1.855,-1.8655,-1.8712,-1.8736,-1.8793,-1.8818,-1.8842,-1.8948,-1.8964,-1.9069,-1.9183,-1.9167,-1.9175,-1.9216,-1.9134,-1.9191,-1.9216,-1.9199,-1.9207,-1.9264,-1.9264,-1.9264,-1.9264,-1.9264,-1.9264,-1.9264,-1.9264,-1.9264,-1.9264,-1.9264,-1.9289,-1.9289,-1.9297,-1.9329,-1.9354,-1.9345,-1.9402,-1.9475,-1.95,-1.9557,-1.9589,-1.9467,-1.9297,-1.9272,-1.9264,-1.9264,-1.9256,-1.9256,-1.9454,-1.9454,-1.9849,-2.0038,-2.0235,-2.0432,-2.0432,-2.0432,-2.044,-2.0277,-2.032,-2.0224,-2.0075,-1.9733,-1.967,-1.9841,-1.9963,-1.9946,-1.9946,-2.0044,-2.0266,-2.0571,-2.1458,-2.2365,-2.2788,-2.3428,-2.3635,-2.3635,-2.3635,-2.3635,-2.3635,-2.3663,-2.3691,-2.3682,-2.3682,-2.3672,-2.3776,-2.3757,-2.3805,-2.372,-2.3653,-2.3701,-2.372,-2.3653,-2.3635,-2.3635,-2.3635,-2.3635,-2.3635,-1.7616,-1.7242,-1.7616,-1.7989,-1.8176,-1.8176,-1.8176,-1.8176,-1.8176,-1.8176,-1.8184,-1.8184,-1.8241,-1.8322,-1.8355,-1.8444,-1.8598,-1.8623,-1.8736,-1.8834,-1.8891,-1.8948,-1.8996,-1.9045,-1.9102,-1.9134,-1.9151,-1.9167,-1.924,-1.9256,-1.9264,-1.9256,-1.9272,-1.9256,-1.9256,-1.9272,-1.9272,-1.9272,-1.9272,-1.9264,-1.9264,-1.9264,-1.9264,-1.9264,-1.9264,-1.9264,-1.9264,-1.9264,-1.9321,-1.9386,-1.941,-1.9467,-1.9532,-1.9549,-1.9597,-1.967,-1.9678,-1.9735,-1.9776,-1.9654,-1.9549,-1.9402,-1.9329,-1.9264,-1.9264,-1.9264,-1.9264,-1.9454,-1.9454,-1.9651,-1.9651,-1.9849,-1.9849,-1.984,-1.9865,-1.9916,-1.98,-1.9908,-2.0057,-1.9743,-1.9873,-2.0028,-2.0125,-2.0206,-2.0206,-2.0223,-2.0231,-2.0654,-2.1527,-2.2184,-2.2806,-2.3221,-2.3428,-2.3635,-2.3635,-2.3635,-2.3635,-2.3691,-2.3748,-2.3795,-2.3852,-2.4003,-2.4069,-2.4022,-2.3965,-2.3937,-2.3899,-2.3852,-2.3786,-2.3682,-2.3644,-2.3635,-2.3635,-2.3635,-2.3672,-1.7055,-1.6681,-1.7055,-1.7437,-1.7989,-1.8176,-1.8176,-1.8176,-1.8176,-1.8217,-1.8265,-1.8314,-1.8403,-1.8509,-1.8541,-1.8631,-1.8761,-1.8818,-1.8915,-1.9004,-1.9086,-1.9151,-1.9224,-1.9248,-1.9216,-1.9264,-1.9264,-1.9256,-1.9256,-1.9256,-1.9305,-1.9329,-1.9329,-1.9321,-1.9272,-1.9313,-1.9329,-1.9337,-1.9394,-1.941,-1.9427,-1.9435,-1.9443,-1.9443,-1.9451,-1.9451,-1.9459,-1.9475,-1.9508,-1.9565,-1.9613,-1.9662,-1.9735,-1.98,-1.9825,-1.9849,-1.9873,-1.989,-1.9922,-1.9817,-1.9711,-1.9508,-1.9419,-1.9329,-1.9272,-1.9264,-1.9264,-1.9264,-1.9264,-1.9264,-1.9264,-1.9454,-1.9454,-1.9454,-1.9552,-1.961,-1.9725,-1.9839,-2.002,-1.9971,-2.0093,-2.0182,-2.0206,-2.0279,-2.0279,-2.0279,-2.0279,-2.0696,-2.1336,-2.1977,-2.2392,-2.3014,-2.3428,-2.3428,-2.3635,-2.372,-2.3805,-2.3842,-2.3909,-2.4013,-2.4098,-2.4239,-2.4277,-2.4173,-2.4135,-2.4164,-2.4126,-2.406,-2.388,-2.3682,-2.3672,-2.3682,-2.3672,-2.3691,-2.3757,-1.6681,-1.6673,-1.6681,-1.6868,-1.7429,-1.7989,-1.8176,-1.8184,-1.82,-1.829,-1.846,-1.8598,-1.8688,-1.8712,-1.8712,-1.8818,-1.8948,-1.8988,-1.9061,-1.9183,-1.9199,-1.924,-1.9256,-1.9264,-1.9264,-1.9264,-1.9264,-1.9264,-1.9289,-1.9305,-1.937,-1.9475,-1.95,-1.9459,-1.9305,-1.9427,-1.95,-1.9532,-1.967,-1.9711,-1.9711,-1.9703,-1.9695,-1.9695,-1.9687,-1.967,-1.967,-1.967,-1.9711,-1.9768,-1.9784,-1.9817,-1.9865,-1.9865,-1.9922,-2.0044,-2.0052,-2.0133,-2.0255,-1.9971,-1.9776,-1.9622,-1.9565,-1.9459,-1.9321,-1.9272,-1.9272,-1.9272,-1.9264,-1.9264,-1.9264,-1.9264,-1.9264,-1.9321,-1.9419,-1.9549,-1.9662,-1.9776,-1.9955,-2.0101,-2.0223,-2.0312,-2.0312,-2.032,-2.0312,-2.0312,-2.032,-2.0737,-2.1154,-2.1778,-2.2184,-2.2843,-2.3475,-2.3729,-2.3767,-2.389,-2.3975,-2.4003,-2.4088,-2.4211,-2.4287,-2.4372,-2.4372,-2.4306,-2.4343,-2.44,-2.4334,-2.4249,-2.405,-2.3871,-2.3767,-2.3748,-2.3739,-2.3786,-2.389,-1.4993,-1.4811,-1.4993,-1.5556,-1.5931,-1.686,-1.7429,-1.7827,-1.8118,-1.846,-1.8615,-1.8712,-1.8801,-1.8858,-1.8907,-1.8988,-1.9134,-1.9167,-1.924,-1.9248,-1.9264,-1.9256,-1.9264,-1.9272,-1.9272,-1.9264,-1.9264,-1.9354,-1.9435,-1.9427,-1.9532,-1.9654,-1.9711,-1.967,-1.9638,-1.9678,-1.9695,-1.9703,-1.976,-1.9784,-1.98,-1.9808,-1.9808,-1.9817,-1.9817,-1.9825,-1.9833,-1.9841,-1.9882,-1.9955,-1.9971,-2.0011,-2.0085,-2.0109,-2.015,-2.0223,-2.0231,-2.0255,-2.0304,-2.0166,-2.0068,-1.9906,-1.9752,-1.9622,-1.9459,-1.9427,-1.937,-1.9305,-1.9313,-1.9305,-1.9264,-1.9264,-1.9297,-1.941,-1.9532,-1.9695,-1.9825,-1.9938,-2.0085,-2.0198,-2.0312,-2.032,-2.032,-2.032,-2.032,-2.0344,-2.0353,-2.0537,-2.1154,-2.157,-2.2193,-2.287,-2.3332,-2.3615,-2.3909,-2.406,-2.4154,-2.4183,-2.4306,-2.4447,-2.4513,-2.4542,-2.4598,-2.4608,-2.4627,-2.4636,-2.4532,-2.4409,-2.4249,-2.4098,-2.406,-2.4003,-2.3994,-2.405,-2.4126,-1.4059,-1.3682,-1.4052,-1.4429,-1.4811,-1.5931,-1.6711,-1.7177,-1.7756,-1.832,-1.8423,-1.8681,-1.8769,-1.9053,-1.9094,-1.9118,-1.9256,-1.9256,-1.9256,-1.9264,-1.9264,-1.9264,-1.9272,-1.9321,-1.9362,-1.9362,-1.9427,-1.9524,-1.9605,-1.9613,-1.9719,-1.9857,-1.9938,-1.9979,-1.9963,-1.9938,-1.989,-1.9906,-1.9955,-2.0011,-2.0011,-2.0003,-1.9995,-1.9995,-1.9995,-1.9995,-1.9979,-1.9995,-2.002,-2.0117,-2.0166,-2.0198,-2.0288,-2.032,-2.032,-2.032,-2.032,-2.032,-2.0312,-2.0312,-2.0214,-2.0141,-1.9987,-1.9808,-1.9654,-1.9613,-1.9565,-1.95,-1.9435,-1.9435,-1.9435,-1.9427,-1.9467,-1.9589,-1.9711,-1.9873,-1.9963,-2.0076,-2.0166,-2.0288,-2.032,-2.032,-2.032,-2.032,-2.032,-2.0353,-2.0377,-2.057,-2.0987,-2.143,-2.2082,-2.2771,-2.3281,-2.3802,-2.4126,-2.4258,-2.4334,-2.4372,-2.4495,-2.4646,-2.4702,-2.4731,-2.4825,-2.4882,-2.4816,-2.475,-2.4693,-2.4589,-2.4495,-2.4466,-2.4485,-2.4409,-2.4306,-2.4315,-2.4362,-1.3688,-1.3682,-1.3682,-1.3682,-1.387,-1.5215,-1.6248,-1.6781,-1.727,-1.7607,-1.8223,-1.8364,-1.8608,-1.9034,-1.9248,-1.9248,-1.9256,-1.9256,-1.9281,-1.9289,-1.9313,-1.9305,-1.937,-1.9459,-1.9508,-1.9581,-1.9646,-1.9703,-1.9784,-1.9849,-1.9946,-2.006,-2.0174,-2.0206,-2.019,-2.0133,-2.0076,-2.0101,-2.015,-2.0198,-2.0206,-2.0247,-2.0223,-2.0223,-2.0223,-2.0231,-2.0231,-2.0247,-2.0263,-2.0296,-2.0304,-2.0312,-2.032,-2.032,-2.032,-2.032,-2.032,-2.032,-2.032,-2.032,-2.032,-2.0255,-2.0158,-1.9987,-1.9865,-1.9792,-1.9743,-1.9711,-1.967,-1.9719,-1.9743,-1.9735,-1.9727,-1.9833,-1.9922,-2.002,-2.0093,-2.0174,-2.0263,-2.032,-2.032,-2.032,-2.032,-2.032,-2.0353,-2.0426,-2.0466,-2.0507,-2.0936,-2.1205,-2.1863,-2.2521,-2.3051,-2.3603,-2.414,-2.4466,-2.4542,-2.4589,-2.4684,-2.4806,-2.4863,-2.4863,-2.4873,-2.4882,-2.4882,-2.4844,-2.4787,-2.4797,-2.4816,-2.4797,-2.4731,-2.4665,-2.4513,-2.4542,-2.4589,-1.1983,-1.2172,-1.255,-1.2739,-1.3335,-1.4266,-1.5202,-1.6119,-1.6615,-1.7282,-1.7803,-1.7848,-1.8069,-1.8267,-1.8465,-1.8655,-1.8861,-1.9075,-1.9354,-1.9394,-1.9243,-1.9524,-1.9605,-1.967,-1.9711,-1.9727,-1.9784,-1.989,-1.9995,-2.0076,-2.015,-2.0255,-2.0288,-2.032,-2.0304,-2.0263,-2.0239,-2.0239,-2.0296,-2.0312,-2.032,-2.032,-2.032,-2.032,-2.032,-2.032,-2.032,-2.0336,-2.0336,-2.0336,-2.0328,-2.032,-2.032,-2.032,-2.032,-2.032,-2.032,-2.032,-2.032,-2.032,-2.032,-2.032,-2.0263,-2.0166,-2.0044,-1.9971,-1.993,-1.9906,-1.9873,-1.989,-1.989,-1.989,-1.9922,-2.0003,-2.0076,-2.0125,-2.019,-2.0247,-2.032,-2.032,-2.032,-2.032,-2.032,-2.0361,-2.0401,-2.0491,-2.0572,-2.0629,-2.0677,-2.1168,-2.1627,-2.2291,-2.2832,-2.3394,-2.4121,-2.4646,-2.4731,-2.4816,-2.4863,-2.4882,-2.4882,-2.4873,-2.4882,-2.4882,-2.4882,-2.4882,-2.4873,-2.4882,-2.4882,-2.4882,-2.4825,-2.4787,-2.4759,-2.475,-2.475,-1.1227,-1.1416,-1.1794,-1.2221,-1.2724,-1.3291,-1.4042,-1.4941,-1.5546,-1.6199,-1.6672,-1.6878,-1.7268,-1.7466,-1.787,-1.8298,-1.8375,-1.8589,-1.866,-1.8784,-1.9009,-1.8862,-1.9159,-1.9449,-1.9481,-1.9702,-1.9766,-2.0085,-2.0174,-2.0239,-2.0312,-2.0312,-2.032,-2.032,-2.032,-2.0312,-2.0312,-2.0312,-2.032,-2.032,-2.032,-2.032,-2.032,-2.032,-2.032,-2.032,-2.0344,-2.0369,-2.0426,-2.0426,-2.0426,-2.0426,-2.0409,-2.0377,-2.0328,-2.032,-2.032,-2.032,-2.032,-2.032,-2.032,-2.0328,-2.0336,-2.0263,-2.0214,-2.0158,-2.0109,-2.0068,-2.0036,-2.0011,-2.0011,-2.0011,-2.0085,-2.0158,-2.019,-2.0214,-2.0263,-2.0304,-2.032,-2.032,-2.032,-2.032,-2.0344,-2.0385,-2.0458,-2.058,-2.0734,-2.088,-2.0913,-2.1152,-2.1607,-2.2045,-2.2613,-2.3187,-2.3892,-2.4561,-2.4599,-2.4636,-2.4863,-2.4882,-2.4882,-2.4891,-2.4901,-2.4891,-2.4882,-2.4891,-2.492,-2.4891,-2.4882,-2.4882,-2.4882,-2.4844,-2.4825,-2.4835,-2.4844,-1.0848,-1.1227,-1.1426,-1.1936,-1.2531,-1.2645,-1.3161,-1.3684,-1.4271,-1.4676,-1.528,-1.5884,-1.6275,-1.6474,-1.7106,-1.7385,-1.7465,-1.771,-1.7813,-1.796,-1.8172,-1.8209,-1.8488,-1.8747,-1.9022,-1.9306,-1.9775,-2.0023,-2.0288,-2.032,-2.032,-2.032,-2.032,-2.032,-2.032,-2.032,-2.032,-2.032,-2.032,-2.032,-2.032,-2.032,-2.032,-2.032,-2.0328,-2.0336,-2.0385,-2.0483,-2.0604,-2.0604,-2.0588,-2.058,-2.0483,-2.0409,-2.0344,-2.0353,-2.0361,-2.0385,-2.0409,-2.0434,-2.0426,-2.0409,-2.0369,-2.0409,-2.0418,-2.0296,-2.0223,-2.0214,-2.0182,-2.0174,-2.0174,-2.0174,-2.0223,-2.0247,-2.0263,-2.0279,-2.0296,-2.0361,-2.0418,-2.0418,-2.0418,-2.0426,-2.0499,-2.0556,-2.0401,-2.0497,-2.0626,-2.0819,-2.0907,-2.0915,-2.1349,-2.1999,-2.2527,-2.2848,-2.352,-2.3965,-2.4201,-2.4446,-2.4664,-2.4446,-2.4228,-2.4456,-2.4702,-2.4739,-2.4777,-2.4958,-2.4958,-2.4929,-2.4901,-2.4882,-2.4882,-2.4882,-2.4882,-2.4882,-2.4882,-1.009,-1.0289,-1.1126,-1.1823,-1.2542,-1.2656,-1.2776,-1.3084,-1.3284,-1.3884,-1.4676,-1.4881,-1.5081,-1.528,-1.579,-1.6273,-1.632,-1.6646,-1.6756,-1.7058,-1.7305,-1.7561,-1.7862,-1.8307,-1.8567,-1.9014,-1.9261,-1.9903,-2.0111,-2.0111,-2.032,-2.032,-2.0111,-2.0111,-2.0111,-2.032,-2.0111,-2.0111,-2.0111,-2.0111,-2.0111,-2.032,-2.032,-2.0328,-2.0336,-2.0426,-2.0491,-2.0572,-2.0686,-2.0751,-2.0645,-2.0539,-2.0393,-2.0353,-2.0328,-2.0344,-2.0466,-2.0515,-2.0556,-2.0604,-2.0653,-2.0686,-2.0694,-2.0718,-2.0653,-2.0442,-2.0336,-2.0336,-2.032,-2.032,-2.032,-2.032,-2.032,-2.032,-2.0328,-2.0328,-2.0328,-2.0418,-2.0507,-2.0531,-2.0531,-2.058,-2.0653,-2.0505,-2.057,-2.0452,-2.0355,-2.0272,-2.0381,-2.042,-2.106,-2.1715,-2.2177,-2.2682,-2.3128,-2.3346,-2.3574,-2.3574,-2.3783,-2.3565,-2.3574,-2.3918,-2.4247,-2.4468,-2.4477,-2.4669,-2.4833,-2.4958,-2.4929,-2.4901,-2.4882,-2.4882,-2.4882,-2.4882,-2.4882,-0.9711,-1.0108,-1.1205,-1.1885,-1.2163,-1.2513,-1.2825,-1.2879,-1.289,-1.3284,-1.3684,-1.4083,-1.4083,-1.4301,-1.4824,-1.5139,-1.5189,-1.5532,-1.5873,-1.6178,-1.6419,-1.6465,-1.6944,-1.7594,-1.7789,-1.8013,-1.885,-1.9276,-1.9686,-1.9477,-1.9477,-1.9686,-1.9686,-1.9694,-1.9903,-1.9903,-1.9903,-1.9911,-1.9911,-1.9702,-1.9702,-1.9702,-1.9757,-1.9773,-1.9836,-2.0125,-2.0473,-2.0554,-2.088,-2.0905,-2.0807,-2.0645,-2.0523,-2.0466,-2.0499,-2.0572,-2.0653,-2.071,-2.0742,-2.0799,-2.0872,-2.088,-2.0864,-2.0815,-2.0807,-2.0621,-2.0539,-2.0523,-2.0353,-2.0328,-2.032,-2.032,-2.032,-2.032,-2.0336,-2.0353,-2.0418,-2.0515,-2.0409,-2.0285,-2.0072,-2.0088,-1.9952,-1.9823,-1.9877,-1.9931,-1.9837,-1.9921,-1.98,-1.9625,-2.0505,-2.1164,-2.1603,-2.2042,-2.2699,-2.2918,-2.2918,-2.2918,-2.2935,-2.3216,-2.3286,-2.3453,-2.379,-2.4012,-2.4208,-2.4384,-2.4532,-2.4651,-2.4958,-2.491,-2.4891,-2.4882,-2.4882,-2.4882,-2.4882,-0.934,-1.0135,-1.1076,-1.1752,-1.1994,-1.2588,-1.2884,-1.289,-1.289,-1.289,-1.309,-1.349,-1.349,-1.373,-1.4244,-1.4566,-1.4693,-1.4837,-1.497,-1.503,-1.5271,-1.5481,-1.5691,-1.6335,-1.6755,-1.7384,-1.8013,-1.8432,-1.885,-1.885,-1.885,-1.8634,-1.8641,-1.885,-1.9276,-1.9276,-1.9276,-1.9291,-1.9307,-1.8896,-1.8896,-1.9105,-1.9189,-1.9273,-1.9349,-1.9654,-2.0022,-2.0363,-2.0891,-2.0827,-2.0706,-2.0529,-2.0645,-2.0596,-2.0694,-2.0767,-2.0848,-2.088,-2.0905,-2.0954,-2.0962,-2.0945,-2.0913,-2.0913,-2.0921,-2.0864,-2.0783,-2.0677,-2.0507,-2.0377,-2.0377,-2.0336,-2.0336,-2.0353,-2.0377,-2.0232,-2.0337,-2.0441,-2.0348,-2.003,-1.9823,-1.9608,-1.9476,-1.9349,-1.9379,-1.9431,-1.9272,-1.9353,-1.9412,-1.9192,-1.9405,-2.0285,-2.0945,-2.1384,-2.2042,-2.2278,-2.2286,-2.2354,-2.2608,-2.2889,-2.3214,-2.2958,-2.3078,-2.3536,-2.3734,-2.3923,-2.4039,-2.4366,-2.4449,-2.4749,-2.4901,-2.4891,-2.4882,-2.4882,-2.4882,-0.9378,-1.0029,-1.0334,-1.1011,-1.1895,-1.2227,-1.2484,-1.289,-1.289,-1.289,-1.289,-1.289,-1.309,-1.3101,-1.3322,-1.3637,-1.3877,-1.3856,-1.3968,-1.4024,-1.4446,-1.4446,-1.4868,-1.5493,-1.6124,-1.6755,-1.7174,-1.7804,-1.7796,-1.8215,-1.8424,-1.8424,-1.8432,-1.8641,-1.8641,-1.8641,-1.8649,-1.8671,-1.8339,-1.7967,-1.7777,-1.8208,-1.885,-1.8932,-1.9029,-1.9385,-1.9521,-1.9574,-1.9814,-1.9768,-2.0108,-2.0158,-2.0103,-2.0324,-2.0626,-2.0722,-2.0803,-2.1059,-2.1092,-2.1157,-2.1173,-2.1197,-2.1197,-2.1205,-2.1181,-2.1108,-2.1035,-2.0978,-2.0799,-2.0604,-2.0539,-2.0426,-2.0393,-2.0434,-2.0466,-2.0197,-2.0332,-2.0245,-1.9931,-1.976,-1.9334,-1.9176,-1.9046,-1.9068,-1.8798,-1.8629,-1.8239,-1.8302,-1.8309,-1.8309,-1.8522,-1.9184,-2.0065,-2.0725,-2.1384,-2.1644,-2.1889,-2.1972,-2.208,-2.241,-2.2544,-2.2478,-2.256,-2.3047,-2.3274,-2.3475,-2.3804,-2.4093,-2.4153,-2.4449,-2.4739,-2.4891,-2.4891,-2.4891,-2.491]}]]